<?xml version='1.0' encoding='UTF-8'?><gpx version="1.1" creator="JPX - https://github.com/jenetics/jpx" xmlns="http://www.topografix.com/GPX/1/1"><trk><trkseg><trkpt lat="40.7907316" lon="17.1066684"><ele>373.0</ele><time>2026-04-07T05:48:00.905Z</time></trkpt><trkpt lat="40.7906677" lon="17.1067678"><ele>373.0</ele><time>2026-04-07T05:48:02.882Z</time></trkpt><trkpt lat="40.7906062" lon="17.1068734"><ele>373.0</ele><time>2026-04-07T05:48:04.904Z</time></trkpt><trkpt lat="40.79055" lon="17.1069651"><ele>373.0</ele><time>2026-04-07T05:48:06.913Z</time></trkpt><trkpt lat="40.7904948" lon="17.1070424"><ele>373.0</ele><time>2026-04-07T05:48:08.91Z</time></trkpt><trkpt lat="40.790444" lon="17.1071073"><ele>373.0</ele><time>2026-04-07T05:48:10.892Z</time></trkpt><trkpt lat="40.7903899" lon="17.1071619"><ele>373.0</ele><time>2026-04-07T05:48:16.91Z</time></trkpt><trkpt lat="40.7904023" lon="17.1072477"><ele>373.0</ele><time>2026-04-07T05:48:25.908Z</time></trkpt><trkpt lat="40.7904128" lon="17.1073443"><ele>373.0</ele><time>2026-04-07T05:48:29.907Z</time></trkpt><trkpt lat="40.7904728" lon="17.1074251"><ele>373.0</ele><time>2026-04-07T05:48:32.91Z</time></trkpt><trkpt lat="40.790523" lon="17.1074912"><ele>373.0</ele><time>2026-04-07T05:48:34.91Z</time></trkpt><trkpt lat="40.79058" lon="17.1075814"><ele>373.0</ele><time>2026-04-07T05:48:37.917Z</time></trkpt><trkpt lat="40.7906338" lon="17.1076872"><ele>372.2</ele><time>2026-04-07T05:48:40.948Z</time></trkpt><trkpt lat="40.7906566" lon="17.107776"><ele>371.4</ele><time>2026-04-07T05:48:42.919Z</time></trkpt><trkpt lat="40.7906876" lon="17.1078978"><ele>370.59999999999997</ele><time>2026-04-07T05:48:44.912Z</time></trkpt><trkpt lat="40.7907343" lon="17.1080329"><ele>369.79999999999995</ele><time>2026-04-07T05:48:46.903Z</time></trkpt><trkpt lat="40.7907921" lon="17.1081762"><ele>369.0</ele><time>2026-04-07T05:48:48.915Z</time></trkpt><trkpt lat="40.7908195" lon="17.1082521"><ele>368.2857142857143</ele><time>2026-04-07T05:48:49.903Z</time></trkpt><trkpt lat="40.7908496" lon="17.1083277"><ele>367.57142857142856</ele><time>2026-04-07T05:48:50.929Z</time></trkpt><trkpt lat="40.790871" lon="17.1084063"><ele>366.8571428571429</ele><time>2026-04-07T05:48:51.907Z</time></trkpt><trkpt lat="40.7908913" lon="17.1084861"><ele>366.1428571428571</ele><time>2026-04-07T05:48:52.914Z</time></trkpt><trkpt lat="40.7909156" lon="17.108569"><ele>365.42857142857144</ele><time>2026-04-07T05:48:53.907Z</time></trkpt><trkpt lat="40.7909338" lon="17.1086507"><ele>364.7142857142857</ele><time>2026-04-07T05:48:54.908Z</time></trkpt><trkpt lat="40.7909654" lon="17.1088091"><ele>364.0</ele><time>2026-04-07T05:48:56.909Z</time></trkpt><trkpt lat="40.7909856" lon="17.1089563"><ele>364.3333333333333</ele><time>2026-04-07T05:48:58.92Z</time></trkpt><trkpt lat="40.7910048" lon="17.1090861"><ele>364.66666666666663</ele><time>2026-04-07T05:49:00.916Z</time></trkpt><trkpt lat="40.7910268" lon="17.1091935"><ele>365.0</ele><time>2026-04-07T05:49:02.909Z</time></trkpt><trkpt lat="40.7910434" lon="17.1092795"><ele>365.3333333333333</ele><time>2026-04-07T05:49:04.907Z</time></trkpt><trkpt lat="40.7910714" lon="17.1093849"><ele>365.6666666666667</ele><time>2026-04-07T05:49:07.916Z</time></trkpt><trkpt lat="40.7911043" lon="17.1094909"><ele>366.0</ele><time>2026-04-07T05:49:10.888Z</time></trkpt><trkpt lat="40.7911289" lon="17.1095722"><ele>366.8333333333333</ele><time>2026-04-07T05:49:12.905Z</time></trkpt><trkpt lat="40.7911606" lon="17.1096561"><ele>367.6666666666667</ele><time>2026-04-07T05:49:14.913Z</time></trkpt><trkpt lat="40.7911981" lon="17.109762"><ele>368.5</ele><time>2026-04-07T05:49:17.911Z</time></trkpt><trkpt lat="40.7912394" lon="17.1098644"><ele>369.33333333333337</ele><time>2026-04-07T05:49:20.897Z</time></trkpt><trkpt lat="40.7912917" lon="17.1099676"><ele>370.1666666666667</ele><time>2026-04-07T05:49:23.899Z</time></trkpt><trkpt lat="40.7913264" lon="17.1100373"><ele>371.0</ele><time>2026-04-07T05:49:25.91Z</time></trkpt><trkpt lat="40.7913682" lon="17.1101023"><ele>371.42857142857144</ele><time>2026-04-07T05:49:27.896Z</time></trkpt><trkpt lat="40.7914062" lon="17.1101755"><ele>371.8571428571429</ele><time>2026-04-07T05:49:29.901Z</time></trkpt><trkpt lat="40.7914634" lon="17.1102735"><ele>372.2857142857143</ele><time>2026-04-07T05:49:32.908Z</time></trkpt><trkpt lat="40.791516" lon="17.1103711"><ele>372.7142857142857</ele><time>2026-04-07T05:49:35.901Z</time></trkpt><trkpt lat="40.7915501" lon="17.1104426"><ele>373.14285714285717</ele><time>2026-04-07T05:49:37.899Z</time></trkpt><trkpt lat="40.7915862" lon="17.1105184"><ele>373.57142857142856</ele><time>2026-04-07T05:49:39.891Z</time></trkpt><trkpt lat="40.7916172" lon="17.1105923"><ele>374.0</ele><time>2026-04-07T05:49:41.905Z</time></trkpt><trkpt lat="40.7916418" lon="17.1106767"><ele>374.0</ele><time>2026-04-07T05:49:43.876Z</time></trkpt><trkpt lat="40.7916642" lon="17.1107698"><ele>374.0</ele><time>2026-04-07T05:49:45.897Z</time></trkpt><trkpt lat="40.7916858" lon="17.1108528"><ele>374.0</ele><time>2026-04-07T05:49:47.905Z</time></trkpt><trkpt lat="40.7917132" lon="17.1109603"><ele>374.0</ele><time>2026-04-07T05:49:50.91Z</time></trkpt><trkpt lat="40.7917382" lon="17.1110429"><ele>374.0</ele><time>2026-04-07T05:49:52.907Z</time></trkpt><trkpt lat="40.791769" lon="17.1111319"><ele>374.0</ele><time>2026-04-07T05:49:54.921Z</time></trkpt><trkpt lat="40.7918115" lon="17.1112213"><ele>374.0</ele><time>2026-04-07T05:49:56.929Z</time></trkpt><trkpt lat="40.7918436" lon="17.1113068"><ele>374.1428571428571</ele><time>2026-04-07T05:49:58.909Z</time></trkpt><trkpt lat="40.7918778" lon="17.1113869"><ele>374.28571428571433</ele><time>2026-04-07T05:50:00.901Z</time></trkpt><trkpt lat="40.7919079" lon="17.1114642"><ele>374.42857142857144</ele><time>2026-04-07T05:50:02.913Z</time></trkpt><trkpt lat="40.7919376" lon="17.1115474"><ele>374.57142857142856</ele><time>2026-04-07T05:50:04.911Z</time></trkpt><trkpt lat="40.7919725" lon="17.1116283"><ele>374.71428571428567</ele><time>2026-04-07T05:50:06.92Z</time></trkpt><trkpt lat="40.7920051" lon="17.1117162"><ele>374.8571428571429</ele><time>2026-04-07T05:50:08.919Z</time></trkpt><trkpt lat="40.7920361" lon="17.1118153"><ele>375.0</ele><time>2026-04-07T05:50:10.907Z</time></trkpt><trkpt lat="40.7920735" lon="17.1119253"><ele>374.6666666666667</ele><time>2026-04-07T05:50:12.933Z</time></trkpt><trkpt lat="40.7921092" lon="17.1120612"><ele>374.3333333333333</ele><time>2026-04-07T05:50:14.909Z</time></trkpt><trkpt lat="40.7921394" lon="17.1122141"><ele>374.0</ele><time>2026-04-07T05:50:16.897Z</time></trkpt><trkpt lat="40.7921574" lon="17.1122975"><ele>373.66666666666663</ele><time>2026-04-07T05:50:17.928Z</time></trkpt><trkpt lat="40.7921742" lon="17.1123779"><ele>373.3333333333333</ele><time>2026-04-07T05:50:18.912Z</time></trkpt><trkpt lat="40.7921906" lon="17.1124669"><ele>373.0</ele><time>2026-04-07T05:50:19.904Z</time></trkpt><trkpt lat="40.7922079" lon="17.1125546"><ele>372.66666666666663</ele><time>2026-04-07T05:50:20.913Z</time></trkpt><trkpt lat="40.7922209" lon="17.1126447"><ele>372.3333333333333</ele><time>2026-04-07T05:50:21.907Z</time></trkpt><trkpt lat="40.7922325" lon="17.1127301"><ele>372.0</ele><time>2026-04-07T05:50:22.924Z</time></trkpt><trkpt lat="40.7922432" lon="17.1128135"><ele>371.6666666666667</ele><time>2026-04-07T05:50:23.914Z</time></trkpt><trkpt lat="40.7922547" lon="17.1129028"><ele>371.33333333333337</ele><time>2026-04-07T05:50:24.914Z</time></trkpt><trkpt lat="40.7922601" lon="17.1129875"><ele>371.0</ele><time>2026-04-07T05:50:25.912Z</time></trkpt><trkpt lat="40.7922684" lon="17.1131468"><ele>370.5</ele><time>2026-04-07T05:50:27.909Z</time></trkpt><trkpt lat="40.7922769" lon="17.1132932"><ele>370.0</ele><time>2026-04-07T05:50:29.907Z</time></trkpt><trkpt lat="40.7922839" lon="17.1134261"><ele>369.5</ele><time>2026-04-07T05:50:31.906Z</time></trkpt><trkpt lat="40.7922862" lon="17.1135403"><ele>369.0</ele><time>2026-04-07T05:50:33.902Z</time></trkpt><trkpt lat="40.7922751" lon="17.1136369"><ele>368.5</ele><time>2026-04-07T05:50:35.908Z</time></trkpt><trkpt lat="40.7922729" lon="17.1137254"><ele>368.0</ele><time>2026-04-07T05:50:37.9Z</time></trkpt><trkpt lat="40.7922542" lon="17.1138289"><ele>368.0</ele><time>2026-04-07T05:50:39.893Z</time></trkpt><trkpt lat="40.7922354" lon="17.1139399"><ele>368.0</ele><time>2026-04-07T05:50:41.909Z</time></trkpt><trkpt lat="40.7922238" lon="17.1140525"><ele>368.0</ele><time>2026-04-07T05:50:43.908Z</time></trkpt><trkpt lat="40.7922023" lon="17.1141654"><ele>368.0</ele><time>2026-04-07T05:50:45.904Z</time></trkpt><trkpt lat="40.7921803" lon="17.1142721"><ele>368.0</ele><time>2026-04-07T05:50:47.893Z</time></trkpt><trkpt lat="40.7921674" lon="17.1143854"><ele>368.0</ele><time>2026-04-07T05:50:49.909Z</time></trkpt><trkpt lat="40.7921532" lon="17.1144935"><ele>368.1666666666667</ele><time>2026-04-07T05:50:51.902Z</time></trkpt><trkpt lat="40.7921383" lon="17.114596"><ele>368.33333333333337</ele><time>2026-04-07T05:50:53.909Z</time></trkpt><trkpt lat="40.7921243" lon="17.1146938"><ele>368.5</ele><time>2026-04-07T05:50:55.908Z</time></trkpt><trkpt lat="40.7921109" lon="17.1148057"><ele>368.6666666666667</ele><time>2026-04-07T05:50:57.906Z</time></trkpt><trkpt lat="40.7921059" lon="17.1149004"><ele>368.8333333333333</ele><time>2026-04-07T05:50:59.904Z</time></trkpt><trkpt lat="40.7921048" lon="17.1149966"><ele>369.0</ele><time>2026-04-07T05:51:01.904Z</time></trkpt><trkpt lat="40.7920987" lon="17.1150994"><ele>369.42857142857144</ele><time>2026-04-07T05:51:03.92Z</time></trkpt><trkpt lat="40.7920807" lon="17.115203"><ele>369.85714285714283</ele><time>2026-04-07T05:51:05.914Z</time></trkpt><trkpt lat="40.7920614" lon="17.1152946"><ele>370.28571428571433</ele><time>2026-04-07T05:51:07.912Z</time></trkpt><trkpt lat="40.792041" lon="17.1153819"><ele>370.7142857142857</ele><time>2026-04-07T05:51:09.91Z</time></trkpt><trkpt lat="40.7920268" lon="17.115476"><ele>371.14285714285717</ele><time>2026-04-07T05:51:11.909Z</time></trkpt><trkpt lat="40.7920101" lon="17.1155583"><ele>371.5714285714286</ele><time>2026-04-07T05:51:13.906Z</time></trkpt><trkpt lat="40.7919861" lon="17.1156503"><ele>372.0</ele><time>2026-04-07T05:51:16.911Z</time></trkpt><trkpt lat="40.7919349" lon="17.1157577"><ele>372.20000000000005</ele><time>2026-04-07T05:51:19.903Z</time></trkpt><trkpt lat="40.7919023" lon="17.1158718"><ele>372.4</ele><time>2026-04-07T05:51:21.909Z</time></trkpt><trkpt lat="40.7919074" lon="17.1159998"><ele>372.6</ele><time>2026-04-07T05:51:23.9Z</time></trkpt><trkpt lat="40.7919283" lon="17.1161261"><ele>372.79999999999995</ele><time>2026-04-07T05:51:25.902Z</time></trkpt><trkpt lat="40.7919751" lon="17.1162308"><ele>373.0</ele><time>2026-04-07T05:51:27.916Z</time></trkpt><trkpt lat="40.7920127" lon="17.1163335"><ele>373.0</ele><time>2026-04-07T05:51:29.929Z</time></trkpt><trkpt lat="40.7920477" lon="17.1164297"><ele>373.0</ele><time>2026-04-07T05:51:31.911Z</time></trkpt><trkpt lat="40.7920776" lon="17.1165099"><ele>373.0</ele><time>2026-04-07T05:51:33.914Z</time></trkpt><trkpt lat="40.7921029" lon="17.1165938"><ele>373.0</ele><time>2026-04-07T05:51:36.907Z</time></trkpt><trkpt lat="40.792128" lon="17.1166877"><ele>373.0</ele><time>2026-04-07T05:51:38.907Z</time></trkpt><trkpt lat="40.7921497" lon="17.1168104"><ele>373.0</ele><time>2026-04-07T05:51:40.911Z</time></trkpt><trkpt lat="40.7921719" lon="17.1169356"><ele>373.16666666666663</ele><time>2026-04-07T05:51:42.906Z</time></trkpt><trkpt lat="40.7921906" lon="17.1170651"><ele>373.3333333333333</ele><time>2026-04-07T05:51:44.923Z</time></trkpt><trkpt lat="40.7922118" lon="17.1171787"><ele>373.5</ele><time>2026-04-07T05:51:46.896Z</time></trkpt><trkpt lat="40.7922309" lon="17.1172886"><ele>373.6666666666667</ele><time>2026-04-07T05:51:48.909Z</time></trkpt><trkpt lat="40.7922522" lon="17.1173899"><ele>373.83333333333337</ele><time>2026-04-07T05:51:50.909Z</time></trkpt><trkpt lat="40.7922825" lon="17.1174802"><ele>374.0</ele><time>2026-04-07T05:51:52.906Z</time></trkpt><trkpt lat="40.7923177" lon="17.1175836"><ele>374.1666666666667</ele><time>2026-04-07T05:51:54.922Z</time></trkpt><trkpt lat="40.7923307" lon="17.1176896"><ele>374.33333333333337</ele><time>2026-04-07T05:51:56.908Z</time></trkpt><trkpt lat="40.792357" lon="17.1177828"><ele>374.5</ele><time>2026-04-07T05:51:58.909Z</time></trkpt><trkpt lat="40.7923822" lon="17.117861"><ele>374.6666666666667</ele><time>2026-04-07T05:52:00.912Z</time></trkpt><trkpt lat="40.7924237" lon="17.1179704"><ele>374.8333333333333</ele><time>2026-04-07T05:52:03.907Z</time></trkpt><trkpt lat="40.792473" lon="17.1180764"><ele>375.0</ele><time>2026-04-07T05:52:06.911Z</time></trkpt><trkpt lat="40.7925183" lon="17.1181765"><ele>375.1666666666667</ele><time>2026-04-07T05:52:09.913Z</time></trkpt><trkpt lat="40.7925568" lon="17.1182874"><ele>375.3333333333333</ele><time>2026-04-07T05:52:12.913Z</time></trkpt><trkpt lat="40.7925864" lon="17.1183738"><ele>375.5</ele><time>2026-04-07T05:52:15.903Z</time></trkpt><trkpt lat="40.792613" lon="17.1184529"><ele>375.66666666666663</ele><time>2026-04-07T05:52:18.909Z</time></trkpt><trkpt lat="40.7926601" lon="17.1185493"><ele>375.8333333333333</ele><time>2026-04-07T05:52:21.917Z</time></trkpt><trkpt lat="40.7926994" lon="17.1186442"><ele>376.0</ele><time>2026-04-07T05:52:24.91Z</time></trkpt><trkpt lat="40.7927411" lon="17.1187457"><ele>376.42857142857144</ele><time>2026-04-07T05:52:27.919Z</time></trkpt><trkpt lat="40.7927704" lon="17.1188492"><ele>376.85714285714283</ele><time>2026-04-07T05:52:30.916Z</time></trkpt><trkpt lat="40.7928065" lon="17.1189365"><ele>377.28571428571433</ele><time>2026-04-07T05:52:33.907Z</time></trkpt><trkpt lat="40.79282" lon="17.1190265"><ele>377.7142857142857</ele><time>2026-04-07T05:52:39.901Z</time></trkpt><trkpt lat="40.792807" lon="17.1191112"><ele>378.14285714285717</ele><time>2026-04-07T05:52:42.901Z</time></trkpt><trkpt lat="40.7927655" lon="17.119175"><ele>378.5714285714286</ele><time>2026-04-07T05:52:46.897Z</time></trkpt><trkpt lat="40.7927584" lon="17.1192634"><ele>379.0</ele><time>2026-04-07T05:52:48.91Z</time></trkpt><trkpt lat="40.7927995" lon="17.1193575"><ele>379.7142857142857</ele><time>2026-04-07T05:52:50.902Z</time></trkpt><trkpt lat="40.7928589" lon="17.1194212"><ele>380.42857142857144</ele><time>2026-04-07T05:52:52.929Z</time></trkpt><trkpt lat="40.7929143" lon="17.119464"><ele>381.1428571428571</ele><time>2026-04-07T05:52:54.911Z</time></trkpt><trkpt lat="40.7929342" lon="17.1195467"><ele>381.8571428571429</ele><time>2026-04-07T05:52:57.91Z</time></trkpt><trkpt lat="40.7929241" lon="17.1196419"><ele>382.57142857142856</ele><time>2026-04-07T05:53:06.896Z</time></trkpt><trkpt lat="40.7929338" lon="17.1197309"><ele>383.2857142857143</ele><time>2026-04-07T05:53:13.906Z</time></trkpt><trkpt lat="40.7929415" lon="17.1198159"><ele>384.0</ele><time>2026-04-07T05:53:19.905Z</time></trkpt><trkpt lat="40.7929591" lon="17.1199057"><ele>385.1428571428571</ele><time>2026-04-07T05:53:25.903Z</time></trkpt><trkpt lat="40.7929804" lon="17.1199851"><ele>386.2857142857143</ele><time>2026-04-07T05:53:31.903Z</time></trkpt><trkpt lat="40.7930199" lon="17.1200509"><ele>387.42857142857144</ele><time>2026-04-07T05:53:38.907Z</time></trkpt><trkpt lat="40.7930519" lon="17.120128"><ele>388.57142857142856</ele><time>2026-04-07T05:53:45.899Z</time></trkpt><trkpt lat="40.7930946" lon="17.1201954"><ele>389.7142857142857</ele><time>2026-04-07T05:53:54.904Z</time></trkpt><trkpt lat="40.7931259" lon="17.1202817"><ele>390.85714285714283</ele><time>2026-04-07T05:54:03.9Z</time></trkpt><trkpt lat="40.7931562" lon="17.1203667"><ele>392.0</ele><time>2026-04-07T05:54:12.91Z</time></trkpt><trkpt lat="40.7931863" lon="17.1204508"><ele>392.0</ele><time>2026-04-07T05:54:20.909Z</time></trkpt><trkpt lat="40.7932321" lon="17.1205151"><ele>392.0</ele><time>2026-04-07T05:54:28.911Z</time></trkpt><trkpt lat="40.7932968" lon="17.120529"><ele>392.0</ele><time>2026-04-07T05:54:37.895Z</time></trkpt><trkpt lat="40.7933616" lon="17.1205763"><ele>392.0</ele><time>2026-04-07T05:54:42.905Z</time></trkpt><trkpt lat="40.7934223" lon="17.1206192"><ele>392.0</ele><time>2026-04-07T05:54:47.888Z</time></trkpt><trkpt lat="40.7934711" lon="17.1206753"><ele>392.0</ele><time>2026-04-07T05:54:53.895Z</time></trkpt><trkpt lat="40.7935147" lon="17.1207357"><ele>392.0</ele><time>2026-04-07T05:55:01.906Z</time></trkpt><trkpt lat="40.7935781" lon="17.1207722"><ele>394.0</ele><time>2026-04-07T05:55:08.909Z</time></trkpt><trkpt lat="40.7936447" lon="17.1208058"><ele>396.0</ele><time>2026-04-07T05:55:16.901Z</time></trkpt><trkpt lat="40.7937037" lon="17.1208505"><ele>398.0</ele><time>2026-04-07T05:55:23.905Z</time></trkpt><trkpt lat="40.7937509" lon="17.120921"><ele>400.0</ele><time>2026-04-07T05:55:32.908Z</time></trkpt><trkpt lat="40.7938049" lon="17.1209723"><ele>402.0</ele><time>2026-04-07T05:55:37.902Z</time></trkpt><trkpt lat="40.7938511" lon="17.1210382"><ele>404.0</ele><time>2026-04-07T05:55:43.905Z</time></trkpt><trkpt lat="40.793913" lon="17.1210863"><ele>406.0</ele><time>2026-04-07T05:55:51.905Z</time></trkpt><trkpt lat="40.7939789" lon="17.1211257"><ele>406.0</ele><time>2026-04-07T05:55:58.911Z</time></trkpt><trkpt lat="40.7940243" lon="17.121198"><ele>406.0</ele><time>2026-04-07T05:56:04.916Z</time></trkpt><trkpt lat="40.7940825" lon="17.1212518"><ele>406.0</ele><time>2026-04-07T05:56:11.903Z</time></trkpt><trkpt lat="40.7941278" lon="17.1213162"><ele>406.0</ele><time>2026-04-07T05:56:17.894Z</time></trkpt><trkpt lat="40.7941507" lon="17.1213983"><ele>406.0</ele><time>2026-04-07T05:56:24.906Z</time></trkpt><trkpt lat="40.7942035" lon="17.1214572"><ele>406.0</ele><time>2026-04-07T05:56:30.903Z</time></trkpt><trkpt lat="40.7942453" lon="17.12152"><ele>406.0</ele><time>2026-04-07T05:56:36.907Z</time></trkpt><trkpt lat="40.7942973" lon="17.1215724"><ele>406.57142857142856</ele><time>2026-04-07T05:56:43.905Z</time></trkpt><trkpt lat="40.7943626" lon="17.1215686"><ele>407.1428571428571</ele><time>2026-04-07T05:56:48.909Z</time></trkpt><trkpt lat="40.7944291" lon="17.1215411"><ele>407.7142857142857</ele><time>2026-04-07T05:56:53.905Z</time></trkpt><trkpt lat="40.7944986" lon="17.1215147"><ele>408.2857142857143</ele><time>2026-04-07T05:56:59.902Z</time></trkpt><trkpt lat="40.7944869" lon="17.1216067"><ele>408.85714285714283</ele><time>2026-04-07T05:57:11.898Z</time></trkpt><trkpt lat="40.7944238" lon="17.121631"><ele>409.42857142857144</ele><time>2026-04-07T05:57:14.917Z</time></trkpt><trkpt lat="40.7943955" lon="17.121707"><ele>410.0</ele><time>2026-04-07T05:57:17.905Z</time></trkpt><trkpt lat="40.7944424" lon="17.1218176"><ele>410.99999999999994</ele><time>2026-04-07T05:57:19.907Z</time></trkpt><trkpt lat="40.7944733" lon="17.1219007"><ele>412.0</ele><time>2026-04-07T05:57:21.901Z</time></trkpt><trkpt lat="40.7945217" lon="17.1220117"><ele>413.0</ele><time>2026-04-07T05:57:24.906Z</time></trkpt><trkpt lat="40.7945694" lon="17.1221167"><ele>414.0</ele><time>2026-04-07T05:57:27.902Z</time></trkpt><trkpt lat="40.794612" lon="17.1221816"><ele>414.99999999999994</ele><time>2026-04-07T05:57:29.893Z</time></trkpt><trkpt lat="40.7946635" lon="17.1222615"><ele>416.0</ele><time>2026-04-07T05:57:32.905Z</time></trkpt><trkpt lat="40.7947426" lon="17.1222572"><ele>415.99999999999994</ele><time>2026-04-07T05:57:35.906Z</time></trkpt><trkpt lat="40.7948286" lon="17.1222258"><ele>416.0</ele><time>2026-04-07T05:57:38.894Z</time></trkpt><trkpt lat="40.7948907" lon="17.1221765"><ele>416.0</ele><time>2026-04-07T05:57:41.9Z</time></trkpt><trkpt lat="40.7949452" lon="17.1220928"><ele>416.0</ele><time>2026-04-07T05:57:45.895Z</time></trkpt><trkpt lat="40.7950096" lon="17.122122"><ele>415.99999999999994</ele><time>2026-04-07T05:57:48.899Z</time></trkpt><trkpt lat="40.7950688" lon="17.1221997"><ele>416.0</ele><time>2026-04-07T05:57:51.897Z</time></trkpt><trkpt lat="40.7951154" lon="17.1222614"><ele>416.49999999999994</ele><time>2026-04-07T05:57:53.898Z</time></trkpt><trkpt lat="40.7951746" lon="17.1223346"><ele>417.0</ele><time>2026-04-07T05:57:56.894Z</time></trkpt><trkpt lat="40.7952165" lon="17.1224117"><ele>417.5</ele><time>2026-04-07T05:57:59.914Z</time></trkpt><trkpt lat="40.7952518" lon="17.1225075"><ele>418.0</ele><time>2026-04-07T05:58:02.905Z</time></trkpt><trkpt lat="40.795308" lon="17.1226039"><ele>418.49999999999994</ele><time>2026-04-07T05:58:05.899Z</time></trkpt><trkpt lat="40.7953644" lon="17.1226851"><ele>419.0</ele><time>2026-04-07T05:58:08.898Z</time></trkpt><trkpt lat="40.7954246" lon="17.1227852"><ele>419.57142857142856</ele><time>2026-04-07T05:58:11.893Z</time></trkpt><trkpt lat="40.7954655" lon="17.1228548"><ele>420.1428571428571</ele><time>2026-04-07T05:58:14.897Z</time></trkpt><trkpt lat="40.7955468" lon="17.1228963"><ele>420.71428571428567</ele><time>2026-04-07T05:58:18.897Z</time></trkpt><trkpt lat="40.7956144" lon="17.1228665"><ele>421.2857142857143</ele><time>2026-04-07T05:58:20.899Z</time></trkpt><trkpt lat="40.7956804" lon="17.1228069"><ele>421.8571428571429</ele><time>2026-04-07T05:58:22.897Z</time></trkpt><trkpt lat="40.7957307" lon="17.1227484"><ele>422.4285714285714</ele><time>2026-04-07T05:58:24.906Z</time></trkpt><trkpt lat="40.7957768" lon="17.1226904"><ele>423.0</ele><time>2026-04-07T05:58:26.933Z</time></trkpt><trkpt lat="40.795836" lon="17.1226458"><ele>423.0</ele><time>2026-04-07T05:58:28.901Z</time></trkpt><trkpt lat="40.795901" lon="17.1225762"><ele>423.0</ele><time>2026-04-07T05:58:30.892Z</time></trkpt><trkpt lat="40.7959808" lon="17.1225246"><ele>423.0</ele><time>2026-04-07T05:58:32.896Z</time></trkpt><trkpt lat="40.796059" lon="17.1224755"><ele>423.0</ele><time>2026-04-07T05:58:34.916Z</time></trkpt><trkpt lat="40.7960967" lon="17.122404"><ele>423.0</ele><time>2026-04-07T05:58:36.897Z</time></trkpt><trkpt lat="40.7961568" lon="17.1223127"><ele>423.0</ele><time>2026-04-07T05:58:39.896Z</time></trkpt><trkpt lat="40.7961794" lon="17.1222042"><ele>422.1666666666667</ele><time>2026-04-07T05:58:41.915Z</time></trkpt><trkpt lat="40.7962099" lon="17.1220936"><ele>421.33333333333337</ele><time>2026-04-07T05:58:44.904Z</time></trkpt><trkpt lat="40.7962648" lon="17.1220434"><ele>420.5</ele><time>2026-04-07T05:58:46.911Z</time></trkpt><trkpt lat="40.796343" lon="17.1220403"><ele>419.6666666666667</ele><time>2026-04-07T05:58:48.896Z</time></trkpt><trkpt lat="40.7964209" lon="17.1220228"><ele>418.83333333333337</ele><time>2026-04-07T05:58:50.922Z</time></trkpt><trkpt lat="40.796492" lon="17.1219708"><ele>418.0</ele><time>2026-04-07T05:58:52.899Z</time></trkpt><trkpt lat="40.7965729" lon="17.1219148"><ele>418.00000000000006</ele><time>2026-04-07T05:58:54.912Z</time></trkpt><trkpt lat="40.7966548" lon="17.1218816"><ele>418.0</ele><time>2026-04-07T05:58:56.897Z</time></trkpt><trkpt lat="40.7967176" lon="17.1218482"><ele>418.0</ele><time>2026-04-07T05:58:58.905Z</time></trkpt><trkpt lat="40.7967994" lon="17.1217922"><ele>418.0</ele><time>2026-04-07T05:59:01.891Z</time></trkpt><trkpt lat="40.7968558" lon="17.1217241"><ele>418.00000000000006</ele><time>2026-04-07T05:59:03.9Z</time></trkpt><trkpt lat="40.796913" lon="17.1216399"><ele>418.0</ele><time>2026-04-07T05:59:05.895Z</time></trkpt><trkpt lat="40.7969536" lon="17.1215523"><ele>417.85714285714283</ele><time>2026-04-07T05:59:07.901Z</time></trkpt><trkpt lat="40.7969929" lon="17.1214833"><ele>417.71428571428567</ele><time>2026-04-07T05:59:09.903Z</time></trkpt><trkpt lat="40.7970457" lon="17.1214212"><ele>417.57142857142856</ele><time>2026-04-07T05:59:11.909Z</time></trkpt><trkpt lat="40.7970914" lon="17.1213537"><ele>417.42857142857144</ele><time>2026-04-07T05:59:13.904Z</time></trkpt><trkpt lat="40.7971347" lon="17.1212878"><ele>417.2857142857143</ele><time>2026-04-07T05:59:15.904Z</time></trkpt><trkpt lat="40.7971794" lon="17.1211946"><ele>417.14285714285717</ele><time>2026-04-07T05:59:18.906Z</time></trkpt><trkpt lat="40.7972329" lon="17.1211028"><ele>417.0</ele><time>2026-04-07T05:59:21.895Z</time></trkpt><trkpt lat="40.7972897" lon="17.1210222"><ele>417.0</ele><time>2026-04-07T05:59:24.916Z</time></trkpt><trkpt lat="40.7973157" lon="17.1209382"><ele>417.0</ele><time>2026-04-07T05:59:27.891Z</time></trkpt><trkpt lat="40.7973539" lon="17.1208711"><ele>417.0</ele><time>2026-04-07T05:59:30.889Z</time></trkpt><trkpt lat="40.7973972" lon="17.1208091"><ele>417.0</ele><time>2026-04-07T05:59:33.878Z</time></trkpt><trkpt lat="40.7974442" lon="17.1207308"><ele>417.0</ele><time>2026-04-07T05:59:36.915Z</time></trkpt><trkpt lat="40.7974918" lon="17.1206758"><ele>417.0</ele><time>2026-04-07T05:59:40.897Z</time></trkpt><trkpt lat="40.7975632" lon="17.1206575"><ele>417.0</ele><time>2026-04-07T05:59:43.906Z</time></trkpt><trkpt lat="40.7964873" lon="17.1229825"><ele>417.3333333333333</ele><time>2026-04-07T06:06:56.885Z</time></trkpt><trkpt lat="40.7964405" lon="17.1230802"><ele>417.66666666666663</ele><time>2026-04-07T06:06:59.881Z</time></trkpt><trkpt lat="40.7964128" lon="17.1231562"><ele>418.0</ele><time>2026-04-07T06:07:01.888Z</time></trkpt><trkpt lat="40.7963646" lon="17.1232572"><ele>418.3333333333333</ele><time>2026-04-07T06:07:04.884Z</time></trkpt><trkpt lat="40.7963282" lon="17.1233357"><ele>418.66666666666663</ele><time>2026-04-07T06:07:11.88Z</time></trkpt><trkpt lat="40.7962875" lon="17.1234229"><ele>419.0</ele><time>2026-04-07T06:07:17.891Z</time></trkpt><trkpt lat="40.7962512" lon="17.1234994"><ele>418.99999999999994</ele><time>2026-04-07T06:07:20.884Z</time></trkpt><trkpt lat="40.7962338" lon="17.1235903"><ele>419.0</ele><time>2026-04-07T06:07:23.878Z</time></trkpt><trkpt lat="40.7961914" lon="17.1236816"><ele>419.0</ele><time>2026-04-07T06:07:26.881Z</time></trkpt><trkpt lat="40.7961537" lon="17.1237833"><ele>419.0</ele><time>2026-04-07T06:07:29.875Z</time></trkpt><trkpt lat="40.7961281" lon="17.1238643"><ele>419.0</ele><time>2026-04-07T06:07:32.88Z</time></trkpt><trkpt lat="40.796086" lon="17.1239308"><ele>418.99999999999994</ele><time>2026-04-07T06:07:35.885Z</time></trkpt><trkpt lat="40.7960412" lon="17.1239918"><ele>419.0</ele><time>2026-04-07T06:07:38.887Z</time></trkpt><trkpt lat="40.7961078" lon="17.123987"><ele>418.99999999999994</ele><time>2026-04-07T06:07:45.87Z</time></trkpt><trkpt lat="40.7960741" lon="17.1239679"><ele>419.0</ele><time>2026-04-07T06:20:06.846Z</time></trkpt><trkpt lat="40.7961337" lon="17.1238816"><ele>419.0</ele><time>2026-04-07T06:20:12.834Z</time></trkpt><trkpt lat="40.7961767" lon="17.1238025"><ele>419.0</ele><time>2026-04-07T06:20:16.84Z</time></trkpt><trkpt lat="40.7961242" lon="17.1238535"><ele>419.0</ele><time>2026-04-07T06:20:25.832Z</time></trkpt><trkpt lat="40.7960821" lon="17.1239289"><ele>418.99999999999994</ele><time>2026-04-07T06:20:28.826Z</time></trkpt><trkpt lat="40.7960149" lon="17.1239823"><ele>419.0</ele><time>2026-04-07T06:20:32.844Z</time></trkpt><trkpt lat="40.795963" lon="17.1239144"><ele>419.3333333333333</ele><time>2026-04-07T06:20:49.835Z</time></trkpt><trkpt lat="40.7958837" lon="17.1238818"><ele>419.66666666666663</ele><time>2026-04-07T06:20:53.84Z</time></trkpt><trkpt lat="40.7958303" lon="17.123959"><ele>420.0</ele><time>2026-04-07T06:20:57.823Z</time></trkpt><trkpt lat="40.7957867" lon="17.1240567"><ele>420.33333333333337</ele><time>2026-04-07T06:21:00.839Z</time></trkpt><trkpt lat="40.7957368" lon="17.1241152"><ele>420.6666666666667</ele><time>2026-04-07T06:21:02.823Z</time></trkpt><trkpt lat="40.7956978" lon="17.1241993"><ele>421.0</ele><time>2026-04-07T06:21:04.84Z</time></trkpt><trkpt lat="40.7956669" lon="17.1242851"><ele>421.00000000000006</ele><time>2026-04-07T06:21:06.836Z</time></trkpt><trkpt lat="40.7956376" lon="17.1243714"><ele>421.0</ele><time>2026-04-07T06:21:08.828Z</time></trkpt><trkpt lat="40.7956044" lon="17.1244739"><ele>421.0</ele><time>2026-04-07T06:21:10.828Z</time></trkpt><trkpt lat="40.7955592" lon="17.1245403"><ele>421.0</ele><time>2026-04-07T06:21:12.83Z</time></trkpt><trkpt lat="40.7954977" lon="17.1245961"><ele>421.00000000000006</ele><time>2026-04-07T06:21:15.83Z</time></trkpt><trkpt lat="40.7954594" lon="17.1246976"><ele>421.0</ele><time>2026-04-07T06:21:19.82Z</time></trkpt><trkpt lat="40.7954034" lon="17.1247681"><ele>421.00000000000006</ele><time>2026-04-07T06:21:21.831Z</time></trkpt><trkpt lat="40.7953685" lon="17.1248492"><ele>421.0</ele><time>2026-04-07T06:21:24.863Z</time></trkpt><trkpt lat="40.795391" lon="17.1249288"><ele>421.0</ele><time>2026-04-07T06:21:27.825Z</time></trkpt><trkpt lat="40.7953591" lon="17.1250229"><ele>421.0</ele><time>2026-04-07T06:21:31.837Z</time></trkpt><trkpt lat="40.7952839" lon="17.1250636"><ele>421.00000000000006</ele><time>2026-04-07T06:21:34.837Z</time></trkpt><trkpt lat="40.7951951" lon="17.1251044"><ele>421.0</ele><time>2026-04-07T06:21:37.838Z</time></trkpt><trkpt lat="40.7951316" lon="17.1251453"><ele>421.14285714285717</ele><time>2026-04-07T06:21:39.837Z</time></trkpt><trkpt lat="40.7950655" lon="17.1251644"><ele>421.2857142857143</ele><time>2026-04-07T06:21:41.828Z</time></trkpt><trkpt lat="40.7949924" lon="17.1252063"><ele>421.42857142857144</ele><time>2026-04-07T06:21:43.826Z</time></trkpt><trkpt lat="40.7949301" lon="17.1252348"><ele>421.57142857142856</ele><time>2026-04-07T06:21:45.846Z</time></trkpt><trkpt lat="40.7948631" lon="17.1252633"><ele>421.7142857142857</ele><time>2026-04-07T06:21:47.832Z</time></trkpt><trkpt lat="40.7947996" lon="17.1252263"><ele>421.8571428571429</ele><time>2026-04-07T06:21:49.837Z</time></trkpt><trkpt lat="40.7947576" lon="17.1251551"><ele>422.0</ele><time>2026-04-07T06:21:51.828Z</time></trkpt><trkpt lat="40.7946742" lon="17.1251168"><ele>421.99999999999994</ele><time>2026-04-07T06:21:54.839Z</time></trkpt><trkpt lat="40.7945737" lon="17.1251193"><ele>422.0</ele><time>2026-04-07T06:21:56.836Z</time></trkpt><trkpt lat="40.7945114" lon="17.125149"><ele>422.0</ele><time>2026-04-07T06:21:58.842Z</time></trkpt><trkpt lat="40.7944472" lon="17.1252079"><ele>422.0</ele><time>2026-04-07T06:22:00.834Z</time></trkpt><trkpt lat="40.7943794" lon="17.125258"><ele>421.99999999999994</ele><time>2026-04-07T06:22:02.837Z</time></trkpt><trkpt lat="40.79432" lon="17.1253033"><ele>422.0</ele><time>2026-04-07T06:22:04.855Z</time></trkpt><trkpt lat="40.7942588" lon="17.1253385"><ele>422.16666666666663</ele><time>2026-04-07T06:22:06.835Z</time></trkpt><trkpt lat="40.7941979" lon="17.1253811"><ele>422.3333333333333</ele><time>2026-04-07T06:22:08.839Z</time></trkpt><trkpt lat="40.7941185" lon="17.1254449"><ele>422.5</ele><time>2026-04-07T06:22:11.839Z</time></trkpt><trkpt lat="40.7940427" lon="17.125512"><ele>422.66666666666663</ele><time>2026-04-07T06:22:14.83Z</time></trkpt><trkpt lat="40.7939618" lon="17.1255728"><ele>422.8333333333333</ele><time>2026-04-07T06:22:17.83Z</time></trkpt><trkpt lat="40.7939159" lon="17.1256338"><ele>423.0</ele><time>2026-04-07T06:22:19.835Z</time></trkpt><trkpt lat="40.7939195" lon="17.1257363"><ele>423.0</ele><time>2026-04-07T06:22:22.834Z</time></trkpt><trkpt lat="40.7938755" lon="17.1258247"><ele>423.0</ele><time>2026-04-07T06:22:26.84Z</time></trkpt><trkpt lat="40.7938703" lon="17.1259212"><ele>423.0</ele><time>2026-04-07T06:22:29.837Z</time></trkpt><trkpt lat="40.7938318" lon="17.1259932"><ele>423.0</ele><time>2026-04-07T06:22:31.837Z</time></trkpt><trkpt lat="40.7937531" lon="17.1260371"><ele>423.0</ele><time>2026-04-07T06:22:34.831Z</time></trkpt><trkpt lat="40.7936678" lon="17.126095"><ele>423.0</ele><time>2026-04-07T06:22:36.836Z</time></trkpt><trkpt lat="40.7935814" lon="17.1261567"><ele>423.0</ele><time>2026-04-07T06:22:38.834Z</time></trkpt><trkpt lat="40.7935244" lon="17.1262053"><ele>423.0</ele><time>2026-04-07T06:22:41.83Z</time></trkpt><trkpt lat="40.7935617" lon="17.1262859"><ele>423.0</ele><time>2026-04-07T06:22:44.826Z</time></trkpt><trkpt lat="40.7936131" lon="17.1263646"><ele>423.0</ele><time>2026-04-07T06:22:46.841Z</time></trkpt><trkpt lat="40.793614" lon="17.1264682"><ele>423.0</ele><time>2026-04-07T06:22:49.837Z</time></trkpt><trkpt lat="40.7935466" lon="17.1265583"><ele>423.0</ele><time>2026-04-07T06:22:52.834Z</time></trkpt><trkpt lat="40.7935096" lon="17.1266323"><ele>422.79999999999995</ele><time>2026-04-07T06:22:54.825Z</time></trkpt><trkpt lat="40.7935189" lon="17.1267345"><ele>422.6</ele><time>2026-04-07T06:22:56.843Z</time></trkpt><trkpt lat="40.7935187" lon="17.126854"><ele>422.4</ele><time>2026-04-07T06:22:58.827Z</time></trkpt><trkpt lat="40.7935191" lon="17.1269948"><ele>422.20000000000005</ele><time>2026-04-07T06:23:00.836Z</time></trkpt><trkpt lat="40.7934964" lon="17.1271444"><ele>422.0</ele><time>2026-04-07T06:23:02.819Z</time></trkpt><trkpt lat="40.7934929" lon="17.1272822"><ele>421.49999999999994</ele><time>2026-04-07T06:23:04.841Z</time></trkpt><trkpt lat="40.793493" lon="17.1274203"><ele>421.0</ele><time>2026-04-07T06:23:06.844Z</time></trkpt><trkpt lat="40.7934921" lon="17.1275077"><ele>420.5</ele><time>2026-04-07T06:23:08.819Z</time></trkpt><trkpt lat="40.7934906" lon="17.1276141"><ele>420.0</ele><time>2026-04-07T06:23:13.835Z</time></trkpt><trkpt lat="40.7934722" lon="17.1277104"><ele>419.49999999999994</ele><time>2026-04-07T06:23:15.831Z</time></trkpt><trkpt lat="40.7934686" lon="17.1278343"><ele>419.0</ele><time>2026-04-07T06:23:17.834Z</time></trkpt><trkpt lat="40.7934926" lon="17.1279782"><ele>418.99999999999994</ele><time>2026-04-07T06:23:19.831Z</time></trkpt><trkpt lat="40.7934949" lon="17.1280614"><ele>419.0</ele><time>2026-04-07T06:23:20.846Z</time></trkpt><trkpt lat="40.7934911" lon="17.1281454"><ele>419.0</ele><time>2026-04-07T06:23:21.82Z</time></trkpt><trkpt lat="40.7934689" lon="17.1283174"><ele>419.0</ele><time>2026-04-07T06:23:23.833Z</time></trkpt><trkpt lat="40.7934436" lon="17.1284058"><ele>418.99999999999994</ele><time>2026-04-07T06:23:24.828Z</time></trkpt><trkpt lat="40.793415" lon="17.1284847"><ele>419.0</ele><time>2026-04-07T06:23:25.84Z</time></trkpt><trkpt lat="40.7933821" lon="17.1285593"><ele>418.4285714285714</ele><time>2026-04-07T06:23:26.819Z</time></trkpt><trkpt lat="40.7933544" lon="17.1286407"><ele>417.85714285714283</ele><time>2026-04-07T06:23:27.829Z</time></trkpt><trkpt lat="40.7933262" lon="17.1287187"><ele>417.2857142857143</ele><time>2026-04-07T06:23:28.839Z</time></trkpt><trkpt lat="40.7932925" lon="17.1287948"><ele>416.71428571428567</ele><time>2026-04-07T06:23:29.834Z</time></trkpt><trkpt lat="40.7932571" lon="17.1288707"><ele>416.14285714285717</ele><time>2026-04-07T06:23:30.826Z</time></trkpt><trkpt lat="40.7932258" lon="17.1289522"><ele>415.57142857142856</ele><time>2026-04-07T06:23:31.832Z</time></trkpt><trkpt lat="40.793196" lon="17.1290313"><ele>415.0</ele><time>2026-04-07T06:23:32.839Z</time></trkpt><trkpt lat="40.7931398" lon="17.129191"><ele>414.33333333333337</ele><time>2026-04-07T06:23:34.844Z</time></trkpt><trkpt lat="40.7931083" lon="17.1292799"><ele>413.6666666666667</ele><time>2026-04-07T06:23:35.827Z</time></trkpt><trkpt lat="40.7930797" lon="17.1293785"><ele>413.0</ele><time>2026-04-07T06:23:36.834Z</time></trkpt><trkpt lat="40.7930594" lon="17.1294785"><ele>412.33333333333337</ele><time>2026-04-07T06:23:37.826Z</time></trkpt><trkpt lat="40.7930373" lon="17.129586"><ele>411.6666666666667</ele><time>2026-04-07T06:23:38.833Z</time></trkpt><trkpt lat="40.7930187" lon="17.1296908"><ele>411.0</ele><time>2026-04-07T06:23:39.846Z</time></trkpt><trkpt lat="40.7930057" lon="17.1297965"><ele>410.6666666666667</ele><time>2026-04-07T06:23:40.833Z</time></trkpt><trkpt lat="40.7929938" lon="17.1299063"><ele>410.33333333333337</ele><time>2026-04-07T06:23:41.835Z</time></trkpt><trkpt lat="40.7929755" lon="17.1300126"><ele>410.0</ele><time>2026-04-07T06:23:42.839Z</time></trkpt><trkpt lat="40.7929535" lon="17.130114"><ele>409.6666666666667</ele><time>2026-04-07T06:23:43.83Z</time></trkpt><trkpt lat="40.7929267" lon="17.130214"><ele>409.33333333333337</ele><time>2026-04-07T06:23:44.844Z</time></trkpt><trkpt lat="40.7928923" lon="17.1303097"><ele>409.0</ele><time>2026-04-07T06:23:45.828Z</time></trkpt><trkpt lat="40.7928621" lon="17.1304017"><ele>409.0</ele><time>2026-04-07T06:23:46.834Z</time></trkpt><trkpt lat="40.7928295" lon="17.1304919"><ele>409.0</ele><time>2026-04-07T06:23:47.841Z</time></trkpt><trkpt lat="40.7927971" lon="17.1305793"><ele>409.0</ele><time>2026-04-07T06:23:48.847Z</time></trkpt><trkpt lat="40.7927592" lon="17.1306636"><ele>409.0</ele><time>2026-04-07T06:23:49.829Z</time></trkpt><trkpt lat="40.7927194" lon="17.1307418"><ele>409.0</ele><time>2026-04-07T06:23:50.845Z</time></trkpt><trkpt lat="40.7926768" lon="17.1308123"><ele>409.0</ele><time>2026-04-07T06:23:51.842Z</time></trkpt><trkpt lat="40.7926342" lon="17.130876"><ele>409.0</ele><time>2026-04-07T06:23:52.843Z</time></trkpt><trkpt lat="40.792586" lon="17.1309317"><ele>408.79999999999995</ele><time>2026-04-07T06:23:53.837Z</time></trkpt><trkpt lat="40.7924946" lon="17.131028"><ele>408.59999999999997</ele><time>2026-04-07T06:23:55.839Z</time></trkpt><trkpt lat="40.7924053" lon="17.1311022"><ele>408.4</ele><time>2026-04-07T06:23:57.842Z</time></trkpt><trkpt lat="40.7923151" lon="17.1311763"><ele>408.2</ele><time>2026-04-07T06:23:59.835Z</time></trkpt><trkpt lat="40.7922266" lon="17.1312705"><ele>408.0</ele><time>2026-04-07T06:24:01.838Z</time></trkpt><trkpt lat="40.7921363" lon="17.1313836"><ele>408.0</ele><time>2026-04-07T06:24:03.824Z</time></trkpt><trkpt lat="40.7920895" lon="17.1314421"><ele>408.0</ele><time>2026-04-07T06:24:04.836Z</time></trkpt><trkpt lat="40.7920443" lon="17.1315022"><ele>408.0</ele><time>2026-04-07T06:24:05.833Z</time></trkpt><trkpt lat="40.7919975" lon="17.1315651"><ele>408.0</ele><time>2026-04-07T06:24:06.849Z</time></trkpt><trkpt lat="40.7919483" lon="17.1316305"><ele>408.0</ele><time>2026-04-07T06:24:07.829Z</time></trkpt><trkpt lat="40.7918923" lon="17.131692"><ele>408.0</ele><time>2026-04-07T06:24:08.84Z</time></trkpt><trkpt lat="40.7918389" lon="17.1317583"><ele>408.0</ele><time>2026-04-07T06:24:09.841Z</time></trkpt><trkpt lat="40.7917824" lon="17.1318294"><ele>408.0</ele><time>2026-04-07T06:24:10.848Z</time></trkpt><trkpt lat="40.7917291" lon="17.1318975"><ele>408.0</ele><time>2026-04-07T06:24:11.835Z</time></trkpt><trkpt lat="40.7916739" lon="17.1319675"><ele>408.0</ele><time>2026-04-07T06:24:12.838Z</time></trkpt><trkpt lat="40.7916213" lon="17.1320346"><ele>408.0</ele><time>2026-04-07T06:24:13.834Z</time></trkpt><trkpt lat="40.7915686" lon="17.1321012"><ele>408.0</ele><time>2026-04-07T06:24:14.828Z</time></trkpt><trkpt lat="40.7915155" lon="17.1321694"><ele>408.0</ele><time>2026-04-07T06:24:15.826Z</time></trkpt><trkpt lat="40.7914635" lon="17.1322375"><ele>408.0</ele><time>2026-04-07T06:24:16.832Z</time></trkpt><trkpt lat="40.791416" lon="17.1323047"><ele>408.0</ele><time>2026-04-07T06:24:17.827Z</time></trkpt><trkpt lat="40.7913681" lon="17.1323675"><ele>408.0</ele><time>2026-04-07T06:24:18.836Z</time></trkpt><trkpt lat="40.7913204" lon="17.1324331"><ele>408.0</ele><time>2026-04-07T06:24:19.836Z</time></trkpt><trkpt lat="40.7912713" lon="17.1324894"><ele>408.0</ele><time>2026-04-07T06:24:20.844Z</time></trkpt><trkpt lat="40.7912267" lon="17.1325495"><ele>408.0</ele><time>2026-04-07T06:24:21.83Z</time></trkpt><trkpt lat="40.7911454" lon="17.1326566"><ele>408.0</ele><time>2026-04-07T06:24:23.829Z</time></trkpt><trkpt lat="40.7910751" lon="17.1327498"><ele>408.0</ele><time>2026-04-07T06:24:25.836Z</time></trkpt><trkpt lat="40.7910148" lon="17.1328334"><ele>408.0</ele><time>2026-04-07T06:24:27.838Z</time></trkpt><trkpt lat="40.7909512" lon="17.132916"><ele>408.0</ele><time>2026-04-07T06:24:29.842Z</time></trkpt><trkpt lat="40.790894" lon="17.132992"><ele>408.0</ele><time>2026-04-07T06:24:31.832Z</time></trkpt><trkpt lat="40.7908394" lon="17.133067"><ele>408.0</ele><time>2026-04-07T06:24:33.843Z</time></trkpt><trkpt lat="40.7907854" lon="17.1331451"><ele>408.0</ele><time>2026-04-07T06:24:35.83Z</time></trkpt><trkpt lat="40.7907304" lon="17.1332326"><ele>408.0</ele><time>2026-04-07T06:24:37.842Z</time></trkpt><trkpt lat="40.7906726" lon="17.1333179"><ele>408.0</ele><time>2026-04-07T06:24:39.833Z</time></trkpt><trkpt lat="40.7906092" lon="17.1334033"><ele>408.0</ele><time>2026-04-07T06:24:41.835Z</time></trkpt><trkpt lat="40.7905355" lon="17.1334882"><ele>408.0</ele><time>2026-04-07T06:24:43.841Z</time></trkpt><trkpt lat="40.7904639" lon="17.1335707"><ele>408.0</ele><time>2026-04-07T06:24:45.835Z</time></trkpt><trkpt lat="40.7903921" lon="17.133654"><ele>408.0</ele><time>2026-04-07T06:24:47.842Z</time></trkpt><trkpt lat="40.7903263" lon="17.133735"><ele>408.0</ele><time>2026-04-07T06:24:49.851Z</time></trkpt><trkpt lat="40.7902642" lon="17.133824"><ele>408.0</ele><time>2026-04-07T06:24:51.833Z</time></trkpt><trkpt lat="40.7902008" lon="17.1338997"><ele>408.0</ele><time>2026-04-07T06:24:53.836Z</time></trkpt><trkpt lat="40.7901507" lon="17.1339866"><ele>408.0</ele><time>2026-04-07T06:24:55.855Z</time></trkpt><trkpt lat="40.7900913" lon="17.1340664"><ele>408.0</ele><time>2026-04-07T06:24:57.844Z</time></trkpt><trkpt lat="40.7900299" lon="17.1341464"><ele>408.2</ele><time>2026-04-07T06:24:59.836Z</time></trkpt><trkpt lat="40.7899772" lon="17.1341922"><ele>408.4</ele><time>2026-04-07T06:25:11.829Z</time></trkpt><trkpt lat="40.7899559" lon="17.1343166"><ele>408.59999999999997</ele><time>2026-04-07T06:25:15.834Z</time></trkpt><trkpt lat="40.7899929" lon="17.1344397"><ele>408.79999999999995</ele><time>2026-04-07T06:25:17.834Z</time></trkpt><trkpt lat="40.7900461" lon="17.1345532"><ele>409.0</ele><time>2026-04-07T06:25:19.838Z</time></trkpt><trkpt lat="40.7900991" lon="17.1346564"><ele>409.0</ele><time>2026-04-07T06:25:21.826Z</time></trkpt><trkpt lat="40.7901511" lon="17.1347484"><ele>409.0</ele><time>2026-04-07T06:25:23.836Z</time></trkpt><trkpt lat="40.7902117" lon="17.1348403"><ele>409.0</ele><time>2026-04-07T06:25:25.832Z</time></trkpt><trkpt lat="40.7902876" lon="17.1349609"><ele>409.0</ele><time>2026-04-07T06:25:27.834Z</time></trkpt><trkpt lat="40.7903257" lon="17.1350294"><ele>409.0</ele><time>2026-04-07T06:25:28.83Z</time></trkpt><trkpt lat="40.7903928" lon="17.1351604"><ele>408.75</ele><time>2026-04-07T06:25:30.835Z</time></trkpt><trkpt lat="40.7904513" lon="17.1352995"><ele>408.5</ele><time>2026-04-07T06:25:32.864Z</time></trkpt><trkpt lat="40.7904949" lon="17.1354492"><ele>408.25</ele><time>2026-04-07T06:25:34.84Z</time></trkpt><trkpt lat="40.7905274" lon="17.1356022"><ele>408.0</ele><time>2026-04-07T06:25:36.838Z</time></trkpt><trkpt lat="40.7905553" lon="17.1357499"><ele>408.0</ele><time>2026-04-07T06:25:38.836Z</time></trkpt><trkpt lat="40.7905854" lon="17.1358969"><ele>408.0</ele><time>2026-04-07T06:25:40.833Z</time></trkpt><trkpt lat="40.7906117" lon="17.1360468"><ele>408.0</ele><time>2026-04-07T06:25:42.845Z</time></trkpt><trkpt lat="40.7906451" lon="17.1361928"><ele>408.0</ele><time>2026-04-07T06:25:44.854Z</time></trkpt><trkpt lat="40.790682" lon="17.1363412"><ele>408.0</ele><time>2026-04-07T06:25:46.834Z</time></trkpt><trkpt lat="40.7907052" lon="17.1364953"><ele>408.0</ele><time>2026-04-07T06:25:48.839Z</time></trkpt><trkpt lat="40.7907382" lon="17.1366472"><ele>408.0</ele><time>2026-04-07T06:25:50.85Z</time></trkpt><trkpt lat="40.7907729" lon="17.1367965"><ele>408.0</ele><time>2026-04-07T06:25:52.834Z</time></trkpt><trkpt lat="40.7907975" lon="17.1369407"><ele>407.75</ele><time>2026-04-07T06:25:54.824Z</time></trkpt><trkpt lat="40.7908241" lon="17.1370891"><ele>407.5</ele><time>2026-04-07T06:25:56.832Z</time></trkpt><trkpt lat="40.7908541" lon="17.1372342"><ele>407.25</ele><time>2026-04-07T06:25:58.832Z</time></trkpt><trkpt lat="40.790888" lon="17.1373764"><ele>407.0</ele><time>2026-04-07T06:26:00.832Z</time></trkpt><trkpt lat="40.7909143" lon="17.1375174"><ele>407.0</ele><time>2026-04-07T06:26:02.834Z</time></trkpt><trkpt lat="40.7909396" lon="17.1376597"><ele>407.0</ele><time>2026-04-07T06:26:04.836Z</time></trkpt><trkpt lat="40.7909702" lon="17.1377889"><ele>407.0</ele><time>2026-04-07T06:26:06.834Z</time></trkpt><trkpt lat="40.790995" lon="17.1379292"><ele>407.0</ele><time>2026-04-07T06:26:08.833Z</time></trkpt><trkpt lat="40.7910167" lon="17.1380579"><ele>407.0</ele><time>2026-04-07T06:26:10.834Z</time></trkpt><trkpt lat="40.7910435" lon="17.1381856"><ele>406.8</ele><time>2026-04-07T06:26:12.846Z</time></trkpt><trkpt lat="40.7910735" lon="17.1383176"><ele>406.6</ele><time>2026-04-07T06:26:14.831Z</time></trkpt><trkpt lat="40.7910966" lon="17.1384526"><ele>406.40000000000003</ele><time>2026-04-07T06:26:16.833Z</time></trkpt><trkpt lat="40.7911236" lon="17.1385846"><ele>406.20000000000005</ele><time>2026-04-07T06:26:18.835Z</time></trkpt><trkpt lat="40.7911452" lon="17.1387079"><ele>406.0</ele><time>2026-04-07T06:26:20.834Z</time></trkpt><trkpt lat="40.7911468" lon="17.1388341"><ele>406.0</ele><time>2026-04-07T06:26:22.836Z</time></trkpt><trkpt lat="40.7911196" lon="17.1389594"><ele>406.0</ele><time>2026-04-07T06:26:24.831Z</time></trkpt><trkpt lat="40.7911495" lon="17.1390928"><ele>406.0</ele><time>2026-04-07T06:26:26.84Z</time></trkpt><trkpt lat="40.7912024" lon="17.1392289"><ele>406.0</ele><time>2026-04-07T06:26:28.825Z</time></trkpt><trkpt lat="40.7912357" lon="17.1393581"><ele>406.0</ele><time>2026-04-07T06:26:30.837Z</time></trkpt><trkpt lat="40.7912232" lon="17.1394751"><ele>406.50000000000006</ele><time>2026-04-07T06:26:32.828Z</time></trkpt><trkpt lat="40.7912017" lon="17.139563"><ele>407.0</ele><time>2026-04-07T06:26:34.841Z</time></trkpt><trkpt lat="40.7911953" lon="17.1396542"><ele>407.5</ele><time>2026-04-07T06:26:36.845Z</time></trkpt><trkpt lat="40.7911834" lon="17.1397429"><ele>408.0</ele><time>2026-04-07T06:26:38.837Z</time></trkpt><trkpt lat="40.7911716" lon="17.139834"><ele>408.50000000000006</ele><time>2026-04-07T06:26:40.835Z</time></trkpt><trkpt lat="40.7911609" lon="17.1399538"><ele>409.0</ele><time>2026-04-07T06:26:43.825Z</time></trkpt><trkpt lat="40.7911444" lon="17.1400764"><ele>409.0</ele><time>2026-04-07T06:26:46.835Z</time></trkpt><trkpt lat="40.7911276" lon="17.1401601"><ele>409.0</ele><time>2026-04-07T06:26:48.835Z</time></trkpt><trkpt lat="40.7911116" lon="17.1402504"><ele>409.0</ele><time>2026-04-07T06:26:50.833Z</time></trkpt><trkpt lat="40.7910969" lon="17.1403358"><ele>409.0</ele><time>2026-04-07T06:26:52.825Z</time></trkpt><trkpt lat="40.7910818" lon="17.1404234"><ele>409.0</ele><time>2026-04-07T06:26:54.839Z</time></trkpt><trkpt lat="40.7910765" lon="17.1405156"><ele>409.0</ele><time>2026-04-07T06:26:56.85Z</time></trkpt><trkpt lat="40.791064" lon="17.1406084"><ele>409.0</ele><time>2026-04-07T06:26:58.835Z</time></trkpt><trkpt lat="40.791054" lon="17.1406974"><ele>409.50000000000006</ele><time>2026-04-07T06:27:00.834Z</time></trkpt><trkpt lat="40.7910416" lon="17.1407801"><ele>410.0</ele><time>2026-04-07T06:27:02.834Z</time></trkpt><trkpt lat="40.7910186" lon="17.1408948"><ele>410.5</ele><time>2026-04-07T06:27:05.838Z</time></trkpt><trkpt lat="40.791" lon="17.141003"><ele>411.0</ele><time>2026-04-07T06:27:08.837Z</time></trkpt><trkpt lat="40.790985" lon="17.1411175"><ele>411.50000000000006</ele><time>2026-04-07T06:27:11.829Z</time></trkpt><trkpt lat="40.7909672" lon="17.1412248"><ele>412.0</ele><time>2026-04-07T06:27:14.843Z</time></trkpt><trkpt lat="40.7909456" lon="17.1413256"><ele>412.1666666666667</ele><time>2026-04-07T06:27:17.836Z</time></trkpt><trkpt lat="40.7909291" lon="17.1414239"><ele>412.33333333333337</ele><time>2026-04-07T06:27:20.83Z</time></trkpt><trkpt lat="40.7908927" lon="17.1415076"><ele>412.5</ele><time>2026-04-07T06:28:08.836Z</time></trkpt><trkpt lat="40.7908995" lon="17.1416057"><ele>412.66666666666663</ele><time>2026-04-07T06:30:54.823Z</time></trkpt><trkpt lat="40.7908639" lon="17.1417105"><ele>412.8333333333333</ele><time>2026-04-07T06:30:57.835Z</time></trkpt><trkpt lat="40.790842" lon="17.1417885"><ele>413.0</ele><time>2026-04-07T06:30:59.836Z</time></trkpt><trkpt lat="40.7908133" lon="17.1418992"><ele>413.4</ele><time>2026-04-07T06:31:02.837Z</time></trkpt><trkpt lat="40.7907917" lon="17.1420119"><ele>413.79999999999995</ele><time>2026-04-07T06:31:05.828Z</time></trkpt><trkpt lat="40.7907656" lon="17.1421282"><ele>414.2</ele><time>2026-04-07T06:31:08.834Z</time></trkpt><trkpt lat="40.7907378" lon="17.1422443"><ele>414.6</ele><time>2026-04-07T06:31:11.834Z</time></trkpt><trkpt lat="40.7907099" lon="17.1423502"><ele>415.0</ele><time>2026-04-07T06:31:14.843Z</time></trkpt><trkpt lat="40.7906819" lon="17.142468"><ele>415.1666666666667</ele><time>2026-04-07T06:31:17.832Z</time></trkpt><trkpt lat="40.7906525" lon="17.1425777"><ele>415.33333333333337</ele><time>2026-04-07T06:31:20.836Z</time></trkpt><trkpt lat="40.7906312" lon="17.1426793"><ele>415.5</ele><time>2026-04-07T06:31:23.831Z</time></trkpt><trkpt lat="40.7906107" lon="17.1427923"><ele>415.66666666666663</ele><time>2026-04-07T06:31:26.834Z</time></trkpt><trkpt lat="40.7905835" lon="17.1429065"><ele>415.8333333333333</ele><time>2026-04-07T06:31:29.839Z</time></trkpt><trkpt lat="40.7905598" lon="17.1430072"><ele>416.0</ele><time>2026-04-07T06:31:32.836Z</time></trkpt><trkpt lat="40.7905363" lon="17.143107"><ele>415.99999999999994</ele><time>2026-04-07T06:31:35.844Z</time></trkpt><trkpt lat="40.7905112" lon="17.1432074"><ele>416.0</ele><time>2026-04-07T06:31:38.85Z</time></trkpt><trkpt lat="40.7904892" lon="17.1433002"><ele>416.0</ele><time>2026-04-07T06:31:41.841Z</time></trkpt><trkpt lat="40.7904717" lon="17.1433988"><ele>416.0</ele><time>2026-04-07T06:31:44.83Z</time></trkpt><trkpt lat="40.7904558" lon="17.1435113"><ele>415.99999999999994</ele><time>2026-04-07T06:31:47.833Z</time></trkpt><trkpt lat="40.7904712" lon="17.1436172"><ele>416.0</ele><time>2026-04-07T06:31:50.83Z</time></trkpt><trkpt lat="40.7905041" lon="17.1437301"><ele>416.16666666666663</ele><time>2026-04-07T06:31:53.835Z</time></trkpt><trkpt lat="40.7905319" lon="17.143835"><ele>416.3333333333333</ele><time>2026-04-07T06:31:56.821Z</time></trkpt><trkpt lat="40.7905578" lon="17.1439434"><ele>416.5</ele><time>2026-04-07T06:31:59.83Z</time></trkpt><trkpt lat="40.7905865" lon="17.1440444"><ele>416.66666666666663</ele><time>2026-04-07T06:32:02.825Z</time></trkpt><trkpt lat="40.7906156" lon="17.1441453"><ele>416.8333333333333</ele><time>2026-04-07T06:32:05.842Z</time></trkpt><trkpt lat="40.7906468" lon="17.144243"><ele>417.0</ele><time>2026-04-07T06:32:08.834Z</time></trkpt><trkpt lat="40.7906697" lon="17.1443361"><ele>417.0</ele><time>2026-04-07T06:32:11.83Z</time></trkpt><trkpt lat="40.79069" lon="17.1444299"><ele>417.0</ele><time>2026-04-07T06:32:14.84Z</time></trkpt><trkpt lat="40.7907063" lon="17.1445175"><ele>417.0</ele><time>2026-04-07T06:32:17.828Z</time></trkpt><trkpt lat="40.7907251" lon="17.1446109"><ele>417.0</ele><time>2026-04-07T06:32:20.853Z</time></trkpt><trkpt lat="40.7907405" lon="17.144709"><ele>417.0</ele><time>2026-04-07T06:32:23.839Z</time></trkpt><trkpt lat="40.7907562" lon="17.144815"><ele>417.0</ele><time>2026-04-07T06:32:26.83Z</time></trkpt><trkpt lat="40.7907584" lon="17.1449238"><ele>417.8333333333333</ele><time>2026-04-07T06:32:29.836Z</time></trkpt><trkpt lat="40.7907661" lon="17.1450248"><ele>418.66666666666663</ele><time>2026-04-07T06:32:32.831Z</time></trkpt><trkpt lat="40.7907757" lon="17.1451324"><ele>419.5</ele><time>2026-04-07T06:32:35.837Z</time></trkpt><trkpt lat="40.79079" lon="17.1452336"><ele>420.3333333333333</ele><time>2026-04-07T06:32:38.834Z</time></trkpt><trkpt lat="40.7908017" lon="17.1453289"><ele>421.16666666666663</ele><time>2026-04-07T06:32:41.841Z</time></trkpt><trkpt lat="40.7908106" lon="17.1454253"><ele>422.0</ele><time>2026-04-07T06:32:44.841Z</time></trkpt><trkpt lat="40.7908114" lon="17.1455227"><ele>422.0</ele><time>2026-04-07T06:32:47.847Z</time></trkpt><trkpt lat="40.7908003" lon="17.1456106"><ele>422.0</ele><time>2026-04-07T06:32:50.823Z</time></trkpt><trkpt lat="40.7907839" lon="17.1456976"><ele>422.0</ele><time>2026-04-07T06:32:53.825Z</time></trkpt><trkpt lat="40.7907714" lon="17.1457817"><ele>422.0</ele><time>2026-04-07T06:32:56.829Z</time></trkpt><trkpt lat="40.7907799" lon="17.1458858"><ele>422.0</ele><time>2026-04-07T06:33:00.837Z</time></trkpt><trkpt lat="40.7908136" lon="17.1459602"><ele>422.0</ele><time>2026-04-07T06:33:03.838Z</time></trkpt><trkpt lat="40.790872" lon="17.1460228"><ele>422.0</ele><time>2026-04-07T06:33:07.844Z</time></trkpt><trkpt lat="40.7909301" lon="17.1460604"><ele>422.0</ele><time>2026-04-07T06:33:10.828Z</time></trkpt><trkpt lat="40.7910036" lon="17.1461278"><ele>422.0</ele><time>2026-04-07T06:33:13.831Z</time></trkpt><trkpt lat="40.7910668" lon="17.1461974"><ele>422.0</ele><time>2026-04-07T06:33:15.825Z</time></trkpt><trkpt lat="40.7911449" lon="17.1462875"><ele>422.0</ele><time>2026-04-07T06:33:17.842Z</time></trkpt><trkpt lat="40.7912296" lon="17.1463791"><ele>422.0</ele><time>2026-04-07T06:33:19.847Z</time></trkpt><trkpt lat="40.7913009" lon="17.1464693"><ele>422.14285714285717</ele><time>2026-04-07T06:33:21.826Z</time></trkpt><trkpt lat="40.7913609" lon="17.146549"><ele>422.28571428571433</ele><time>2026-04-07T06:33:23.831Z</time></trkpt><trkpt lat="40.7914101" lon="17.146633"><ele>422.42857142857144</ele><time>2026-04-07T06:33:25.84Z</time></trkpt><trkpt lat="40.791452" lon="17.1467089"><ele>422.57142857142856</ele><time>2026-04-07T06:33:27.828Z</time></trkpt><trkpt lat="40.7914794" lon="17.1467903"><ele>422.7142857142857</ele><time>2026-04-07T06:33:29.826Z</time></trkpt><trkpt lat="40.7915105" lon="17.1468664"><ele>422.85714285714283</ele><time>2026-04-07T06:33:31.835Z</time></trkpt><trkpt lat="40.7915296" lon="17.1469534"><ele>423.0</ele><time>2026-04-07T06:33:33.827Z</time></trkpt><trkpt lat="40.7915516" lon="17.1470411"><ele>423.0</ele><time>2026-04-07T06:33:35.829Z</time></trkpt><trkpt lat="40.7915688" lon="17.1471342"><ele>423.0</ele><time>2026-04-07T06:33:37.822Z</time></trkpt><trkpt lat="40.7915839" lon="17.147233"><ele>423.0</ele><time>2026-04-07T06:33:39.832Z</time></trkpt><trkpt lat="40.7915979" lon="17.1473302"><ele>423.0</ele><time>2026-04-07T06:33:41.83Z</time></trkpt><trkpt lat="40.7916098" lon="17.1474192"><ele>423.0</ele><time>2026-04-07T06:33:43.834Z</time></trkpt><trkpt lat="40.7916263" lon="17.147504"><ele>423.0</ele><time>2026-04-07T06:33:45.824Z</time></trkpt><trkpt lat="40.7916413" lon="17.1475982"><ele>423.0</ele><time>2026-04-07T06:33:47.832Z</time></trkpt><trkpt lat="40.791648" lon="17.1476907"><ele>423.0</ele><time>2026-04-07T06:33:49.829Z</time></trkpt><trkpt lat="40.7916382" lon="17.1477995"><ele>423.0</ele><time>2026-04-07T06:33:51.827Z</time></trkpt><trkpt lat="40.7916187" lon="17.1478884"><ele>423.0</ele><time>2026-04-07T06:33:53.83Z</time></trkpt><trkpt lat="40.7915967" lon="17.147988"><ele>423.0</ele><time>2026-04-07T06:33:55.827Z</time></trkpt><trkpt lat="40.7915796" lon="17.1480972"><ele>423.0</ele><time>2026-04-07T06:33:57.836Z</time></trkpt><trkpt lat="40.7915844" lon="17.1482213"><ele>423.0</ele><time>2026-04-07T06:33:59.807Z</time></trkpt><trkpt lat="40.7915995" lon="17.1483414"><ele>422.8333333333333</ele><time>2026-04-07T06:34:01.83Z</time></trkpt><trkpt lat="40.791616" lon="17.1484389"><ele>422.66666666666663</ele><time>2026-04-07T06:34:03.833Z</time></trkpt><trkpt lat="40.7916357" lon="17.1485551"><ele>422.5</ele><time>2026-04-07T06:34:06.825Z</time></trkpt><trkpt lat="40.7916537" lon="17.1486691"><ele>422.3333333333333</ele><time>2026-04-07T06:34:09.834Z</time></trkpt><trkpt lat="40.7916764" lon="17.148782"><ele>422.16666666666663</ele><time>2026-04-07T06:34:12.831Z</time></trkpt><trkpt lat="40.7917121" lon="17.1488905"><ele>422.0</ele><time>2026-04-07T06:34:15.834Z</time></trkpt><trkpt lat="40.7917246" lon="17.1490028"><ele>422.16666666666663</ele><time>2026-04-07T06:34:18.836Z</time></trkpt><trkpt lat="40.7917337" lon="17.1491126"><ele>422.3333333333333</ele><time>2026-04-07T06:34:21.842Z</time></trkpt><trkpt lat="40.791754" lon="17.1492267"><ele>422.5</ele><time>2026-04-07T06:34:24.833Z</time></trkpt><trkpt lat="40.7917708" lon="17.1493083"><ele>422.66666666666663</ele><time>2026-04-07T06:34:26.838Z</time></trkpt><trkpt lat="40.7917871" lon="17.149428"><ele>422.8333333333333</ele><time>2026-04-07T06:34:29.826Z</time></trkpt><trkpt lat="40.7918032" lon="17.1495356"><ele>423.0</ele><time>2026-04-07T06:34:32.834Z</time></trkpt><trkpt lat="40.7918192" lon="17.1496533"><ele>423.0</ele><time>2026-04-07T06:34:35.834Z</time></trkpt><trkpt lat="40.7918336" lon="17.1497619"><ele>423.0</ele><time>2026-04-07T06:34:38.827Z</time></trkpt><trkpt lat="40.7918508" lon="17.1498724"><ele>423.0</ele><time>2026-04-07T06:34:41.831Z</time></trkpt><trkpt lat="40.7918653" lon="17.1499812"><ele>423.0</ele><time>2026-04-07T06:34:44.838Z</time></trkpt><trkpt lat="40.791885" lon="17.1500978"><ele>423.0</ele><time>2026-04-07T06:34:47.83Z</time></trkpt><trkpt lat="40.7919001" lon="17.1502133"><ele>423.0</ele><time>2026-04-07T06:34:50.826Z</time></trkpt><trkpt lat="40.7919174" lon="17.1503318"><ele>423.3333333333333</ele><time>2026-04-07T06:34:53.828Z</time></trkpt><trkpt lat="40.7919302" lon="17.1504444"><ele>423.66666666666663</ele><time>2026-04-07T06:34:56.852Z</time></trkpt><trkpt lat="40.7919412" lon="17.1505624"><ele>424.0</ele><time>2026-04-07T06:34:59.835Z</time></trkpt><trkpt lat="40.7919475" lon="17.1506716"><ele>424.3333333333333</ele><time>2026-04-07T06:35:02.827Z</time></trkpt><trkpt lat="40.7919601" lon="17.1507714"><ele>424.66666666666663</ele><time>2026-04-07T06:35:05.833Z</time></trkpt><trkpt lat="40.7919699" lon="17.1508783"><ele>425.0</ele><time>2026-04-07T06:35:08.833Z</time></trkpt><trkpt lat="40.7919844" lon="17.1509923"><ele>425.3333333333333</ele><time>2026-04-07T06:35:11.832Z</time></trkpt><trkpt lat="40.7920097" lon="17.1511058"><ele>425.66666666666663</ele><time>2026-04-07T06:35:14.828Z</time></trkpt><trkpt lat="40.7920221" lon="17.1512235"><ele>426.0</ele><time>2026-04-07T06:35:17.83Z</time></trkpt><trkpt lat="40.7920359" lon="17.1513392"><ele>426.33333333333337</ele><time>2026-04-07T06:35:20.841Z</time></trkpt><trkpt lat="40.7920471" lon="17.1514488"><ele>426.6666666666667</ele><time>2026-04-07T06:35:23.834Z</time></trkpt><trkpt lat="40.7920665" lon="17.1515632"><ele>427.0</ele><time>2026-04-07T06:35:26.835Z</time></trkpt><trkpt lat="40.7920896" lon="17.1516794"><ele>427.33333333333337</ele><time>2026-04-07T06:35:29.832Z</time></trkpt><trkpt lat="40.7921021" lon="17.1517956"><ele>427.6666666666667</ele><time>2026-04-07T06:35:32.843Z</time></trkpt><trkpt lat="40.7921129" lon="17.1519015"><ele>428.0</ele><time>2026-04-07T06:35:35.835Z</time></trkpt><trkpt lat="40.7921175" lon="17.1520175"><ele>428.33333333333337</ele><time>2026-04-07T06:35:38.821Z</time></trkpt><trkpt lat="40.7921085" lon="17.1521201"><ele>428.6666666666667</ele><time>2026-04-07T06:35:41.834Z</time></trkpt><trkpt lat="40.7920997" lon="17.1522257"><ele>429.0</ele><time>2026-04-07T06:35:44.835Z</time></trkpt><trkpt lat="40.7920817" lon="17.1523374"><ele>429.14285714285717</ele><time>2026-04-07T06:35:47.835Z</time></trkpt><trkpt lat="40.7920491" lon="17.1524358"><ele>429.28571428571433</ele><time>2026-04-07T06:35:50.838Z</time></trkpt><trkpt lat="40.792016" lon="17.1525437"><ele>429.42857142857144</ele><time>2026-04-07T06:35:53.841Z</time></trkpt><trkpt lat="40.7919866" lon="17.1526192"><ele>429.57142857142856</ele><time>2026-04-07T06:35:55.835Z</time></trkpt><trkpt lat="40.7919582" lon="17.1526977"><ele>429.7142857142857</ele><time>2026-04-07T06:35:57.843Z</time></trkpt><trkpt lat="40.7919317" lon="17.1527845"><ele>429.85714285714283</ele><time>2026-04-07T06:35:59.827Z</time></trkpt><trkpt lat="40.7919052" lon="17.1528661"><ele>430.0</ele><time>2026-04-07T06:36:01.828Z</time></trkpt><trkpt lat="40.7918715" lon="17.1529748"><ele>430.00000000000006</ele><time>2026-04-07T06:36:04.829Z</time></trkpt><trkpt lat="40.7918574" lon="17.1530941"><ele>430.0</ele><time>2026-04-07T06:36:07.831Z</time></trkpt><trkpt lat="40.7918523" lon="17.1531846"><ele>430.0</ele><time>2026-04-07T06:36:09.823Z</time></trkpt><trkpt lat="40.7918475" lon="17.1532768"><ele>430.0</ele><time>2026-04-07T06:36:11.836Z</time></trkpt><trkpt lat="40.7918436" lon="17.153371"><ele>430.00000000000006</ele><time>2026-04-07T06:36:13.838Z</time></trkpt><trkpt lat="40.7918476" lon="17.1534777"><ele>430.0</ele><time>2026-04-07T06:36:15.845Z</time></trkpt><trkpt lat="40.7918498" lon="17.1535822"><ele>429.6666666666667</ele><time>2026-04-07T06:36:17.836Z</time></trkpt><trkpt lat="40.7918464" lon="17.153677"><ele>429.33333333333337</ele><time>2026-04-07T06:36:19.834Z</time></trkpt><trkpt lat="40.7918513" lon="17.1537815"><ele>429.0</ele><time>2026-04-07T06:36:21.82Z</time></trkpt><trkpt lat="40.7918507" lon="17.1538877"><ele>428.66666666666663</ele><time>2026-04-07T06:36:23.836Z</time></trkpt><trkpt lat="40.7918567" lon="17.1539951"><ele>428.3333333333333</ele><time>2026-04-07T06:36:25.839Z</time></trkpt><trkpt lat="40.7918548" lon="17.1541003"><ele>428.0</ele><time>2026-04-07T06:36:27.84Z</time></trkpt><trkpt lat="40.7918534" lon="17.1542011"><ele>427.66666666666663</ele><time>2026-04-07T06:36:29.83Z</time></trkpt><trkpt lat="40.791859" lon="17.1542993"><ele>427.3333333333333</ele><time>2026-04-07T06:36:31.838Z</time></trkpt><trkpt lat="40.791864" lon="17.1543956"><ele>427.0</ele><time>2026-04-07T06:36:33.841Z</time></trkpt><trkpt lat="40.7918751" lon="17.154491"><ele>426.66666666666663</ele><time>2026-04-07T06:36:35.831Z</time></trkpt><trkpt lat="40.7918873" lon="17.1545908"><ele>426.3333333333333</ele><time>2026-04-07T06:36:37.824Z</time></trkpt><trkpt lat="40.7919157" lon="17.1546975"><ele>426.0</ele><time>2026-04-07T06:36:39.833Z</time></trkpt><trkpt lat="40.7919412" lon="17.1548174"><ele>425.6</ele><time>2026-04-07T06:36:41.833Z</time></trkpt><trkpt lat="40.7919741" lon="17.1549402"><ele>425.20000000000005</ele><time>2026-04-07T06:36:43.84Z</time></trkpt><trkpt lat="40.7920027" lon="17.1550642"><ele>424.79999999999995</ele><time>2026-04-07T06:36:45.813Z</time></trkpt><trkpt lat="40.7920334" lon="17.1551909"><ele>424.4</ele><time>2026-04-07T06:36:47.837Z</time></trkpt><trkpt lat="40.7920539" lon="17.1553198"><ele>424.0</ele><time>2026-04-07T06:36:49.822Z</time></trkpt><trkpt lat="40.7920838" lon="17.1554565"><ele>424.0</ele><time>2026-04-07T06:36:51.831Z</time></trkpt><trkpt lat="40.7921112" lon="17.1555998"><ele>424.0</ele><time>2026-04-07T06:36:53.821Z</time></trkpt><trkpt lat="40.792152" lon="17.1557498"><ele>424.0</ele><time>2026-04-07T06:36:55.823Z</time></trkpt><trkpt lat="40.7921791" lon="17.1559024"><ele>424.0</ele><time>2026-04-07T06:36:57.828Z</time></trkpt><trkpt lat="40.7922107" lon="17.1560601"><ele>424.0</ele><time>2026-04-07T06:36:59.827Z</time></trkpt><trkpt lat="40.7922479" lon="17.1562181"><ele>424.0</ele><time>2026-04-07T06:37:01.83Z</time></trkpt><trkpt lat="40.7922728" lon="17.1562966"><ele>424.0</ele><time>2026-04-07T06:37:02.832Z</time></trkpt><trkpt lat="40.7923188" lon="17.1564388"><ele>424.0</ele><time>2026-04-07T06:37:04.825Z</time></trkpt><trkpt lat="40.7923628" lon="17.1565667"><ele>424.0</ele><time>2026-04-07T06:37:06.831Z</time></trkpt><trkpt lat="40.792403" lon="17.1566842"><ele>424.1666666666667</ele><time>2026-04-07T06:37:08.831Z</time></trkpt><trkpt lat="40.7924359" lon="17.1567877"><ele>424.33333333333337</ele><time>2026-04-07T06:37:10.841Z</time></trkpt><trkpt lat="40.7924616" lon="17.1568781"><ele>424.5</ele><time>2026-04-07T06:37:12.824Z</time></trkpt><trkpt lat="40.7925027" lon="17.1569852"><ele>424.66666666666663</ele><time>2026-04-07T06:37:15.845Z</time></trkpt><trkpt lat="40.7925418" lon="17.1571018"><ele>424.8333333333333</ele><time>2026-04-07T06:37:18.84Z</time></trkpt><trkpt lat="40.7925743" lon="17.1572142"><ele>425.0</ele><time>2026-04-07T06:37:21.832Z</time></trkpt><trkpt lat="40.7926189" lon="17.1573136"><ele>425.49999999999994</ele><time>2026-04-07T06:37:24.828Z</time></trkpt><trkpt lat="40.7926635" lon="17.1574115"><ele>426.0</ele><time>2026-04-07T06:37:27.839Z</time></trkpt><trkpt lat="40.7926998" lon="17.1575182"><ele>426.5</ele><time>2026-04-07T06:37:30.838Z</time></trkpt><trkpt lat="40.7927353" lon="17.1576199"><ele>427.0</ele><time>2026-04-07T06:37:33.819Z</time></trkpt><trkpt lat="40.7927744" lon="17.1577171"><ele>427.49999999999994</ele><time>2026-04-07T06:37:36.828Z</time></trkpt><trkpt lat="40.7928084" lon="17.1578258"><ele>428.0</ele><time>2026-04-07T06:37:39.824Z</time></trkpt><trkpt lat="40.7928422" lon="17.1579284"><ele>427.99999999999994</ele><time>2026-04-07T06:37:42.821Z</time></trkpt><trkpt lat="40.7928592" lon="17.1580256"><ele>428.0</ele><time>2026-04-07T06:37:45.822Z</time></trkpt><trkpt lat="40.7928795" lon="17.1581146"><ele>428.0</ele><time>2026-04-07T06:38:00.828Z</time></trkpt><trkpt lat="40.7928986" lon="17.1581947"><ele>428.0</ele><time>2026-04-07T06:38:03.834Z</time></trkpt><trkpt lat="40.7929165" lon="17.1582984"><ele>427.99999999999994</ele><time>2026-04-07T06:38:06.841Z</time></trkpt><trkpt lat="40.792934" lon="17.1584025"><ele>428.0</ele><time>2026-04-07T06:38:09.833Z</time></trkpt><trkpt lat="40.7929578" lon="17.1585177"><ele>428.28571428571433</ele><time>2026-04-07T06:38:12.829Z</time></trkpt><trkpt lat="40.7929754" lon="17.1585979"><ele>428.57142857142856</ele><time>2026-04-07T06:38:14.83Z</time></trkpt><trkpt lat="40.7929879" lon="17.1586832"><ele>428.8571428571429</ele><time>2026-04-07T06:38:16.832Z</time></trkpt><trkpt lat="40.7929915" lon="17.1587675"><ele>429.14285714285717</ele><time>2026-04-07T06:38:18.825Z</time></trkpt><trkpt lat="40.7929793" lon="17.1588711"><ele>429.42857142857144</ele><time>2026-04-07T06:38:21.831Z</time></trkpt><trkpt lat="40.7929704" lon="17.15896"><ele>429.7142857142857</ele><time>2026-04-07T06:38:23.833Z</time></trkpt><trkpt lat="40.7929512" lon="17.1590451"><ele>430.0</ele><time>2026-04-07T06:38:25.823Z</time></trkpt><trkpt lat="40.7929283" lon="17.1591348"><ele>430.0</ele><time>2026-04-07T06:38:27.829Z</time></trkpt><trkpt lat="40.7929232" lon="17.1592347"><ele>430.0</ele><time>2026-04-07T06:38:29.823Z</time></trkpt><trkpt lat="40.7929329" lon="17.1593319"><ele>430.0</ele><time>2026-04-07T06:38:31.836Z</time></trkpt><trkpt lat="40.7929384" lon="17.1594201"><ele>430.0</ele><time>2026-04-07T06:38:33.821Z</time></trkpt><trkpt lat="40.7929485" lon="17.1595122"><ele>430.0</ele><time>2026-04-07T06:38:35.836Z</time></trkpt><trkpt lat="40.7929665" lon="17.1596049"><ele>430.0</ele><time>2026-04-07T06:38:37.831Z</time></trkpt><trkpt lat="40.7929856" lon="17.1596998"><ele>430.0</ele><time>2026-04-07T06:38:39.836Z</time></trkpt><trkpt lat="40.7930169" lon="17.1598141"><ele>430.33333333333337</ele><time>2026-04-07T06:38:42.843Z</time></trkpt><trkpt lat="40.7930495" lon="17.1599055"><ele>430.6666666666667</ele><time>2026-04-07T06:38:45.837Z</time></trkpt><trkpt lat="40.7930754" lon="17.1600092"><ele>431.0</ele><time>2026-04-07T06:38:48.831Z</time></trkpt><trkpt lat="40.7931203" lon="17.1601038"><ele>431.33333333333337</ele><time>2026-04-07T06:38:51.838Z</time></trkpt><trkpt lat="40.7931715" lon="17.1601953"><ele>431.6666666666667</ele><time>2026-04-07T06:38:54.831Z</time></trkpt><trkpt lat="40.7932195" lon="17.1602931"><ele>432.0</ele><time>2026-04-07T06:38:57.839Z</time></trkpt><trkpt lat="40.7932717" lon="17.1603917"><ele>432.0</ele><time>2026-04-07T06:39:00.828Z</time></trkpt><trkpt lat="40.793325" lon="17.1604851"><ele>432.0</ele><time>2026-04-07T06:39:03.833Z</time></trkpt><trkpt lat="40.7933721" lon="17.1605778"><ele>432.0</ele><time>2026-04-07T06:39:06.838Z</time></trkpt><trkpt lat="40.7934189" lon="17.1606685"><ele>432.0</ele><time>2026-04-07T06:39:09.832Z</time></trkpt><trkpt lat="40.7934685" lon="17.1607564"><ele>432.0</ele><time>2026-04-07T06:39:12.834Z</time></trkpt><trkpt lat="40.7935113" lon="17.1608437"><ele>432.0</ele><time>2026-04-07T06:39:15.838Z</time></trkpt><trkpt lat="40.7935431" lon="17.1609186"><ele>432.7142857142857</ele><time>2026-04-07T06:39:18.847Z</time></trkpt><trkpt lat="40.7935796" lon="17.1609896"><ele>433.42857142857144</ele><time>2026-04-07T06:39:21.835Z</time></trkpt><trkpt lat="40.7936136" lon="17.161071"><ele>434.1428571428571</ele><time>2026-04-07T06:39:25.834Z</time></trkpt><trkpt lat="40.7936543" lon="17.1611516"><ele>434.8571428571429</ele><time>2026-04-07T06:39:29.841Z</time></trkpt><trkpt lat="40.7936948" lon="17.1612253"><ele>435.5714285714286</ele><time>2026-04-07T06:39:32.839Z</time></trkpt><trkpt lat="40.793739" lon="17.1613025"><ele>436.2857142857143</ele><time>2026-04-07T06:39:35.839Z</time></trkpt><trkpt lat="40.7937841" lon="17.1613835"><ele>437.0</ele><time>2026-04-07T06:39:38.816Z</time></trkpt><trkpt lat="40.793833" lon="17.161467"><ele>437.2857142857143</ele><time>2026-04-07T06:39:41.832Z</time></trkpt><trkpt lat="40.7938785" lon="17.1615574"><ele>437.5714285714286</ele><time>2026-04-07T06:39:44.832Z</time></trkpt><trkpt lat="40.7939241" lon="17.1616429"><ele>437.8571428571429</ele><time>2026-04-07T06:39:47.833Z</time></trkpt><trkpt lat="40.793966" lon="17.1617291"><ele>438.1428571428571</ele><time>2026-04-07T06:39:50.837Z</time></trkpt><trkpt lat="40.7940018" lon="17.1618127"><ele>438.42857142857144</ele><time>2026-04-07T06:39:53.828Z</time></trkpt><trkpt lat="40.7940252" lon="17.1618915"><ele>438.7142857142857</ele><time>2026-04-07T06:39:56.815Z</time></trkpt><trkpt lat="40.7940528" lon="17.1619766"><ele>439.0</ele><time>2026-04-07T06:39:59.844Z</time></trkpt><trkpt lat="40.7940603" lon="17.1620787"><ele>439.00000000000006</ele><time>2026-04-07T06:40:02.828Z</time></trkpt><trkpt lat="40.794079" lon="17.1621863"><ele>439.0</ele><time>2026-04-07T06:40:05.827Z</time></trkpt><trkpt lat="40.7941002" lon="17.1623039"><ele>439.0</ele><time>2026-04-07T06:40:08.841Z</time></trkpt><trkpt lat="40.7941209" lon="17.1623997"><ele>439.0</ele><time>2026-04-07T06:40:10.834Z</time></trkpt><trkpt lat="40.7941422" lon="17.1625068"><ele>439.00000000000006</ele><time>2026-04-07T06:40:12.835Z</time></trkpt><trkpt lat="40.7941655" lon="17.1626193"><ele>439.0</ele><time>2026-04-07T06:40:14.818Z</time></trkpt><trkpt lat="40.7941923" lon="17.162744"><ele>439.0</ele><time>2026-04-07T06:40:16.831Z</time></trkpt><trkpt lat="40.7942099" lon="17.1628729"><ele>439.0</ele><time>2026-04-07T06:40:18.841Z</time></trkpt><trkpt lat="40.7942315" lon="17.1630018"><ele>439.0</ele><time>2026-04-07T06:40:20.842Z</time></trkpt><trkpt lat="40.7942486" lon="17.1631309"><ele>439.0</ele><time>2026-04-07T06:40:22.825Z</time></trkpt><trkpt lat="40.7942737" lon="17.1632666"><ele>439.0</ele><time>2026-04-07T06:40:24.828Z</time></trkpt><trkpt lat="40.7943014" lon="17.1634085"><ele>438.75</ele><time>2026-04-07T06:40:26.833Z</time></trkpt><trkpt lat="40.7943226" lon="17.1635588"><ele>438.5</ele><time>2026-04-07T06:40:28.832Z</time></trkpt><trkpt lat="40.7943453" lon="17.1637105"><ele>438.25</ele><time>2026-04-07T06:40:30.847Z</time></trkpt><trkpt lat="40.7943745" lon="17.163862"><ele>438.0</ele><time>2026-04-07T06:40:32.828Z</time></trkpt><trkpt lat="40.7944055" lon="17.1640286"><ele>436.8571428571429</ele><time>2026-04-07T06:40:34.828Z</time></trkpt><trkpt lat="40.7944207" lon="17.1641178"><ele>435.71428571428567</ele><time>2026-04-07T06:40:35.852Z</time></trkpt><trkpt lat="40.7944388" lon="17.1642074"><ele>434.57142857142856</ele><time>2026-04-07T06:40:36.834Z</time></trkpt><trkpt lat="40.7944571" lon="17.1643011"><ele>433.42857142857144</ele><time>2026-04-07T06:40:37.828Z</time></trkpt><trkpt lat="40.794473" lon="17.1643949"><ele>432.28571428571433</ele><time>2026-04-07T06:40:38.842Z</time></trkpt><trkpt lat="40.7944882" lon="17.1644834"><ele>431.1428571428571</ele><time>2026-04-07T06:40:39.828Z</time></trkpt><trkpt lat="40.7945106" lon="17.1645792"><ele>430.0</ele><time>2026-04-07T06:40:40.852Z</time></trkpt><trkpt lat="40.7945321" lon="17.1646674"><ele>430.00000000000006</ele><time>2026-04-07T06:40:41.83Z</time></trkpt><trkpt lat="40.7945587" lon="17.1647587"><ele>430.0</ele><time>2026-04-07T06:40:42.834Z</time></trkpt><trkpt lat="40.7945939" lon="17.1648496"><ele>430.0</ele><time>2026-04-07T06:40:43.824Z</time></trkpt><trkpt lat="40.7946358" lon="17.1649462"><ele>430.0</ele><time>2026-04-07T06:40:44.833Z</time></trkpt><trkpt lat="40.7946807" lon="17.1650489"><ele>430.00000000000006</ele><time>2026-04-07T06:40:45.831Z</time></trkpt><trkpt lat="40.7947249" lon="17.1651564"><ele>430.0</ele><time>2026-04-07T06:40:46.841Z</time></trkpt><trkpt lat="40.7947693" lon="17.1652606"><ele>429.50000000000006</ele><time>2026-04-07T06:40:47.835Z</time></trkpt><trkpt lat="40.794815" lon="17.1653644"><ele>429.0</ele><time>2026-04-07T06:40:48.827Z</time></trkpt><trkpt lat="40.7948575" lon="17.1654661"><ele>428.5</ele><time>2026-04-07T06:40:49.833Z</time></trkpt><trkpt lat="40.7948981" lon="17.1655671"><ele>428.0</ele><time>2026-04-07T06:40:50.829Z</time></trkpt><trkpt lat="40.7949391" lon="17.1656656"><ele>427.50000000000006</ele><time>2026-04-07T06:40:51.827Z</time></trkpt><trkpt lat="40.7949798" lon="17.1657619"><ele>427.0</ele><time>2026-04-07T06:40:52.831Z</time></trkpt><trkpt lat="40.7950135" lon="17.1658545"><ele>426.83333333333337</ele><time>2026-04-07T06:40:53.832Z</time></trkpt><trkpt lat="40.7950451" lon="17.1659436"><ele>426.6666666666667</ele><time>2026-04-07T06:40:54.832Z</time></trkpt><trkpt lat="40.7950782" lon="17.1660317"><ele>426.5</ele><time>2026-04-07T06:40:55.848Z</time></trkpt><trkpt lat="40.7951073" lon="17.1661095"><ele>426.33333333333337</ele><time>2026-04-07T06:40:56.837Z</time></trkpt><trkpt lat="40.7951575" lon="17.1662424"><ele>426.1666666666667</ele><time>2026-04-07T06:40:58.829Z</time></trkpt><trkpt lat="40.7952005" lon="17.1663587"><ele>426.0</ele><time>2026-04-07T06:41:00.834Z</time></trkpt><trkpt lat="40.7952327" lon="17.1664487"><ele>426.6666666666667</ele><time>2026-04-07T06:41:02.821Z</time></trkpt><trkpt lat="40.7952605" lon="17.1665536"><ele>427.33333333333337</ele><time>2026-04-07T06:41:05.821Z</time></trkpt><trkpt lat="40.7952937" lon="17.1666526"><ele>428.0</ele><time>2026-04-07T06:41:08.826Z</time></trkpt><trkpt lat="40.7953334" lon="17.1667549"><ele>428.6666666666667</ele><time>2026-04-07T06:41:11.821Z</time></trkpt><trkpt lat="40.7953834" lon="17.1668575"><ele>429.33333333333337</ele><time>2026-04-07T06:41:14.823Z</time></trkpt><trkpt lat="40.795424" lon="17.166955"><ele>430.0</ele><time>2026-04-07T06:41:17.829Z</time></trkpt><trkpt lat="40.7954792" lon="17.1670556"><ele>430.00000000000006</ele><time>2026-04-07T06:41:20.828Z</time></trkpt><trkpt lat="40.795529" lon="17.1671522"><ele>430.0</ele><time>2026-04-07T06:41:23.833Z</time></trkpt><trkpt lat="40.7955669" lon="17.1672201"><ele>430.0</ele><time>2026-04-07T06:41:25.834Z</time></trkpt><trkpt lat="40.7956197" lon="17.1673115"><ele>430.0</ele><time>2026-04-07T06:41:28.831Z</time></trkpt><trkpt lat="40.7956728" lon="17.1674058"><ele>430.00000000000006</ele><time>2026-04-07T06:41:31.828Z</time></trkpt><trkpt lat="40.7957266" lon="17.1675059"><ele>430.0</ele><time>2026-04-07T06:41:34.825Z</time></trkpt><trkpt lat="40.7957776" lon="17.1676021"><ele>430.1666666666667</ele><time>2026-04-07T06:41:37.828Z</time></trkpt><trkpt lat="40.7958333" lon="17.1676958"><ele>430.33333333333337</ele><time>2026-04-07T06:41:40.829Z</time></trkpt><trkpt lat="40.7958915" lon="17.1677834"><ele>430.5</ele><time>2026-04-07T06:41:43.83Z</time></trkpt><trkpt lat="40.7959566" lon="17.1678566"><ele>430.66666666666663</ele><time>2026-04-07T06:41:46.822Z</time></trkpt><trkpt lat="40.796022" lon="17.1679359"><ele>430.8333333333333</ele><time>2026-04-07T06:41:49.853Z</time></trkpt><trkpt lat="40.7960688" lon="17.1679919"><ele>431.0</ele><time>2026-04-07T06:41:51.829Z</time></trkpt><trkpt lat="40.796136" lon="17.1680665"><ele>430.99999999999994</ele><time>2026-04-07T06:41:54.828Z</time></trkpt><trkpt lat="40.796199" lon="17.1681341"><ele>431.0</ele><time>2026-04-07T06:41:57.84Z</time></trkpt><trkpt lat="40.7962722" lon="17.168204"><ele>431.0</ele><time>2026-04-07T06:42:00.846Z</time></trkpt><trkpt lat="40.7963396" lon="17.1682694"><ele>431.0</ele><time>2026-04-07T06:42:03.819Z</time></trkpt><trkpt lat="40.7964036" lon="17.1683388"><ele>430.99999999999994</ele><time>2026-04-07T06:42:06.828Z</time></trkpt><trkpt lat="40.79646" lon="17.1684066"><ele>431.0</ele><time>2026-04-07T06:42:09.836Z</time></trkpt><trkpt lat="40.7965292" lon="17.1684866"><ele>431.0</ele><time>2026-04-07T06:42:12.832Z</time></trkpt><trkpt lat="40.7965843" lon="17.1685612"><ele>431.0</ele><time>2026-04-07T06:42:14.834Z</time></trkpt><trkpt lat="40.7966256" lon="17.1686589"><ele>431.0</ele><time>2026-04-07T06:42:16.833Z</time></trkpt><trkpt lat="40.7966836" lon="17.1687617"><ele>431.0</ele><time>2026-04-07T06:42:18.838Z</time></trkpt><trkpt lat="40.7967393" lon="17.1688705"><ele>431.0</ele><time>2026-04-07T06:42:20.825Z</time></trkpt><trkpt lat="40.7968054" lon="17.1689853"><ele>430.0</ele><time>2026-04-07T06:42:22.826Z</time></trkpt><trkpt lat="40.796876" lon="17.1691004"><ele>429.0</ele><time>2026-04-07T06:42:24.832Z</time></trkpt><trkpt lat="40.7969519" lon="17.169214"><ele>428.0</ele><time>2026-04-07T06:42:26.833Z</time></trkpt><trkpt lat="40.7970283" lon="17.169328"><ele>427.0</ele><time>2026-04-07T06:42:28.832Z</time></trkpt><trkpt lat="40.7970724" lon="17.1693888"><ele>426.0</ele><time>2026-04-07T06:42:29.843Z</time></trkpt><trkpt lat="40.7971132" lon="17.1694539"><ele>426.0</ele><time>2026-04-07T06:42:30.826Z</time></trkpt><trkpt lat="40.7971584" lon="17.1695252"><ele>426.0</ele><time>2026-04-07T06:42:31.826Z</time></trkpt><trkpt lat="40.797205" lon="17.1695926"><ele>426.0</ele><time>2026-04-07T06:42:32.825Z</time></trkpt><trkpt lat="40.797258" lon="17.1696681"><ele>426.0</ele><time>2026-04-07T06:42:33.822Z</time></trkpt><trkpt lat="40.7973127" lon="17.1697405"><ele>426.0</ele><time>2026-04-07T06:42:34.827Z</time></trkpt><trkpt lat="40.7973648" lon="17.1698205"><ele>426.0</ele><time>2026-04-07T06:42:35.828Z</time></trkpt><trkpt lat="40.7974131" lon="17.169903"><ele>425.5</ele><time>2026-04-07T06:42:36.832Z</time></trkpt><trkpt lat="40.797457" lon="17.1699877"><ele>425.0</ele><time>2026-04-07T06:42:37.821Z</time></trkpt><trkpt lat="40.7975032" lon="17.1700826"><ele>424.5</ele><time>2026-04-07T06:42:38.821Z</time></trkpt><trkpt lat="40.7975481" lon="17.1701826"><ele>424.0</ele><time>2026-04-07T06:42:39.837Z</time></trkpt><trkpt lat="40.7975928" lon="17.1702851"><ele>423.5</ele><time>2026-04-07T06:42:40.832Z</time></trkpt><trkpt lat="40.797632" lon="17.170383"><ele>423.0</ele><time>2026-04-07T06:42:41.821Z</time></trkpt><trkpt lat="40.7976725" lon="17.1704785"><ele>422.3333333333333</ele><time>2026-04-07T06:42:42.836Z</time></trkpt><trkpt lat="40.7977178" lon="17.170577"><ele>421.66666666666663</ele><time>2026-04-07T06:42:43.828Z</time></trkpt><trkpt lat="40.7977644" lon="17.1706754"><ele>421.0</ele><time>2026-04-07T06:42:44.823Z</time></trkpt><trkpt lat="40.7978181" lon="17.1707689"><ele>420.3333333333333</ele><time>2026-04-07T06:42:45.836Z</time></trkpt><trkpt lat="40.7978729" lon="17.1708642"><ele>419.66666666666663</ele><time>2026-04-07T06:42:46.825Z</time></trkpt><trkpt lat="40.7979276" lon="17.1709528"><ele>419.0</ele><time>2026-04-07T06:42:47.836Z</time></trkpt><trkpt lat="40.7979822" lon="17.1710443"><ele>418.99999999999994</ele><time>2026-04-07T06:42:48.826Z</time></trkpt><trkpt lat="40.7980317" lon="17.1711294"><ele>419.0</ele><time>2026-04-07T06:42:49.824Z</time></trkpt><trkpt lat="40.7980808" lon="17.1712139"><ele>419.0</ele><time>2026-04-07T06:42:50.827Z</time></trkpt><trkpt lat="40.7981263" lon="17.1712976"><ele>419.0</ele><time>2026-04-07T06:42:51.817Z</time></trkpt><trkpt lat="40.7981646" lon="17.1713743"><ele>419.0</ele><time>2026-04-07T06:42:52.818Z</time></trkpt><trkpt lat="40.7982047" lon="17.1714443"><ele>418.99999999999994</ele><time>2026-04-07T06:42:53.817Z</time></trkpt><trkpt lat="40.7982471" lon="17.1715123"><ele>419.0</ele><time>2026-04-07T06:42:54.815Z</time></trkpt><trkpt lat="40.7983181" lon="17.1716407"><ele>418.99999999999994</ele><time>2026-04-07T06:42:56.826Z</time></trkpt><trkpt lat="40.7983791" lon="17.1717596"><ele>419.0</ele><time>2026-04-07T06:42:58.842Z</time></trkpt><trkpt lat="40.7984309" lon="17.1718667"><ele>419.0</ele><time>2026-04-07T06:43:00.839Z</time></trkpt><trkpt lat="40.798478" lon="17.1719548"><ele>419.0</ele><time>2026-04-07T06:43:02.83Z</time></trkpt><trkpt lat="40.7985243" lon="17.1720334"><ele>418.99999999999994</ele><time>2026-04-07T06:43:04.837Z</time></trkpt><trkpt lat="40.7985719" lon="17.1721113"><ele>419.0</ele><time>2026-04-07T06:43:06.825Z</time></trkpt><trkpt lat="40.7986087" lon="17.1721996"><ele>418.99999999999994</ele><time>2026-04-07T06:43:08.829Z</time></trkpt><trkpt lat="40.7986373" lon="17.1722852"><ele>419.0</ele><time>2026-04-07T06:43:10.841Z</time></trkpt><trkpt lat="40.7986585" lon="17.1723638"><ele>419.0</ele><time>2026-04-07T06:43:12.839Z</time></trkpt><trkpt lat="40.7986883" lon="17.172481"><ele>419.0</ele><time>2026-04-07T06:43:15.836Z</time></trkpt><trkpt lat="40.7986977" lon="17.1725949"><ele>418.99999999999994</ele><time>2026-04-07T06:43:18.828Z</time></trkpt><trkpt lat="40.7987178" lon="17.1726995"><ele>419.0</ele><time>2026-04-07T06:43:21.84Z</time></trkpt><trkpt lat="40.7987289" lon="17.1728196"><ele>419.1428571428571</ele><time>2026-04-07T06:43:24.833Z</time></trkpt><trkpt lat="40.7987389" lon="17.1729068"><ele>419.2857142857143</ele><time>2026-04-07T06:43:26.832Z</time></trkpt><trkpt lat="40.7987512" lon="17.1730041"><ele>419.42857142857144</ele><time>2026-04-07T06:43:28.841Z</time></trkpt><trkpt lat="40.7987603" lon="17.1730991"><ele>419.57142857142856</ele><time>2026-04-07T06:43:30.814Z</time></trkpt><trkpt lat="40.7987669" lon="17.1731937"><ele>419.7142857142857</ele><time>2026-04-07T06:43:32.83Z</time></trkpt><trkpt lat="40.7987735" lon="17.1732792"><ele>419.85714285714283</ele><time>2026-04-07T06:43:34.845Z</time></trkpt><trkpt lat="40.7987701" lon="17.1733668"><ele>420.0</ele><time>2026-04-07T06:43:36.826Z</time></trkpt><trkpt lat="40.7987626" lon="17.1734859"><ele>420.0</ele><time>2026-04-07T06:43:39.824Z</time></trkpt><trkpt lat="40.7987562" lon="17.1736097"><ele>420.0</ele><time>2026-04-07T06:43:42.834Z</time></trkpt><trkpt lat="40.798737" lon="17.1736973"><ele>420.0</ele><time>2026-04-07T06:43:44.836Z</time></trkpt><trkpt lat="40.7987203" lon="17.1737923"><ele>420.0</ele><time>2026-04-07T06:43:46.839Z</time></trkpt><trkpt lat="40.7987005" lon="17.1739053"><ele>420.0</ele><time>2026-04-07T06:43:48.823Z</time></trkpt><trkpt lat="40.7986751" lon="17.1740266"><ele>420.0</ele><time>2026-04-07T06:43:50.833Z</time></trkpt><trkpt lat="40.7986624" lon="17.1741646"><ele>420.0</ele><time>2026-04-07T06:43:52.824Z</time></trkpt><trkpt lat="40.7986514" lon="17.1743042"><ele>420.0</ele><time>2026-04-07T06:43:54.832Z</time></trkpt><trkpt lat="40.7986461" lon="17.1744536"><ele>420.0</ele><time>2026-04-07T06:43:56.834Z</time></trkpt><trkpt lat="40.7986424" lon="17.1745984"><ele>420.0</ele><time>2026-04-07T06:43:58.841Z</time></trkpt><trkpt lat="40.7986454" lon="17.1747303"><ele>420.0</ele><time>2026-04-07T06:44:00.837Z</time></trkpt><trkpt lat="40.7986479" lon="17.1748581"><ele>419.85714285714283</ele><time>2026-04-07T06:44:02.84Z</time></trkpt><trkpt lat="40.7986478" lon="17.1749649"><ele>419.7142857142857</ele><time>2026-04-07T06:44:04.835Z</time></trkpt><trkpt lat="40.7986505" lon="17.175059"><ele>419.57142857142856</ele><time>2026-04-07T06:44:06.841Z</time></trkpt><trkpt lat="40.7986519" lon="17.1751579"><ele>419.42857142857144</ele><time>2026-04-07T06:44:08.83Z</time></trkpt><trkpt lat="40.7986488" lon="17.1752508"><ele>419.2857142857143</ele><time>2026-04-07T06:44:10.834Z</time></trkpt><trkpt lat="40.7986507" lon="17.1753351"><ele>419.1428571428571</ele><time>2026-04-07T06:44:12.829Z</time></trkpt><trkpt lat="40.7986532" lon="17.1754207"><ele>419.0</ele><time>2026-04-07T06:44:14.845Z</time></trkpt><trkpt lat="40.7986575" lon="17.1755311"><ele>418.99999999999994</ele><time>2026-04-07T06:44:17.835Z</time></trkpt><trkpt lat="40.7986678" lon="17.17564"><ele>419.0</ele><time>2026-04-07T06:44:20.832Z</time></trkpt><trkpt lat="40.7986845" lon="17.175748"><ele>419.0</ele><time>2026-04-07T06:44:23.834Z</time></trkpt><trkpt lat="40.7987029" lon="17.1758521"><ele>419.0</ele><time>2026-04-07T06:44:26.833Z</time></trkpt><trkpt lat="40.798727" lon="17.1759562"><ele>418.99999999999994</ele><time>2026-04-07T06:44:29.832Z</time></trkpt><trkpt lat="40.7987501" lon="17.176063"><ele>419.0</ele><time>2026-04-07T06:44:32.84Z</time></trkpt><trkpt lat="40.7987783" lon="17.1761714"><ele>419.16666666666663</ele><time>2026-04-07T06:44:35.835Z</time></trkpt><trkpt lat="40.7988067" lon="17.1762635"><ele>419.3333333333333</ele><time>2026-04-07T06:44:38.841Z</time></trkpt><trkpt lat="40.7988355" lon="17.1763658"><ele>419.5</ele><time>2026-04-07T06:44:41.843Z</time></trkpt><trkpt lat="40.7988621" lon="17.1764759"><ele>419.66666666666663</ele><time>2026-04-07T06:44:44.828Z</time></trkpt><trkpt lat="40.7988914" lon="17.1765798"><ele>419.8333333333333</ele><time>2026-04-07T06:44:47.828Z</time></trkpt><trkpt lat="40.7989245" lon="17.1766815"><ele>420.0</ele><time>2026-04-07T06:44:50.832Z</time></trkpt><trkpt lat="40.7989482" lon="17.1767898"><ele>420.1666666666667</ele><time>2026-04-07T06:44:53.841Z</time></trkpt><trkpt lat="40.79898" lon="17.1768982"><ele>420.33333333333337</ele><time>2026-04-07T06:44:56.829Z</time></trkpt><trkpt lat="40.7990051" lon="17.1769992"><ele>420.5</ele><time>2026-04-07T06:44:59.838Z</time></trkpt><trkpt lat="40.7990203" lon="17.1770862"><ele>420.6666666666667</ele><time>2026-04-07T06:45:02.828Z</time></trkpt><trkpt lat="40.7990465" lon="17.1771748"><ele>420.83333333333337</ele><time>2026-04-07T06:45:05.826Z</time></trkpt><trkpt lat="40.7990732" lon="17.1772637"><ele>421.0</ele><time>2026-04-07T06:45:08.843Z</time></trkpt><trkpt lat="40.799097" lon="17.1773551"><ele>421.42857142857144</ele><time>2026-04-07T06:45:11.833Z</time></trkpt><trkpt lat="40.7991196" lon="17.1774451"><ele>421.8571428571429</ele><time>2026-04-07T06:45:14.836Z</time></trkpt><trkpt lat="40.7991461" lon="17.1775315"><ele>422.28571428571433</ele><time>2026-04-07T06:45:17.829Z</time></trkpt><trkpt lat="40.79917" lon="17.1776224"><ele>422.7142857142857</ele><time>2026-04-07T06:45:20.812Z</time></trkpt><trkpt lat="40.7991891" lon="17.1777159"><ele>423.1428571428571</ele><time>2026-04-07T06:45:23.83Z</time></trkpt><trkpt lat="40.7992137" lon="17.177809"><ele>423.5714285714286</ele><time>2026-04-07T06:45:26.821Z</time></trkpt><trkpt lat="40.7992361" lon="17.1779144"><ele>424.0</ele><time>2026-04-07T06:45:30.811Z</time></trkpt><trkpt lat="40.7992568" lon="17.1779936"><ele>424.0</ele><time>2026-04-07T06:45:33.827Z</time></trkpt><trkpt lat="40.7992804" lon="17.1780774"><ele>424.0</ele><time>2026-04-07T06:45:36.82Z</time></trkpt><trkpt lat="40.7993026" lon="17.1781651"><ele>424.0</ele><time>2026-04-07T06:45:42.838Z</time></trkpt><trkpt lat="40.799318" lon="17.178259"><ele>424.0</ele><time>2026-04-07T06:45:47.83Z</time></trkpt><trkpt lat="40.7993473" lon="17.1783349"><ele>424.0</ele><time>2026-04-07T06:45:52.84Z</time></trkpt><trkpt lat="40.7993661" lon="17.1784175"><ele>424.0</ele><time>2026-04-07T06:45:58.82Z</time></trkpt><trkpt lat="40.7993997" lon="17.1783346"><ele>424.0</ele><time>2026-04-07T06:48:11.807Z</time></trkpt><trkpt lat="40.799414" lon="17.1784795"><ele>425.2857142857143</ele><time>2026-04-07T06:50:24.831Z</time></trkpt><trkpt lat="40.7994322" lon="17.178578"><ele>426.57142857142856</ele><time>2026-04-07T06:50:28.837Z</time></trkpt><trkpt lat="40.7994529" lon="17.17866"><ele>427.85714285714283</ele><time>2026-04-07T06:50:31.832Z</time></trkpt><trkpt lat="40.7994741" lon="17.1787483"><ele>429.1428571428571</ele><time>2026-04-07T06:50:34.826Z</time></trkpt><trkpt lat="40.7994885" lon="17.1788418"><ele>430.42857142857144</ele><time>2026-04-07T06:50:37.838Z</time></trkpt><trkpt lat="40.7995109" lon="17.1789232"><ele>431.71428571428567</ele><time>2026-04-07T06:50:40.837Z</time></trkpt><trkpt lat="40.7995456" lon="17.1790043"><ele>433.0</ele><time>2026-04-07T06:50:43.825Z</time></trkpt><trkpt lat="40.7995707" lon="17.17909"><ele>434.1428571428571</ele><time>2026-04-07T06:50:46.827Z</time></trkpt><trkpt lat="40.799604" lon="17.1791664"><ele>435.2857142857143</ele><time>2026-04-07T06:50:49.841Z</time></trkpt><trkpt lat="40.7996378" lon="17.1792649"><ele>436.42857142857144</ele><time>2026-04-07T06:50:53.817Z</time></trkpt><trkpt lat="40.7996681" lon="17.1793441"><ele>437.57142857142856</ele><time>2026-04-07T06:50:56.835Z</time></trkpt><trkpt lat="40.7997036" lon="17.1794207"><ele>438.7142857142857</ele><time>2026-04-07T06:51:00.833Z</time></trkpt><trkpt lat="40.7997323" lon="17.1795"><ele>439.85714285714283</ele><time>2026-04-07T06:51:05.823Z</time></trkpt><trkpt lat="40.7997645" lon="17.1795865"><ele>441.0</ele><time>2026-04-07T06:51:10.832Z</time></trkpt><trkpt lat="40.7997993" lon="17.1796592"><ele>441.0</ele><time>2026-04-07T06:51:14.825Z</time></trkpt><trkpt lat="40.7998344" lon="17.1797332"><ele>441.0</ele><time>2026-04-07T06:51:20.826Z</time></trkpt><trkpt lat="40.7998676" lon="17.1798074"><ele>441.0</ele><time>2026-04-07T06:51:25.836Z</time></trkpt><trkpt lat="40.7999032" lon="17.1798919"><ele>441.0</ele><time>2026-04-07T06:52:06.83Z</time></trkpt><trkpt lat="40.7999429" lon="17.1799572"><ele>441.0</ele><time>2026-04-07T06:52:17.828Z</time></trkpt><trkpt lat="40.7999763" lon="17.1800352"><ele>441.0</ele><time>2026-04-07T06:52:25.831Z</time></trkpt><trkpt lat="40.8000029" lon="17.1801113"><ele>441.0</ele><time>2026-04-07T06:52:32.81Z</time></trkpt><trkpt lat="40.8000416" lon="17.1801807"><ele>441.7142857142857</ele><time>2026-04-07T06:52:39.826Z</time></trkpt><trkpt lat="40.8000742" lon="17.1802638"><ele>442.42857142857144</ele><time>2026-04-07T06:52:45.823Z</time></trkpt><trkpt lat="40.8001189" lon="17.1803267"><ele>443.1428571428571</ele><time>2026-04-07T06:52:50.825Z</time></trkpt><trkpt lat="40.8001533" lon="17.1804003"><ele>443.8571428571429</ele><time>2026-04-07T06:52:55.821Z</time></trkpt><trkpt lat="40.8001948" lon="17.1804707"><ele>444.57142857142856</ele><time>2026-04-07T06:53:01.825Z</time></trkpt><trkpt lat="40.8002382" lon="17.180544"><ele>445.2857142857143</ele><time>2026-04-07T06:53:06.838Z</time></trkpt><trkpt lat="40.8002873" lon="17.1806024"><ele>446.0</ele><time>2026-04-07T06:53:11.824Z</time></trkpt><trkpt lat="40.8003236" lon="17.1806795"><ele>446.42857142857144</ele><time>2026-04-07T06:53:17.832Z</time></trkpt><trkpt lat="40.8003609" lon="17.1807517"><ele>446.85714285714283</ele><time>2026-04-07T06:53:22.832Z</time></trkpt><trkpt lat="40.8004022" lon="17.1808182"><ele>447.2857142857143</ele><time>2026-04-07T06:53:28.83Z</time></trkpt><trkpt lat="40.800447" lon="17.1808867"><ele>447.71428571428567</ele><time>2026-04-07T06:53:34.832Z</time></trkpt><trkpt lat="40.8004957" lon="17.1809555"><ele>448.1428571428571</ele><time>2026-04-07T06:53:40.82Z</time></trkpt><trkpt lat="40.800536" lon="17.1810201"><ele>448.57142857142856</ele><time>2026-04-07T06:53:45.827Z</time></trkpt><trkpt lat="40.8005865" lon="17.1810964"><ele>449.0</ele><time>2026-04-07T06:53:51.847Z</time></trkpt><trkpt lat="40.8006305" lon="17.1811732"><ele>449.0</ele><time>2026-04-07T06:53:57.85Z</time></trkpt><trkpt lat="40.8006778" lon="17.1812395"><ele>448.99999999999994</ele><time>2026-04-07T06:54:03.822Z</time></trkpt><trkpt lat="40.8007265" lon="17.1812929"><ele>449.0</ele><time>2026-04-07T06:54:08.827Z</time></trkpt><trkpt lat="40.8007753" lon="17.1813575"><ele>449.0</ele><time>2026-04-07T06:54:14.829Z</time></trkpt><trkpt lat="40.8008285" lon="17.1814231"><ele>448.99999999999994</ele><time>2026-04-07T06:54:20.845Z</time></trkpt><trkpt lat="40.8008681" lon="17.1814996"><ele>449.0</ele><time>2026-04-07T06:54:26.828Z</time></trkpt><trkpt lat="40.800895" lon="17.1815843"><ele>449.0</ele><time>2026-04-07T06:54:32.815Z</time></trkpt><trkpt lat="40.8009317" lon="17.1816671"><ele>449.4285714285714</ele><time>2026-04-07T06:54:38.847Z</time></trkpt><trkpt lat="40.8009604" lon="17.1817564"><ele>449.8571428571428</ele><time>2026-04-07T06:54:44.852Z</time></trkpt><trkpt lat="40.8009881" lon="17.1818529"><ele>450.2857142857143</ele><time>2026-04-07T06:54:49.914Z</time></trkpt><trkpt lat="40.801014" lon="17.1819471"><ele>450.71428571428567</ele><time>2026-04-07T06:54:55.821Z</time></trkpt><trkpt lat="40.8010315" lon="17.1820388"><ele>451.1428571428571</ele><time>2026-04-07T06:55:00.821Z</time></trkpt><trkpt lat="40.8010549" lon="17.1821315"><ele>451.57142857142856</ele><time>2026-04-07T06:55:05.816Z</time></trkpt><trkpt lat="40.8010724" lon="17.1822169"><ele>452.0</ele><time>2026-04-07T06:55:10.825Z</time></trkpt><trkpt lat="40.8010974" lon="17.1823002"><ele>452.16666666666663</ele><time>2026-04-07T06:55:15.814Z</time></trkpt><trkpt lat="40.8011178" lon="17.1823993"><ele>452.3333333333333</ele><time>2026-04-07T06:55:22.814Z</time></trkpt><trkpt lat="40.8011434" lon="17.1824897"><ele>452.5</ele><time>2026-04-07T06:55:25.818Z</time></trkpt><trkpt lat="40.8011771" lon="17.1825975"><ele>452.66666666666663</ele><time>2026-04-07T06:55:28.809Z</time></trkpt><trkpt lat="40.8012038" lon="17.1826955"><ele>452.8333333333333</ele><time>2026-04-07T06:55:31.81Z</time></trkpt><trkpt lat="40.8012209" lon="17.1828147"><ele>453.0</ele><time>2026-04-07T06:55:34.816Z</time></trkpt><trkpt lat="40.801232" lon="17.182898"><ele>453.0</ele><time>2026-04-07T06:55:36.829Z</time></trkpt><trkpt lat="40.8012476" lon="17.1830083"><ele>453.0</ele><time>2026-04-07T06:55:39.812Z</time></trkpt><trkpt lat="40.8012648" lon="17.1831179"><ele>453.0</ele><time>2026-04-07T06:55:42.812Z</time></trkpt><trkpt lat="40.8012861" lon="17.1832095"><ele>453.0</ele><time>2026-04-07T06:55:45.831Z</time></trkpt><trkpt lat="40.8013055" lon="17.1832898"><ele>453.0</ele><time>2026-04-07T06:55:49.842Z</time></trkpt><trkpt lat="40.8013099" lon="17.1834036"><ele>453.0</ele><time>2026-04-07T06:56:27.827Z</time></trkpt><trkpt lat="40.801337" lon="17.1834988"><ele>453.2857142857142</ele><time>2026-04-07T06:56:30.838Z</time></trkpt><trkpt lat="40.8013563" lon="17.1836066"><ele>453.57142857142856</ele><time>2026-04-07T06:56:33.822Z</time></trkpt><trkpt lat="40.801374" lon="17.1837062"><ele>453.85714285714283</ele><time>2026-04-07T06:56:36.834Z</time></trkpt><trkpt lat="40.8013587" lon="17.1837993"><ele>454.1428571428571</ele><time>2026-04-07T06:56:40.826Z</time></trkpt><trkpt lat="40.8013632" lon="17.1838859"><ele>454.42857142857144</ele><time>2026-04-07T06:57:22.839Z</time></trkpt><trkpt lat="40.8013745" lon="17.1839757"><ele>454.7142857142857</ele><time>2026-04-07T06:57:27.835Z</time></trkpt><trkpt lat="40.8013844" lon="17.184072"><ele>455.0</ele><time>2026-04-07T06:57:31.83Z</time></trkpt><trkpt lat="40.8013958" lon="17.1841649"><ele>455.16666666666663</ele><time>2026-04-07T06:57:34.831Z</time></trkpt><trkpt lat="40.8014055" lon="17.1842591"><ele>455.3333333333333</ele><time>2026-04-07T06:57:37.83Z</time></trkpt><trkpt lat="40.8014113" lon="17.18435"><ele>455.5</ele><time>2026-04-07T06:57:40.828Z</time></trkpt><trkpt lat="40.8014174" lon="17.1844552"><ele>455.66666666666663</ele><time>2026-04-07T06:57:43.828Z</time></trkpt><trkpt lat="40.801423" lon="17.1845635"><ele>455.8333333333333</ele><time>2026-04-07T06:57:46.837Z</time></trkpt><trkpt lat="40.801432" lon="17.1846649"><ele>456.0</ele><time>2026-04-07T06:57:49.832Z</time></trkpt><trkpt lat="40.8014493" lon="17.1847732"><ele>455.8333333333333</ele><time>2026-04-07T06:57:52.825Z</time></trkpt><trkpt lat="40.8014767" lon="17.18488"><ele>455.66666666666663</ele><time>2026-04-07T06:57:55.828Z</time></trkpt><trkpt lat="40.8015082" lon="17.1849681"><ele>455.5</ele><time>2026-04-07T06:57:58.821Z</time></trkpt><trkpt lat="40.8015526" lon="17.1850559"><ele>455.3333333333333</ele><time>2026-04-07T06:58:01.829Z</time></trkpt><trkpt lat="40.8016002" lon="17.1851397"><ele>455.16666666666663</ele><time>2026-04-07T06:58:04.833Z</time></trkpt><trkpt lat="40.8016461" lon="17.1852209"><ele>455.0</ele><time>2026-04-07T06:58:07.829Z</time></trkpt><trkpt lat="40.8017038" lon="17.1853002"><ele>454.99999999999994</ele><time>2026-04-07T06:58:10.846Z</time></trkpt><trkpt lat="40.8017724" lon="17.1853687"><ele>455.0</ele><time>2026-04-07T06:58:13.83Z</time></trkpt><trkpt lat="40.8018351" lon="17.1854234"><ele>455.0</ele><time>2026-04-07T06:58:16.831Z</time></trkpt><trkpt lat="40.801896" lon="17.1854821"><ele>455.0</ele><time>2026-04-07T06:58:19.837Z</time></trkpt><trkpt lat="40.8019501" lon="17.185559"><ele>454.99999999999994</ele><time>2026-04-07T06:58:22.824Z</time></trkpt><trkpt lat="40.8019992" lon="17.1856202"><ele>455.0</ele><time>2026-04-07T06:58:25.832Z</time></trkpt><trkpt lat="40.8020326" lon="17.1857023"><ele>454.2857142857143</ele><time>2026-04-07T06:58:28.829Z</time></trkpt><trkpt lat="40.8020624" lon="17.1857878"><ele>453.57142857142856</ele><time>2026-04-07T06:58:31.835Z</time></trkpt><trkpt lat="40.8020953" lon="17.1858796"><ele>452.8571428571429</ele><time>2026-04-07T06:58:34.823Z</time></trkpt><trkpt lat="40.8021374" lon="17.1859604"><ele>452.14285714285717</ele><time>2026-04-07T06:58:37.836Z</time></trkpt><trkpt lat="40.8021853" lon="17.1860327"><ele>451.42857142857144</ele><time>2026-04-07T06:58:40.824Z</time></trkpt><trkpt lat="40.8022449" lon="17.1860822"><ele>450.7142857142858</ele><time>2026-04-07T06:58:43.827Z</time></trkpt><trkpt lat="40.802313" lon="17.186142"><ele>450.00000000000006</ele><time>2026-04-07T06:58:46.824Z</time></trkpt><trkpt lat="40.8023625" lon="17.1861986"><ele>450.00000000000006</ele><time>2026-04-07T06:58:49.824Z</time></trkpt><trkpt lat="40.8024098" lon="17.1862734"><ele>450.0</ele><time>2026-04-07T06:58:52.83Z</time></trkpt><trkpt lat="40.8024596" lon="17.18634"><ele>450.00000000000006</ele><time>2026-04-07T06:58:55.819Z</time></trkpt><trkpt lat="40.8025069" lon="17.1864076"><ele>450.00000000000006</ele><time>2026-04-07T06:58:58.818Z</time></trkpt><trkpt lat="40.8025547" lon="17.1864956"><ele>450.0</ele><time>2026-04-07T06:59:01.813Z</time></trkpt><trkpt lat="40.8025948" lon="17.1865712"><ele>450.00000000000006</ele><time>2026-04-07T06:59:05.851Z</time></trkpt><trkpt lat="40.802649" lon="17.1866444"><ele>450.00000000000006</ele><time>2026-04-07T06:59:10.829Z</time></trkpt><trkpt lat="40.8027077" lon="17.1867192"><ele>449.28571428571433</ele><time>2026-04-07T06:59:14.822Z</time></trkpt><trkpt lat="40.8027459" lon="17.1867986"><ele>448.57142857142856</ele><time>2026-04-07T06:59:17.83Z</time></trkpt><trkpt lat="40.8027821" lon="17.1868729"><ele>447.8571428571429</ele><time>2026-04-07T06:59:20.827Z</time></trkpt><trkpt lat="40.8028053" lon="17.186968"><ele>447.14285714285717</ele><time>2026-04-07T06:59:24.831Z</time></trkpt><trkpt lat="40.8028313" lon="17.1870526"><ele>446.42857142857144</ele><time>2026-04-07T06:59:28.839Z</time></trkpt><trkpt lat="40.8028559" lon="17.1871361"><ele>445.7142857142857</ele><time>2026-04-07T06:59:32.825Z</time></trkpt><trkpt lat="40.8028805" lon="17.1872183"><ele>445.0</ele><time>2026-04-07T06:59:37.834Z</time></trkpt><trkpt lat="40.802908" lon="17.1872959"><ele>444.2857142857143</ele><time>2026-04-07T06:59:41.833Z</time></trkpt><trkpt lat="40.8029317" lon="17.1873772"><ele>443.57142857142856</ele><time>2026-04-07T06:59:45.828Z</time></trkpt><trkpt lat="40.8029485" lon="17.1874581"><ele>442.85714285714283</ele><time>2026-04-07T06:59:49.835Z</time></trkpt><trkpt lat="40.8029727" lon="17.1875474"><ele>442.1428571428571</ele><time>2026-04-07T06:59:54.826Z</time></trkpt><trkpt lat="40.8029854" lon="17.1876401"><ele>441.42857142857144</ele><time>2026-04-07T06:59:59.825Z</time></trkpt><trkpt lat="40.8030047" lon="17.1877297"><ele>440.71428571428567</ele><time>2026-04-07T07:00:04.831Z</time></trkpt><trkpt lat="40.8030119" lon="17.1878141"><ele>440.0</ele><time>2026-04-07T07:00:09.82Z</time></trkpt><trkpt lat="40.8030246" lon="17.1879083"><ele>439.99999999999994</ele><time>2026-04-07T07:00:13.828Z</time></trkpt><trkpt lat="40.8030444" lon="17.1880045"><ele>440.0</ele><time>2026-04-07T07:00:18.822Z</time></trkpt><trkpt lat="40.8030503" lon="17.188092"><ele>440.0</ele><time>2026-04-07T07:00:22.826Z</time></trkpt><trkpt lat="40.8030643" lon="17.1881807"><ele>440.0</ele><time>2026-04-07T07:00:26.833Z</time></trkpt><trkpt lat="40.8030929" lon="17.1882741"><ele>440.0</ele><time>2026-04-07T07:00:32.84Z</time></trkpt><trkpt lat="40.8031201" lon="17.1883645"><ele>439.99999999999994</ele><time>2026-04-07T07:00:37.828Z</time></trkpt><trkpt lat="40.8031613" lon="17.1884374"><ele>440.0</ele><time>2026-04-07T07:00:42.824Z</time></trkpt><trkpt lat="40.8031835" lon="17.1885346"><ele>439.2857142857143</ele><time>2026-04-07T07:00:47.828Z</time></trkpt><trkpt lat="40.8032199" lon="17.1886133"><ele>438.57142857142856</ele><time>2026-04-07T07:00:52.825Z</time></trkpt><trkpt lat="40.8032542" lon="17.1887216"><ele>437.8571428571429</ele><time>2026-04-07T07:00:56.826Z</time></trkpt><trkpt lat="40.8032745" lon="17.1888148"><ele>437.1428571428571</ele><time>2026-04-07T07:00:59.831Z</time></trkpt><trkpt lat="40.8032957" lon="17.1888935"><ele>436.42857142857144</ele><time>2026-04-07T07:01:02.834Z</time></trkpt><trkpt lat="40.8033218" lon="17.1889911"><ele>435.7142857142857</ele><time>2026-04-07T07:01:07.834Z</time></trkpt><trkpt lat="40.8033508" lon="17.1890801"><ele>435.0</ele><time>2026-04-07T07:01:16.818Z</time></trkpt><trkpt lat="40.803378" lon="17.1891823"><ele>434.6666666666667</ele><time>2026-04-07T07:01:19.829Z</time></trkpt><trkpt lat="40.803403" lon="17.1892961"><ele>434.33333333333337</ele><time>2026-04-07T07:01:22.83Z</time></trkpt><trkpt lat="40.8034272" lon="17.1893867"><ele>434.0</ele><time>2026-04-07T07:01:25.828Z</time></trkpt><trkpt lat="40.8034356" lon="17.1894739"><ele>433.6666666666667</ele><time>2026-04-07T07:01:34.82Z</time></trkpt><trkpt lat="40.8034561" lon="17.1895601"><ele>433.33333333333337</ele><time>2026-04-07T07:01:47.825Z</time></trkpt><trkpt lat="40.8034725" lon="17.1896419"><ele>433.0</ele><time>2026-04-07T07:02:02.841Z</time></trkpt><trkpt lat="40.803592" lon="17.1899214"><ele>433.99999999999994</ele><time>2026-04-07T07:06:13.797Z</time></trkpt><trkpt lat="40.8035898" lon="17.1900063"><ele>435.0</ele><time>2026-04-07T07:06:20.816Z</time></trkpt><trkpt lat="40.8036029" lon="17.1900936"><ele>436.0</ele><time>2026-04-07T07:06:30.811Z</time></trkpt><trkpt lat="40.8036078" lon="17.190186"><ele>437.0</ele><time>2026-04-07T07:06:45.81Z</time></trkpt><trkpt lat="40.8036593" lon="17.1902576"><ele>438.0</ele><time>2026-04-07T07:07:18.8Z</time></trkpt><trkpt lat="40.8036623" lon="17.1903487"><ele>438.99999999999994</ele><time>2026-04-07T07:07:36.812Z</time></trkpt><trkpt lat="40.8036357" lon="17.1904261"><ele>440.0</ele><time>2026-04-07T07:07:46.807Z</time></trkpt><trkpt lat="40.8035847" lon="17.1904876"><ele>439.99999999999994</ele><time>2026-04-07T07:07:53.807Z</time></trkpt><trkpt lat="40.8035525" lon="17.1905642"><ele>440.0</ele><time>2026-04-07T07:08:32.806Z</time></trkpt><trkpt lat="40.8035197" lon="17.1906457"><ele>440.0</ele><time>2026-04-07T07:08:47.815Z</time></trkpt><trkpt lat="40.8034783" lon="17.1907087"><ele>440.0</ele><time>2026-04-07T07:08:55.817Z</time></trkpt><trkpt lat="40.8034773" lon="17.1907983"><ele>440.0</ele><time>2026-04-07T07:09:01.822Z</time></trkpt><trkpt lat="40.8034746" lon="17.1908814"><ele>439.99999999999994</ele><time>2026-04-07T07:09:07.81Z</time></trkpt><trkpt lat="40.8034828" lon="17.1909672"><ele>440.0</ele><time>2026-04-07T07:09:14.814Z</time></trkpt><trkpt lat="40.8035282" lon="17.1910444"><ele>439.1428571428571</ele><time>2026-04-07T07:09:25.814Z</time></trkpt><trkpt lat="40.8035956" lon="17.1910837"><ele>438.2857142857143</ele><time>2026-04-07T07:09:30.816Z</time></trkpt><trkpt lat="40.8036505" lon="17.1911335"><ele>437.42857142857144</ele><time>2026-04-07T07:09:35.814Z</time></trkpt><trkpt lat="40.8036689" lon="17.1912298"><ele>436.57142857142856</ele><time>2026-04-07T07:09:40.804Z</time></trkpt><trkpt lat="40.8036588" lon="17.1913123"><ele>435.7142857142857</ele><time>2026-04-07T07:09:45.802Z</time></trkpt><trkpt lat="40.8036592" lon="17.1914155"><ele>434.85714285714283</ele><time>2026-04-07T07:09:52.811Z</time></trkpt><trkpt lat="40.8036506" lon="17.1915024"><ele>434.0</ele><time>2026-04-07T07:09:56.808Z</time></trkpt><trkpt lat="40.8036492" lon="17.1915958"><ele>433.2857142857143</ele><time>2026-04-07T07:10:02.801Z</time></trkpt><trkpt lat="40.8036423" lon="17.1916827"><ele>432.57142857142856</ele><time>2026-04-07T07:10:07.812Z</time></trkpt><trkpt lat="40.8036589" lon="17.1917747"><ele>431.8571428571429</ele><time>2026-04-07T07:10:31.817Z</time></trkpt><trkpt lat="40.8036709" lon="17.1918573"><ele>431.1428571428571</ele><time>2026-04-07T07:10:34.803Z</time></trkpt><trkpt lat="40.8036664" lon="17.1919625"><ele>430.42857142857144</ele><time>2026-04-07T07:10:40.812Z</time></trkpt><trkpt lat="40.8036665" lon="17.1920537"><ele>429.7142857142857</ele><time>2026-04-07T07:10:43.809Z</time></trkpt><trkpt lat="40.8036785" lon="17.1921384"><ele>429.0</ele><time>2026-04-07T07:10:46.809Z</time></trkpt><trkpt lat="40.8036885" lon="17.1922234"><ele>429.0</ele><time>2026-04-07T07:10:51.813Z</time></trkpt><trkpt lat="40.8037296" lon="17.1923051"><ele>429.0</ele><time>2026-04-07T07:10:56.811Z</time></trkpt><trkpt lat="40.8037738" lon="17.1923741"><ele>429.0</ele><time>2026-04-07T07:11:02.815Z</time></trkpt><trkpt lat="40.8038261" lon="17.192432"><ele>429.0</ele><time>2026-04-07T07:11:05.807Z</time></trkpt><trkpt lat="40.803866" lon="17.1925089"><ele>429.0</ele><time>2026-04-07T07:11:10.814Z</time></trkpt><trkpt lat="40.8038956" lon="17.1925882"><ele>429.0</ele><time>2026-04-07T07:11:32.808Z</time></trkpt><trkpt lat="40.8039285" lon="17.1926646"><ele>429.0</ele><time>2026-04-07T07:11:37.787Z</time></trkpt><trkpt lat="40.8039819" lon="17.1927157"><ele>428.7142857142857</ele><time>2026-04-07T07:11:43.813Z</time></trkpt><trkpt lat="40.8040088" lon="17.192795"><ele>428.42857142857144</ele><time>2026-04-07T07:11:55.825Z</time></trkpt><trkpt lat="40.8040163" lon="17.1928812"><ele>428.1428571428571</ele><time>2026-04-07T07:12:01.816Z</time></trkpt><trkpt lat="40.8040423" lon="17.192961"><ele>427.8571428571429</ele><time>2026-04-07T07:12:18.808Z</time></trkpt><trkpt lat="40.8040432" lon="17.1930486"><ele>427.57142857142856</ele><time>2026-04-07T07:12:44.818Z</time></trkpt><trkpt lat="40.8040598" lon="17.193129"><ele>427.2857142857143</ele><time>2026-04-07T07:12:54.811Z</time></trkpt><trkpt lat="40.8040839" lon="17.1932082"><ele>427.0</ele><time>2026-04-07T07:13:02.8Z</time></trkpt><trkpt lat="40.8040803" lon="17.1932918"><ele>426.85714285714283</ele><time>2026-04-07T07:13:08.817Z</time></trkpt><trkpt lat="40.804073" lon="17.1933786"><ele>426.7142857142857</ele><time>2026-04-07T07:13:16.807Z</time></trkpt><trkpt lat="40.8041043" lon="17.1934551"><ele>426.57142857142856</ele><time>2026-04-07T07:13:37.804Z</time></trkpt><trkpt lat="40.8041565" lon="17.1935107"><ele>426.42857142857144</ele><time>2026-04-07T07:13:45.811Z</time></trkpt><trkpt lat="40.8042185" lon="17.1935273"><ele>426.2857142857143</ele><time>2026-04-07T07:13:52.806Z</time></trkpt><trkpt lat="40.8042845" lon="17.1935521"><ele>426.1428571428571</ele><time>2026-04-07T07:13:59.812Z</time></trkpt><trkpt lat="40.8043493" lon="17.1935914"><ele>426.0</ele><time>2026-04-07T07:14:03.809Z</time></trkpt><trkpt lat="40.8044259" lon="17.1936308"><ele>425.99999999999994</ele><time>2026-04-07T07:14:07.817Z</time></trkpt><trkpt lat="40.8044949" lon="17.1936445"><ele>426.0</ele><time>2026-04-07T07:14:10.799Z</time></trkpt><trkpt lat="40.8045744" lon="17.1936487"><ele>426.0</ele><time>2026-04-07T07:14:13.797Z</time></trkpt><trkpt lat="40.8046348" lon="17.1936741"><ele>426.0</ele><time>2026-04-07T07:14:18.805Z</time></trkpt><trkpt lat="40.8047018" lon="17.1937075"><ele>426.0</ele><time>2026-04-07T07:14:23.808Z</time></trkpt><trkpt lat="40.8047673" lon="17.193697"><ele>425.99999999999994</ele><time>2026-04-07T07:15:07.8Z</time></trkpt><trkpt lat="40.8047304" lon="17.1937696"><ele>426.0</ele><time>2026-04-07T07:19:54.78Z</time></trkpt><trkpt lat="40.8047172" lon="17.1938569"><ele>425.99999999999994</ele><time>2026-04-07T07:20:05.785Z</time></trkpt><trkpt lat="40.8046691" lon="17.1939158"><ele>426.0</ele><time>2026-04-07T07:20:12.775Z</time></trkpt><trkpt lat="40.8046135" lon="17.1939701"><ele>426.0</ele><time>2026-04-07T07:20:18.778Z</time></trkpt><trkpt lat="40.8045602" lon="17.194019"><ele>426.0</ele><time>2026-04-07T07:20:27.784Z</time></trkpt><trkpt lat="40.804511" lon="17.1940763"><ele>426.0</ele><time>2026-04-07T07:20:36.791Z</time></trkpt><trkpt lat="40.8044773" lon="17.1941467"><ele>425.99999999999994</ele><time>2026-04-07T07:20:43.793Z</time></trkpt><trkpt lat="40.804434" lon="17.1942104"><ele>426.0</ele><time>2026-04-07T07:20:51.783Z</time></trkpt><trkpt lat="40.8043944" lon="17.1942828"><ele>424.85714285714283</ele><time>2026-04-07T07:20:58.789Z</time></trkpt><trkpt lat="40.8043623" lon="17.194355"><ele>423.7142857142857</ele><time>2026-04-07T07:21:03.814Z</time></trkpt><trkpt lat="40.8043865" lon="17.1944328"><ele>422.57142857142856</ele><time>2026-04-07T07:21:10.775Z</time></trkpt><trkpt lat="40.8044457" lon="17.1944715"><ele>421.42857142857144</ele><time>2026-04-07T07:21:15.782Z</time></trkpt><trkpt lat="40.8044942" lon="17.1945348"><ele>420.2857142857143</ele><time>2026-04-07T07:21:21.788Z</time></trkpt><trkpt lat="40.8045277" lon="17.1946077"><ele>419.1428571428571</ele><time>2026-04-07T07:21:25.797Z</time></trkpt><trkpt lat="40.8045598" lon="17.1946847"><ele>418.0</ele><time>2026-04-07T07:21:30.798Z</time></trkpt><trkpt lat="40.804573" lon="17.194774"><ele>416.7142857142857</ele><time>2026-04-07T07:21:36.789Z</time></trkpt><trkpt lat="40.804612" lon="17.1948598"><ele>415.42857142857144</ele><time>2026-04-07T07:21:42.793Z</time></trkpt><trkpt lat="40.8046736" lon="17.1949019"><ele>414.1428571428571</ele><time>2026-04-07T07:21:48.795Z</time></trkpt><trkpt lat="40.8047221" lon="17.1949828"><ele>412.8571428571429</ele><time>2026-04-07T07:22:03.782Z</time></trkpt><trkpt lat="40.8047608" lon="17.195065"><ele>411.5714285714286</ele><time>2026-04-07T07:22:07.79Z</time></trkpt><trkpt lat="40.8048047" lon="17.1951434"><ele>410.2857142857143</ele><time>2026-04-07T07:22:11.786Z</time></trkpt><trkpt lat="40.8048642" lon="17.1951772"><ele>409.0</ele><time>2026-04-07T07:22:15.79Z</time></trkpt><trkpt lat="40.8049215" lon="17.19522"><ele>409.00000000000006</ele><time>2026-04-07T07:22:18.788Z</time></trkpt><trkpt lat="40.8049864" lon="17.1952624"><ele>409.0</ele><time>2026-04-07T07:22:21.785Z</time></trkpt><trkpt lat="40.8049994" lon="17.1953604"><ele>409.0</ele><time>2026-04-07T07:22:33.779Z</time></trkpt><trkpt lat="40.8049544" lon="17.1954449"><ele>409.0</ele><time>2026-04-07T07:22:36.79Z</time></trkpt><trkpt lat="40.804922" lon="17.1955233"><ele>409.00000000000006</ele><time>2026-04-07T07:22:38.803Z</time></trkpt><trkpt lat="40.8048764" lon="17.1956075"><ele>409.0</ele><time>2026-04-07T07:22:40.79Z</time></trkpt><trkpt lat="40.804851" lon="17.1957446"><ele>407.6666666666667</ele><time>2026-04-07T07:22:42.796Z</time></trkpt><trkpt lat="40.8048259" lon="17.195902"><ele>406.33333333333337</ele><time>2026-04-07T07:22:44.779Z</time></trkpt><trkpt lat="40.8048152" lon="17.1959924"><ele>405.0</ele><time>2026-04-07T07:22:45.791Z</time></trkpt><trkpt lat="40.8048072" lon="17.1960836"><ele>403.66666666666663</ele><time>2026-04-07T07:22:46.775Z</time></trkpt><trkpt lat="40.804802" lon="17.1961889"><ele>402.3333333333333</ele><time>2026-04-07T07:22:47.786Z</time></trkpt><trkpt lat="40.8047994" lon="17.196298"><ele>401.0</ele><time>2026-04-07T07:22:48.782Z</time></trkpt><trkpt lat="40.804796" lon="17.1964063"><ele>399.49999999999994</ele><time>2026-04-07T07:22:49.786Z</time></trkpt><trkpt lat="40.8047912" lon="17.196517"><ele>398.0</ele><time>2026-04-07T07:22:50.778Z</time></trkpt><trkpt lat="40.8047891" lon="17.1966288"><ele>396.5</ele><time>2026-04-07T07:22:51.785Z</time></trkpt><trkpt lat="40.8047861" lon="17.1967428"><ele>395.0</ele><time>2026-04-07T07:22:52.793Z</time></trkpt><trkpt lat="40.8047889" lon="17.1968588"><ele>393.49999999999994</ele><time>2026-04-07T07:22:53.782Z</time></trkpt><trkpt lat="40.8048054" lon="17.1969661"><ele>392.0</ele><time>2026-04-07T07:22:54.779Z</time></trkpt><trkpt lat="40.8048274" lon="17.1970808"><ele>392.0</ele><time>2026-04-07T07:22:55.787Z</time></trkpt><trkpt lat="40.8048518" lon="17.1971867"><ele>392.0</ele><time>2026-04-07T07:22:56.784Z</time></trkpt><trkpt lat="40.8048765" lon="17.1972874"><ele>392.0</ele><time>2026-04-07T07:22:57.782Z</time></trkpt><trkpt lat="40.8048987" lon="17.19738"><ele>392.0</ele><time>2026-04-07T07:22:59.784Z</time></trkpt><trkpt lat="40.8049186" lon="17.1972916"><ele>392.0</ele><time>2026-04-07T07:23:08.786Z</time></trkpt><trkpt lat="40.8048951" lon="17.1973753"><ele>392.0</ele><time>2026-04-07T07:23:13.786Z</time></trkpt><trkpt lat="40.8049113" lon="17.1974577"><ele>392.0</ele><time>2026-04-07T07:23:15.797Z</time></trkpt><trkpt lat="40.8049316" lon="17.1975459"><ele>391.49999999999994</ele><time>2026-04-07T07:23:18.781Z</time></trkpt><trkpt lat="40.8049559" lon="17.1976227"><ele>391.0</ele><time>2026-04-07T07:23:25.799Z</time></trkpt><trkpt lat="40.8049899" lon="17.1977189"><ele>390.5</ele><time>2026-04-07T07:23:27.783Z</time></trkpt><trkpt lat="40.8050313" lon="17.1978228"><ele>390.0</ele><time>2026-04-07T07:23:29.79Z</time></trkpt><trkpt lat="40.8050673" lon="17.1979286"><ele>389.49999999999994</ele><time>2026-04-07T07:23:31.798Z</time></trkpt><trkpt lat="40.8051052" lon="17.1980389"><ele>389.0</ele><time>2026-04-07T07:23:33.789Z</time></trkpt><trkpt lat="40.8051543" lon="17.1981621"><ele>386.75</ele><time>2026-04-07T07:23:35.787Z</time></trkpt><trkpt lat="40.8051989" lon="17.1982828"><ele>384.5</ele><time>2026-04-07T07:23:37.785Z</time></trkpt><trkpt lat="40.8052595" lon="17.1984136"><ele>382.25</ele><time>2026-04-07T07:23:39.79Z</time></trkpt><trkpt lat="40.8053105" lon="17.1985462"><ele>380.0</ele><time>2026-04-07T07:23:41.792Z</time></trkpt><trkpt lat="40.8053673" lon="17.1986893"><ele>380.0</ele><time>2026-04-07T07:23:43.793Z</time></trkpt><trkpt lat="40.8054263" lon="17.1988335"><ele>380.0</ele><time>2026-04-07T07:23:45.793Z</time></trkpt><trkpt lat="40.8054628" lon="17.198908"><ele>380.0</ele><time>2026-04-07T07:23:46.793Z</time></trkpt><trkpt lat="40.8054915" lon="17.1989825"><ele>380.0</ele><time>2026-04-07T07:23:47.788Z</time></trkpt><trkpt lat="40.805521" lon="17.1990591"><ele>380.0</ele><time>2026-04-07T07:23:48.793Z</time></trkpt><trkpt lat="40.8055813" lon="17.1991998"><ele>380.0</ele><time>2026-04-07T07:23:50.784Z</time></trkpt><trkpt lat="40.8056312" lon="17.1993308"><ele>380.0</ele><time>2026-04-07T07:23:52.781Z</time></trkpt><trkpt lat="40.8056791" lon="17.1994491"><ele>380.0</ele><time>2026-04-07T07:23:54.783Z</time></trkpt><trkpt lat="40.8057096" lon="17.1995497"><ele>380.0</ele><time>2026-04-07T07:23:56.775Z</time></trkpt><trkpt lat="40.8056905" lon="17.1996635"><ele>380.0</ele><time>2026-04-07T07:23:59.792Z</time></trkpt><trkpt lat="40.8056247" lon="17.1997115"><ele>380.0</ele><time>2026-04-07T07:24:02.794Z</time></trkpt><trkpt lat="40.8055527" lon="17.1997407"><ele>380.0</ele><time>2026-04-07T07:24:05.782Z</time></trkpt><trkpt lat="40.8054625" lon="17.1997448"><ele>380.0</ele><time>2026-04-07T07:24:08.791Z</time></trkpt><trkpt lat="40.8053917" lon="17.1997167"><ele>380.0</ele><time>2026-04-07T07:24:11.784Z</time></trkpt><trkpt lat="40.8053308" lon="17.1996693"><ele>380.0</ele><time>2026-04-07T07:24:14.792Z</time></trkpt><trkpt lat="40.8052441" lon="17.1996263"><ele>380.0</ele><time>2026-04-07T07:24:17.785Z</time></trkpt><trkpt lat="40.8051522" lon="17.19963"><ele>380.0</ele><time>2026-04-07T07:24:20.786Z</time></trkpt><trkpt lat="40.8050787" lon="17.1996963"><ele>380.0</ele><time>2026-04-07T07:24:23.791Z</time></trkpt><trkpt lat="40.8050574" lon="17.1997833"><ele>381.0</ele><time>2026-04-07T07:24:25.789Z</time></trkpt><trkpt lat="40.8050461" lon="17.1998739"><ele>382.0</ele><time>2026-04-07T07:24:27.787Z</time></trkpt><trkpt lat="40.8050488" lon="17.2000019"><ele>383.0</ele><time>2026-04-07T07:24:30.794Z</time></trkpt><trkpt lat="40.8050472" lon="17.2001176"><ele>384.0</ele><time>2026-04-07T07:24:33.793Z</time></trkpt><trkpt lat="40.8050045" lon="17.2003067"><ele>385.0</ele><time>2026-04-07T07:25:37.789Z</time></trkpt><trkpt lat="40.8049632" lon="17.2004014"><ele>385.0</ele><time>2026-04-07T07:25:42.798Z</time></trkpt><trkpt lat="40.804918" lon="17.200501"><ele>385.0</ele><time>2026-04-07T07:25:45.796Z</time></trkpt><trkpt lat="40.8048922" lon="17.2006052"><ele>385.0</ele><time>2026-04-07T07:25:48.784Z</time></trkpt><trkpt lat="40.8048677" lon="17.2006891"><ele>385.0</ele><time>2026-04-07T07:26:09.8Z</time></trkpt><trkpt lat="40.8048508" lon="17.2007772"><ele>385.0</ele><time>2026-04-07T07:26:15.794Z</time></trkpt><trkpt lat="40.804829" lon="17.2008704"><ele>385.0</ele><time>2026-04-07T07:26:20.802Z</time></trkpt><trkpt lat="40.8048066" lon="17.2009487"><ele>385.0</ele><time>2026-04-07T07:26:29.781Z</time></trkpt><trkpt lat="40.8048205" lon="17.2010553"><ele>385.6666666666667</ele><time>2026-04-07T07:26:33.806Z</time></trkpt><trkpt lat="40.804865" lon="17.2011414"><ele>386.33333333333337</ele><time>2026-04-07T07:26:36.806Z</time></trkpt><trkpt lat="40.8049018" lon="17.201253"><ele>387.0</ele><time>2026-04-07T07:26:39.782Z</time></trkpt><trkpt lat="40.8049277" lon="17.201354"><ele>387.66666666666663</ele><time>2026-04-07T07:26:42.814Z</time></trkpt><trkpt lat="40.8048974" lon="17.2014329"><ele>388.3333333333333</ele><time>2026-04-07T07:26:45.802Z</time></trkpt><trkpt lat="40.8048203" lon="17.2014585"><ele>389.0</ele><time>2026-04-07T07:26:58.804Z</time></trkpt><trkpt lat="40.8047518" lon="17.2014579"><ele>389.0</ele><time>2026-04-07T07:27:01.805Z</time></trkpt><trkpt lat="40.8046854" lon="17.2014621"><ele>389.0</ele><time>2026-04-07T07:27:04.809Z</time></trkpt><trkpt lat="40.8046161" lon="17.2014797"><ele>389.0</ele><time>2026-04-07T07:27:07.794Z</time></trkpt><trkpt lat="40.8045516" lon="17.2015009"><ele>389.0</ele><time>2026-04-07T07:27:10.949Z</time></trkpt><trkpt lat="40.8044874" lon="17.2015294"><ele>389.0</ele><time>2026-04-07T07:27:13.784Z</time></trkpt><trkpt lat="40.8044203" lon="17.2015712"><ele>389.0</ele><time>2026-04-07T07:27:17.809Z</time></trkpt><trkpt lat="40.8043511" lon="17.2016702"><ele>389.0</ele><time>2026-04-07T07:27:22.798Z</time></trkpt><trkpt lat="40.8043374" lon="17.201786"><ele>389.3333333333333</ele><time>2026-04-07T07:27:25.811Z</time></trkpt><trkpt lat="40.8043319" lon="17.2019086"><ele>389.66666666666663</ele><time>2026-04-07T07:27:28.802Z</time></trkpt><trkpt lat="40.8043174" lon="17.2020147"><ele>390.0</ele><time>2026-04-07T07:27:31.792Z</time></trkpt><trkpt lat="40.8043047" lon="17.2021283"><ele>390.33333333333337</ele><time>2026-04-07T07:27:34.785Z</time></trkpt><trkpt lat="40.8042921" lon="17.2022104"><ele>390.6666666666667</ele><time>2026-04-07T07:27:37.795Z</time></trkpt><trkpt lat="40.804275" lon="17.2023078"><ele>391.0</ele><time>2026-04-07T07:27:40.795Z</time></trkpt><trkpt lat="40.8042783" lon="17.2024073"><ele>391.20000000000005</ele><time>2026-04-07T07:27:43.806Z</time></trkpt><trkpt lat="40.804275" lon="17.2025075"><ele>391.40000000000003</ele><time>2026-04-07T07:27:46.795Z</time></trkpt><trkpt lat="40.8042805" lon="17.2025999"><ele>391.6</ele><time>2026-04-07T07:27:49.803Z</time></trkpt><trkpt lat="40.8042784" lon="17.2026963"><ele>391.8</ele><time>2026-04-07T07:27:53.808Z</time></trkpt><trkpt lat="40.8042757" lon="17.2027863"><ele>392.0</ele><time>2026-04-07T07:28:30.793Z</time></trkpt><trkpt lat="40.8043415" lon="17.2030987"><ele>392.16666666666663</ele><time>2026-04-07T07:30:18.795Z</time></trkpt><trkpt lat="40.8043709" lon="17.2032111"><ele>392.3333333333333</ele><time>2026-04-07T07:30:21.792Z</time></trkpt><trkpt lat="40.8043962" lon="17.2033092"><ele>392.5</ele><time>2026-04-07T07:30:24.785Z</time></trkpt><trkpt lat="40.8044347" lon="17.203402"><ele>392.66666666666663</ele><time>2026-04-07T07:30:27.785Z</time></trkpt><trkpt lat="40.8044737" lon="17.2035074"><ele>392.8333333333333</ele><time>2026-04-07T07:30:30.786Z</time></trkpt><trkpt lat="40.8045031" lon="17.2036051"><ele>393.0</ele><time>2026-04-07T07:30:33.775Z</time></trkpt><trkpt lat="40.8045217" lon="17.2036864"><ele>393.00000000000006</ele><time>2026-04-07T07:30:35.798Z</time></trkpt><trkpt lat="40.8045494" lon="17.2037682"><ele>393.0</ele><time>2026-04-07T07:30:37.797Z</time></trkpt><trkpt lat="40.8045491" lon="17.2038546"><ele>393.0</ele><time>2026-04-07T07:30:39.782Z</time></trkpt><trkpt lat="40.8045474" lon="17.2039386"><ele>393.0</ele><time>2026-04-07T07:30:41.791Z</time></trkpt><trkpt lat="40.8045413" lon="17.2040217"><ele>393.0</ele><time>2026-04-07T07:30:43.776Z</time></trkpt><trkpt lat="40.8045302" lon="17.2041383"><ele>393.00000000000006</ele><time>2026-04-07T07:30:46.791Z</time></trkpt><trkpt lat="40.804522" lon="17.2042211"><ele>393.0</ele><time>2026-04-07T07:30:48.782Z</time></trkpt><trkpt lat="40.8045148" lon="17.204305"><ele>392.6666666666667</ele><time>2026-04-07T07:30:50.786Z</time></trkpt><trkpt lat="40.8045148" lon="17.2043968"><ele>392.33333333333337</ele><time>2026-04-07T07:30:52.807Z</time></trkpt><trkpt lat="40.8045262" lon="17.2045026"><ele>392.0</ele><time>2026-04-07T07:30:54.784Z</time></trkpt><trkpt lat="40.8045253" lon="17.2046323"><ele>391.6666666666667</ele><time>2026-04-07T07:30:56.782Z</time></trkpt><trkpt lat="40.8045209" lon="17.2047531"><ele>391.33333333333337</ele><time>2026-04-07T07:30:58.781Z</time></trkpt><trkpt lat="40.8045109" lon="17.2048785"><ele>391.0</ele><time>2026-04-07T07:31:00.783Z</time></trkpt><trkpt lat="40.8044971" lon="17.2050032"><ele>390.33333333333337</ele><time>2026-04-07T07:31:02.802Z</time></trkpt><trkpt lat="40.8044856" lon="17.2051223"><ele>389.6666666666667</ele><time>2026-04-07T07:31:04.764Z</time></trkpt><trkpt lat="40.8044851" lon="17.2052223"><ele>389.0</ele><time>2026-04-07T07:31:06.778Z</time></trkpt><trkpt lat="40.8044928" lon="17.2053144"><ele>388.33333333333337</ele><time>2026-04-07T07:31:08.79Z</time></trkpt><trkpt lat="40.8044955" lon="17.2054207"><ele>387.6666666666667</ele><time>2026-04-07T07:31:11.786Z</time></trkpt><trkpt lat="40.8044719" lon="17.2055387"><ele>387.0</ele><time>2026-04-07T07:32:11.801Z</time></trkpt><trkpt lat="40.8044499" lon="17.2056196"><ele>386.5</ele><time>2026-04-07T07:32:14.793Z</time></trkpt><trkpt lat="40.8044133" lon="17.2057122"><ele>386.0</ele><time>2026-04-07T07:32:17.791Z</time></trkpt><trkpt lat="40.8043873" lon="17.20579"><ele>385.5</ele><time>2026-04-07T07:32:19.766Z</time></trkpt><trkpt lat="40.8043574" lon="17.2058757"><ele>385.0</ele><time>2026-04-07T07:32:21.806Z</time></trkpt><trkpt lat="40.8043272" lon="17.2059759"><ele>384.5</ele><time>2026-04-07T07:32:23.791Z</time></trkpt><trkpt lat="40.8043048" lon="17.2060793"><ele>384.0</ele><time>2026-04-07T07:32:25.786Z</time></trkpt><trkpt lat="40.8042875" lon="17.2061868"><ele>385.1666666666667</ele><time>2026-04-07T07:32:27.798Z</time></trkpt><trkpt lat="40.804248" lon="17.2062875"><ele>386.33333333333337</ele><time>2026-04-07T07:32:29.791Z</time></trkpt><trkpt lat="40.8042043" lon="17.2063782"><ele>387.5</ele><time>2026-04-07T07:32:31.788Z</time></trkpt><trkpt lat="40.8041632" lon="17.2064666"><ele>388.6666666666667</ele><time>2026-04-07T07:32:33.79Z</time></trkpt><trkpt lat="40.804134" lon="17.2065554"><ele>389.83333333333337</ele><time>2026-04-07T07:32:35.786Z</time></trkpt><trkpt lat="40.804107" lon="17.2066334"><ele>391.0</ele><time>2026-04-07T07:32:37.779Z</time></trkpt><trkpt lat="40.8040898" lon="17.2067421"><ele>391.0</ele><time>2026-04-07T07:32:40.787Z</time></trkpt><trkpt lat="40.8041128" lon="17.2068682"><ele>391.0</ele><time>2026-04-07T07:32:43.793Z</time></trkpt><trkpt lat="40.8041437" lon="17.2069797"><ele>391.0</ele><time>2026-04-07T07:32:45.784Z</time></trkpt><trkpt lat="40.8041391" lon="17.2070984"><ele>391.0</ele><time>2026-04-07T07:32:47.79Z</time></trkpt><trkpt lat="40.8041346" lon="17.207221"><ele>391.0</ele><time>2026-04-07T07:32:49.799Z</time></trkpt><trkpt lat="40.8041169" lon="17.2073292"><ele>390.50000000000006</ele><time>2026-04-07T07:32:51.779Z</time></trkpt><trkpt lat="40.8040948" lon="17.2074197"><ele>390.0</ele><time>2026-04-07T07:32:53.787Z</time></trkpt><trkpt lat="40.8040461" lon="17.2075249"><ele>389.5</ele><time>2026-04-07T07:32:56.801Z</time></trkpt><trkpt lat="40.8040036" lon="17.2076041"><ele>389.0</ele><time>2026-04-07T07:32:58.792Z</time></trkpt><trkpt lat="40.8039563" lon="17.207688"><ele>388.50000000000006</ele><time>2026-04-07T07:33:00.783Z</time></trkpt><trkpt lat="40.8039155" lon="17.207773"><ele>388.0</ele><time>2026-04-07T07:33:02.773Z</time></trkpt><trkpt lat="40.8038741" lon="17.2078614"><ele>388.00000000000006</ele><time>2026-04-07T07:33:04.791Z</time></trkpt><trkpt lat="40.803831" lon="17.2079561"><ele>388.0</ele><time>2026-04-07T07:33:06.779Z</time></trkpt><trkpt lat="40.8037891" lon="17.208054"><ele>388.0</ele><time>2026-04-07T07:33:08.8Z</time></trkpt><trkpt lat="40.8037423" lon="17.2081453"><ele>388.0</ele><time>2026-04-07T07:33:10.795Z</time></trkpt><trkpt lat="40.8037016" lon="17.2082238"><ele>388.00000000000006</ele><time>2026-04-07T07:33:12.771Z</time></trkpt><trkpt lat="40.8036524" lon="17.2083014"><ele>388.0</ele><time>2026-04-07T07:33:14.806Z</time></trkpt><trkpt lat="40.8035992" lon="17.2083865"><ele>387.6666666666667</ele><time>2026-04-07T07:33:16.788Z</time></trkpt><trkpt lat="40.8035507" lon="17.2084714"><ele>387.33333333333337</ele><time>2026-04-07T07:33:18.792Z</time></trkpt><trkpt lat="40.8035079" lon="17.2085572"><ele>387.0</ele><time>2026-04-07T07:33:20.774Z</time></trkpt><trkpt lat="40.8034504" lon="17.2086351"><ele>386.66666666666663</ele><time>2026-04-07T07:33:22.77Z</time></trkpt><trkpt lat="40.803395" lon="17.2087114"><ele>386.3333333333333</ele><time>2026-04-07T07:33:24.791Z</time></trkpt><trkpt lat="40.8033535" lon="17.2087867"><ele>386.0</ele><time>2026-04-07T07:33:26.773Z</time></trkpt><trkpt lat="40.803299" lon="17.2088712"><ele>386.8333333333333</ele><time>2026-04-07T07:33:28.794Z</time></trkpt><trkpt lat="40.8032455" lon="17.2089524"><ele>387.66666666666663</ele><time>2026-04-07T07:33:30.793Z</time></trkpt><trkpt lat="40.8031947" lon="17.2090296"><ele>388.5</ele><time>2026-04-07T07:33:32.795Z</time></trkpt><trkpt lat="40.8031385" lon="17.2091129"><ele>389.33333333333337</ele><time>2026-04-07T07:33:34.788Z</time></trkpt><trkpt lat="40.8030838" lon="17.2091968"><ele>390.1666666666667</ele><time>2026-04-07T07:33:36.786Z</time></trkpt><trkpt lat="40.803022" lon="17.209278"><ele>391.0</ele><time>2026-04-07T07:33:38.803Z</time></trkpt><trkpt lat="40.8029566" lon="17.2093475"><ele>391.00000000000006</ele><time>2026-04-07T07:33:40.772Z</time></trkpt><trkpt lat="40.8029017" lon="17.2094218"><ele>391.0</ele><time>2026-04-07T07:33:42.802Z</time></trkpt><trkpt lat="40.8028431" lon="17.2095006"><ele>391.0</ele><time>2026-04-07T07:33:44.801Z</time></trkpt><trkpt lat="40.802784" lon="17.209581"><ele>391.0</ele><time>2026-04-07T07:33:46.799Z</time></trkpt><trkpt lat="40.8027263" lon="17.2096595"><ele>391.00000000000006</ele><time>2026-04-07T07:33:48.801Z</time></trkpt><trkpt lat="40.8026741" lon="17.2097316"><ele>391.0</ele><time>2026-04-07T07:33:50.796Z</time></trkpt><trkpt lat="40.8026184" lon="17.2098041"><ele>392.1666666666667</ele><time>2026-04-07T07:33:52.79Z</time></trkpt><trkpt lat="40.8025635" lon="17.2098733"><ele>393.33333333333337</ele><time>2026-04-07T07:33:54.797Z</time></trkpt><trkpt lat="40.802509" lon="17.2099166"><ele>394.5</ele><time>2026-04-07T07:33:56.79Z</time></trkpt><trkpt lat="40.8024529" lon="17.2100026"><ele>395.66666666666663</ele><time>2026-04-07T07:33:59.79Z</time></trkpt><trkpt lat="40.8023868" lon="17.2100818"><ele>396.8333333333333</ele><time>2026-04-07T07:34:02.792Z</time></trkpt><trkpt lat="40.8023229" lon="17.210166"><ele>398.0</ele><time>2026-04-07T07:34:05.796Z</time></trkpt><trkpt lat="40.8022604" lon="17.2102465"><ele>397.99999999999994</ele><time>2026-04-07T07:34:08.79Z</time></trkpt><trkpt lat="40.8022123" lon="17.2103097"><ele>398.0</ele><time>2026-04-07T07:34:10.788Z</time></trkpt><trkpt lat="40.8021655" lon="17.2103704"><ele>398.0</ele><time>2026-04-07T07:34:12.76Z</time></trkpt><trkpt lat="40.8021036" lon="17.2104475"><ele>398.0</ele><time>2026-04-07T07:34:15.767Z</time></trkpt><trkpt lat="40.8020421" lon="17.2105179"><ele>397.99999999999994</ele><time>2026-04-07T07:34:18.772Z</time></trkpt><trkpt lat="40.8019753" lon="17.2106027"><ele>398.0</ele><time>2026-04-07T07:34:21.787Z</time></trkpt><trkpt lat="40.8019076" lon="17.2106645"><ele>397.49999999999994</ele><time>2026-04-07T07:34:24.794Z</time></trkpt><trkpt lat="40.801846" lon="17.2107269"><ele>397.0</ele><time>2026-04-07T07:34:27.789Z</time></trkpt><trkpt lat="40.8017872" lon="17.2107914"><ele>396.5</ele><time>2026-04-07T07:34:30.796Z</time></trkpt><trkpt lat="40.8017337" lon="17.210865"><ele>396.0</ele><time>2026-04-07T07:34:34.794Z</time></trkpt><trkpt lat="40.8016636" lon="17.2109311"><ele>395.49999999999994</ele><time>2026-04-07T07:34:39.794Z</time></trkpt><trkpt lat="40.8016024" lon="17.2109911"><ele>395.0</ele><time>2026-04-07T07:34:44.783Z</time></trkpt><trkpt lat="40.8015414" lon="17.2110486"><ele>396.1428571428571</ele><time>2026-04-07T07:34:52.806Z</time></trkpt><trkpt lat="40.801492" lon="17.2111146"><ele>397.28571428571433</ele><time>2026-04-07T07:34:58.805Z</time></trkpt><trkpt lat="40.8014436" lon="17.2111728"><ele>398.42857142857144</ele><time>2026-04-07T07:35:03.802Z</time></trkpt><trkpt lat="40.8013928" lon="17.2112334"><ele>399.57142857142856</ele><time>2026-04-07T07:35:22.777Z</time></trkpt><trkpt lat="40.8013498" lon="17.2113028"><ele>400.71428571428567</ele><time>2026-04-07T07:35:26.797Z</time></trkpt><trkpt lat="40.8012996" lon="17.2113544"><ele>401.8571428571429</ele><time>2026-04-07T07:35:30.782Z</time></trkpt><trkpt lat="40.8012467" lon="17.2114251"><ele>403.0</ele><time>2026-04-07T07:35:35.787Z</time></trkpt><trkpt lat="40.8011963" lon="17.2114893"><ele>403.42857142857144</ele><time>2026-04-07T07:35:40.765Z</time></trkpt><trkpt lat="40.8011451" lon="17.2115488"><ele>403.85714285714283</ele><time>2026-04-07T07:35:48.772Z</time></trkpt><trkpt lat="40.8010896" lon="17.2116088"><ele>404.2857142857143</ele><time>2026-04-07T07:35:54.786Z</time></trkpt><trkpt lat="40.801035" lon="17.2116547"><ele>404.7142857142857</ele><time>2026-04-07T07:36:02.8Z</time></trkpt><trkpt lat="40.8009915" lon="17.2117164"><ele>405.1428571428571</ele><time>2026-04-07T07:37:52.791Z</time></trkpt><trkpt lat="40.8009297" lon="17.2117775"><ele>405.57142857142856</ele><time>2026-04-07T07:37:55.775Z</time></trkpt><trkpt lat="40.8008555" lon="17.2118569"><ele>406.0</ele><time>2026-04-07T07:37:58.809Z</time></trkpt><trkpt lat="40.8008055" lon="17.2119207"><ele>406.00000000000006</ele><time>2026-04-07T07:38:00.8Z</time></trkpt><trkpt lat="40.8007512" lon="17.2119948"><ele>406.0</ele><time>2026-04-07T07:38:02.806Z</time></trkpt><trkpt lat="40.8006874" lon="17.2120761"><ele>406.0</ele><time>2026-04-07T07:38:04.853Z</time></trkpt><trkpt lat="40.8006313" lon="17.2121491"><ele>406.0</ele><time>2026-04-07T07:38:06.921Z</time></trkpt><trkpt lat="40.8005821" lon="17.2122145"><ele>406.00000000000006</ele><time>2026-04-07T07:38:08.8Z</time></trkpt><trkpt lat="40.8005179" lon="17.2123069"><ele>406.0</ele><time>2026-04-07T07:38:11.855Z</time></trkpt><trkpt lat="40.8004601" lon="17.2123946"><ele>406.1666666666667</ele><time>2026-04-07T07:38:14.792Z</time></trkpt><trkpt lat="40.8004015" lon="17.2124739"><ele>406.33333333333337</ele><time>2026-04-07T07:38:16.808Z</time></trkpt><trkpt lat="40.8003364" lon="17.2125584"><ele>406.5</ele><time>2026-04-07T07:38:18.8Z</time></trkpt><trkpt lat="40.800263" lon="17.2126257"><ele>406.66666666666663</ele><time>2026-04-07T07:38:20.8Z</time></trkpt><trkpt lat="40.8001984" lon="17.2126895"><ele>406.8333333333333</ele><time>2026-04-07T07:38:22.805Z</time></trkpt><trkpt lat="40.8001417" lon="17.2127543"><ele>407.0</ele><time>2026-04-07T07:38:24.778Z</time></trkpt><trkpt lat="40.8000862" lon="17.2128096"><ele>407.00000000000006</ele><time>2026-04-07T07:38:26.936Z</time></trkpt><trkpt lat="40.8000365" lon="17.2128751"><ele>407.0</ele><time>2026-04-07T07:38:28.807Z</time></trkpt><trkpt lat="40.7999817" lon="17.2129258"><ele>407.0</ele><time>2026-04-07T07:38:30.795Z</time></trkpt><trkpt lat="40.7999235" lon="17.2129914"><ele>407.0</ele><time>2026-04-07T07:38:32.774Z</time></trkpt><trkpt lat="40.7998643" lon="17.213054"><ele>407.0</ele><time>2026-04-07T07:38:34.811Z</time></trkpt><trkpt lat="40.7998119" lon="17.2131065"><ele>407.00000000000006</ele><time>2026-04-07T07:38:36.924Z</time></trkpt><trkpt lat="40.7997392" lon="17.213183"><ele>407.0</ele><time>2026-04-07T07:38:39.841Z</time></trkpt><trkpt lat="40.7996836" lon="17.213234"><ele>406.8571428571429</ele><time>2026-04-07T07:39:11.787Z</time></trkpt><trkpt lat="40.7996342" lon="17.2132857"><ele>406.7142857142857</ele><time>2026-04-07T07:39:18.796Z</time></trkpt><trkpt lat="40.7995897" lon="17.2133523"><ele>406.57142857142856</ele><time>2026-04-07T07:39:31.767Z</time></trkpt><trkpt lat="40.7995365" lon="17.2134055"><ele>406.42857142857144</ele><time>2026-04-07T07:39:36.799Z</time></trkpt><trkpt lat="40.7994866" lon="17.2134651"><ele>406.2857142857143</ele><time>2026-04-07T07:40:04.802Z</time></trkpt><trkpt lat="40.799441" lon="17.2135361"><ele>406.14285714285717</ele><time>2026-04-07T07:40:11.794Z</time></trkpt><trkpt lat="40.799403" lon="17.2136052"><ele>406.0</ele><time>2026-04-07T07:41:32.838Z</time></trkpt><trkpt lat="40.7993555" lon="17.2136981"><ele>406.6666666666667</ele><time>2026-04-07T07:41:35.928Z</time></trkpt><trkpt lat="40.7993144" lon="17.2137748"><ele>407.33333333333337</ele><time>2026-04-07T07:41:37.794Z</time></trkpt><trkpt lat="40.7992687" lon="17.2138653"><ele>408.0</ele><time>2026-04-07T07:41:39.804Z</time></trkpt><trkpt lat="40.7992271" lon="17.2139558"><ele>408.66666666666663</ele><time>2026-04-07T07:41:41.805Z</time></trkpt><trkpt lat="40.7991916" lon="17.2140586"><ele>409.3333333333333</ele><time>2026-04-07T07:41:43.8Z</time></trkpt><trkpt lat="40.7991526" lon="17.2141551"><ele>410.0</ele><time>2026-04-07T07:41:45.805Z</time></trkpt><trkpt lat="40.7991091" lon="17.2142502"><ele>409.99999999999994</ele><time>2026-04-07T07:41:47.802Z</time></trkpt><trkpt lat="40.7990688" lon="17.2143486"><ele>410.0</ele><time>2026-04-07T07:41:49.871Z</time></trkpt><trkpt lat="40.7990341" lon="17.2144382"><ele>410.0</ele><time>2026-04-07T07:41:51.798Z</time></trkpt><trkpt lat="40.7990012" lon="17.2145351"><ele>410.0</ele><time>2026-04-07T07:41:53.806Z</time></trkpt><trkpt lat="40.7989577" lon="17.2146262"><ele>409.99999999999994</ele><time>2026-04-07T07:41:55.811Z</time></trkpt><trkpt lat="40.7988966" lon="17.214765"><ele>410.0</ele><time>2026-04-07T07:41:58.808Z</time></trkpt><trkpt lat="40.7988589" lon="17.2148603"><ele>409.99999999999994</ele><time>2026-04-07T07:42:00.873Z</time></trkpt><trkpt lat="40.7988146" lon="17.214964"><ele>410.0</ele><time>2026-04-07T07:42:02.813Z</time></trkpt><trkpt lat="40.7987722" lon="17.2150617"><ele>410.0</ele><time>2026-04-07T07:42:04.82Z</time></trkpt><trkpt lat="40.7987262" lon="17.2151523"><ele>410.0</ele><time>2026-04-07T07:42:06.805Z</time></trkpt><trkpt lat="40.7986713" lon="17.215238"><ele>409.99999999999994</ele><time>2026-04-07T07:42:08.807Z</time></trkpt><trkpt lat="40.798612" lon="17.2153111"><ele>410.0</ele><time>2026-04-07T07:42:10.804Z</time></trkpt><trkpt lat="40.7985456" lon="17.2153788"><ele>410.16666666666663</ele><time>2026-04-07T07:42:12.797Z</time></trkpt><trkpt lat="40.7984766" lon="17.2154474"><ele>410.3333333333333</ele><time>2026-04-07T07:42:14.803Z</time></trkpt><trkpt lat="40.7984079" lon="17.2155055"><ele>410.5</ele><time>2026-04-07T07:42:16.799Z</time></trkpt><trkpt lat="40.7983375" lon="17.2155716"><ele>410.66666666666663</ele><time>2026-04-07T07:42:18.805Z</time></trkpt><trkpt lat="40.7982766" lon="17.2156343"><ele>410.8333333333333</ele><time>2026-04-07T07:42:20.781Z</time></trkpt><trkpt lat="40.7982128" lon="17.2156916"><ele>411.0</ele><time>2026-04-07T07:42:22.773Z</time></trkpt><trkpt lat="40.7981554" lon="17.2157493"><ele>411.0</ele><time>2026-04-07T07:42:24.776Z</time></trkpt><trkpt lat="40.798089" lon="17.2158182"><ele>411.0</ele><time>2026-04-07T07:42:26.799Z</time></trkpt><trkpt lat="40.79802" lon="17.2158975"><ele>411.0</ele><time>2026-04-07T07:42:28.795Z</time></trkpt><trkpt lat="40.7979731" lon="17.2159666"><ele>411.0</ele><time>2026-04-07T07:42:30.785Z</time></trkpt><trkpt lat="40.7979247" lon="17.2160541"><ele>411.0</ele><time>2026-04-07T07:42:32.782Z</time></trkpt><trkpt lat="40.797869" lon="17.2161395"><ele>411.0</ele><time>2026-04-07T07:42:34.782Z</time></trkpt><trkpt lat="40.7978198" lon="17.216223"><ele>411.0</ele><time>2026-04-07T07:42:36.783Z</time></trkpt><trkpt lat="40.7977709" lon="17.2163077"><ele>411.0</ele><time>2026-04-07T07:42:38.784Z</time></trkpt><trkpt lat="40.7977205" lon="17.2163922"><ele>411.0</ele><time>2026-04-07T07:42:40.778Z</time></trkpt><trkpt lat="40.7976776" lon="17.2164735"><ele>411.0</ele><time>2026-04-07T07:42:42.803Z</time></trkpt><trkpt lat="40.7976259" lon="17.2165631"><ele>411.0</ele><time>2026-04-07T07:42:44.772Z</time></trkpt><trkpt lat="40.797578" lon="17.2166493"><ele>411.0</ele><time>2026-04-07T07:42:46.787Z</time></trkpt><trkpt lat="40.7975273" lon="17.216731"><ele>411.1666666666667</ele><time>2026-04-07T07:42:48.787Z</time></trkpt><trkpt lat="40.7974859" lon="17.2168157"><ele>411.33333333333337</ele><time>2026-04-07T07:42:50.784Z</time></trkpt><trkpt lat="40.7974666" lon="17.2169089"><ele>411.5</ele><time>2026-04-07T07:42:52.791Z</time></trkpt><trkpt lat="40.7974173" lon="17.2169845"><ele>411.6666666666667</ele><time>2026-04-07T07:42:54.779Z</time></trkpt><trkpt lat="40.7973655" lon="17.2170715"><ele>411.83333333333337</ele><time>2026-04-07T07:42:56.78Z</time></trkpt><trkpt lat="40.7973147" lon="17.2171591"><ele>412.0</ele><time>2026-04-07T07:42:58.783Z</time></trkpt><trkpt lat="40.797268" lon="17.2172537"><ele>411.6666666666667</ele><time>2026-04-07T07:43:00.79Z</time></trkpt><trkpt lat="40.7972261" lon="17.2173414"><ele>411.33333333333337</ele><time>2026-04-07T07:43:02.797Z</time></trkpt><trkpt lat="40.7971863" lon="17.2174373"><ele>411.0</ele><time>2026-04-07T07:43:04.774Z</time></trkpt><trkpt lat="40.7971424" lon="17.2175294"><ele>410.66666666666663</ele><time>2026-04-07T07:43:06.803Z</time></trkpt><trkpt lat="40.7971004" lon="17.2176335"><ele>410.3333333333333</ele><time>2026-04-07T07:43:08.789Z</time></trkpt><trkpt lat="40.797058" lon="17.2177485"><ele>410.0</ele><time>2026-04-07T07:43:10.788Z</time></trkpt><trkpt lat="40.7970249" lon="17.2178638"><ele>410.0</ele><time>2026-04-07T07:43:12.779Z</time></trkpt><trkpt lat="40.7969878" lon="17.2179765"><ele>410.0</ele><time>2026-04-07T07:43:14.794Z</time></trkpt><trkpt lat="40.7969557" lon="17.2180807"><ele>410.0</ele><time>2026-04-07T07:43:16.79Z</time></trkpt><trkpt lat="40.7969196" lon="17.2181975"><ele>410.0</ele><time>2026-04-07T07:43:18.788Z</time></trkpt><trkpt lat="40.7968837" lon="17.2183164"><ele>410.0</ele><time>2026-04-07T07:43:20.778Z</time></trkpt><trkpt lat="40.7968502" lon="17.2184385"><ele>410.2</ele><time>2026-04-07T07:43:22.787Z</time></trkpt><trkpt lat="40.7968155" lon="17.2185538"><ele>410.4</ele><time>2026-04-07T07:43:24.781Z</time></trkpt><trkpt lat="40.7967732" lon="17.2186749"><ele>410.6</ele><time>2026-04-07T07:43:26.769Z</time></trkpt><trkpt lat="40.7967241" lon="17.2187735"><ele>410.8</ele><time>2026-04-07T07:43:28.803Z</time></trkpt><trkpt lat="40.7966769" lon="17.2188728"><ele>411.0</ele><time>2026-04-07T07:43:30.799Z</time></trkpt><trkpt lat="40.7966325" lon="17.2189703"><ele>410.8</ele><time>2026-04-07T07:43:32.788Z</time></trkpt><trkpt lat="40.7965761" lon="17.2190736"><ele>410.6</ele><time>2026-04-07T07:43:34.784Z</time></trkpt><trkpt lat="40.7965261" lon="17.2191724"><ele>410.4</ele><time>2026-04-07T07:43:36.788Z</time></trkpt><trkpt lat="40.7964762" lon="17.2192773"><ele>410.2</ele><time>2026-04-07T07:43:38.789Z</time></trkpt><trkpt lat="40.7964253" lon="17.2193721"><ele>410.0</ele><time>2026-04-07T07:43:40.777Z</time></trkpt><trkpt lat="40.7963784" lon="17.2194698"><ele>409.99999999999994</ele><time>2026-04-07T07:43:42.791Z</time></trkpt><trkpt lat="40.7963362" lon="17.2195704"><ele>410.0</ele><time>2026-04-07T07:43:44.79Z</time></trkpt><trkpt lat="40.7962936" lon="17.219672"><ele>410.0</ele><time>2026-04-07T07:43:46.775Z</time></trkpt><trkpt lat="40.7962465" lon="17.2197553"><ele>410.0</ele><time>2026-04-07T07:43:48.779Z</time></trkpt><trkpt lat="40.7962003" lon="17.2198468"><ele>409.99999999999994</ele><time>2026-04-07T07:43:50.784Z</time></trkpt><trkpt lat="40.7961506" lon="17.2199311"><ele>410.0</ele><time>2026-04-07T07:43:52.785Z</time></trkpt><trkpt lat="40.7960996" lon="17.2200117"><ele>409.8571428571429</ele><time>2026-04-07T07:43:54.78Z</time></trkpt><trkpt lat="40.7960496" lon="17.2200861"><ele>409.71428571428567</ele><time>2026-04-07T07:43:56.778Z</time></trkpt><trkpt lat="40.7959957" lon="17.2201525"><ele>409.57142857142856</ele><time>2026-04-07T07:43:58.773Z</time></trkpt><trkpt lat="40.7959389" lon="17.2201969"><ele>409.42857142857144</ele><time>2026-04-07T07:44:00.785Z</time></trkpt><trkpt lat="40.795876" lon="17.2202286"><ele>409.28571428571433</ele><time>2026-04-07T07:44:02.789Z</time></trkpt><trkpt lat="40.7958106" lon="17.2202627"><ele>409.1428571428571</ele><time>2026-04-07T07:44:04.776Z</time></trkpt><trkpt lat="40.7957425" lon="17.2202938"><ele>409.0</ele><time>2026-04-07T07:44:06.788Z</time></trkpt><trkpt lat="40.7956678" lon="17.2203255"><ele>409.6666666666667</ele><time>2026-04-07T07:44:08.784Z</time></trkpt><trkpt lat="40.7955881" lon="17.2203572"><ele>410.33333333333337</ele><time>2026-04-07T07:44:10.781Z</time></trkpt><trkpt lat="40.7955105" lon="17.2203875"><ele>411.0</ele><time>2026-04-07T07:44:12.778Z</time></trkpt><trkpt lat="40.7954344" lon="17.2204193"><ele>411.66666666666663</ele><time>2026-04-07T07:44:14.791Z</time></trkpt><trkpt lat="40.795358" lon="17.2204483"><ele>412.3333333333333</ele><time>2026-04-07T07:44:16.793Z</time></trkpt><trkpt lat="40.79528" lon="17.2204767"><ele>413.0</ele><time>2026-04-07T07:44:18.785Z</time></trkpt><trkpt lat="40.7952109" lon="17.2204984"><ele>413.14285714285717</ele><time>2026-04-07T07:44:20.792Z</time></trkpt><trkpt lat="40.7951502" lon="17.2205261"><ele>413.2857142857143</ele><time>2026-04-07T07:44:22.797Z</time></trkpt><trkpt lat="40.7950717" lon="17.2205609"><ele>413.42857142857144</ele><time>2026-04-07T07:44:25.787Z</time></trkpt><trkpt lat="40.7950075" lon="17.2205984"><ele>413.57142857142856</ele><time>2026-04-07T07:44:27.794Z</time></trkpt><trkpt lat="40.7949467" lon="17.2206279"><ele>413.7142857142857</ele><time>2026-04-07T07:44:29.778Z</time></trkpt><trkpt lat="40.7948836" lon="17.220657"><ele>413.8571428571429</ele><time>2026-04-07T07:44:31.795Z</time></trkpt><trkpt lat="40.7948202" lon="17.2206916"><ele>414.0</ele><time>2026-04-07T07:44:33.778Z</time></trkpt><trkpt lat="40.7947591" lon="17.2207248"><ele>414.4</ele><time>2026-04-07T07:44:35.782Z</time></trkpt><trkpt lat="40.7946705" lon="17.220766"><ele>414.79999999999995</ele><time>2026-04-07T07:44:38.788Z</time></trkpt><trkpt lat="40.7945855" lon="17.220816"><ele>415.20000000000005</ele><time>2026-04-07T07:44:41.778Z</time></trkpt><trkpt lat="40.794514" lon="17.2208719"><ele>415.6</ele><time>2026-04-07T07:44:44.786Z</time></trkpt><trkpt lat="40.794425" lon="17.2208912"><ele>416.0</ele><time>2026-04-07T07:44:47.792Z</time></trkpt><trkpt lat="40.7943365" lon="17.220923"><ele>416.66666666666663</ele><time>2026-04-07T07:44:50.786Z</time></trkpt><trkpt lat="40.7942725" lon="17.2209334"><ele>417.3333333333333</ele><time>2026-04-07T07:44:52.777Z</time></trkpt><trkpt lat="40.7942101" lon="17.2209594"><ele>418.0</ele><time>2026-04-07T07:44:54.783Z</time></trkpt><trkpt lat="40.7941207" lon="17.2209981"><ele>418.66666666666663</ele><time>2026-04-07T07:44:57.77Z</time></trkpt><trkpt lat="40.7940322" lon="17.221012"><ele>419.3333333333333</ele><time>2026-04-07T07:45:00.787Z</time></trkpt><trkpt lat="40.7939559" lon="17.2210211"><ele>420.0</ele><time>2026-04-07T07:45:02.785Z</time></trkpt><trkpt lat="40.7938633" lon="17.2210463"><ele>420.0</ele><time>2026-04-07T07:45:04.807Z</time></trkpt><trkpt lat="40.7937826" lon="17.2210838"><ele>420.0</ele><time>2026-04-07T07:45:06.775Z</time></trkpt><trkpt lat="40.7936989" lon="17.2211307"><ele>420.0</ele><time>2026-04-07T07:45:08.781Z</time></trkpt><trkpt lat="40.7936199" lon="17.2211821"><ele>420.0</ele><time>2026-04-07T07:45:10.776Z</time></trkpt><trkpt lat="40.793545" lon="17.2212456"><ele>420.0</ele><time>2026-04-07T07:45:12.774Z</time></trkpt><trkpt lat="40.793474" lon="17.2213134"><ele>420.0</ele><time>2026-04-07T07:45:14.78Z</time></trkpt><trkpt lat="40.7934095" lon="17.2213754"><ele>420.2857142857143</ele><time>2026-04-07T07:45:16.784Z</time></trkpt><trkpt lat="40.7933585" lon="17.2214359"><ele>420.57142857142856</ele><time>2026-04-07T07:45:18.79Z</time></trkpt><trkpt lat="40.79331" lon="17.221493"><ele>420.8571428571429</ele><time>2026-04-07T07:45:20.781Z</time></trkpt><trkpt lat="40.7932459" lon="17.2215666"><ele>421.1428571428571</ele><time>2026-04-07T07:45:23.791Z</time></trkpt><trkpt lat="40.7931891" lon="17.2216154"><ele>421.42857142857144</ele><time>2026-04-07T07:45:42.79Z</time></trkpt><trkpt lat="40.793148" lon="17.2216857"><ele>421.7142857142857</ele><time>2026-04-07T07:45:45.76Z</time></trkpt><trkpt lat="40.7930845" lon="17.2217636"><ele>422.0</ele><time>2026-04-07T07:45:48.78Z</time></trkpt><trkpt lat="40.7929771" lon="17.2219414"><ele>421.3333333333333</ele><time>2026-04-07T07:45:54.792Z</time></trkpt><trkpt lat="40.7929354" lon="17.2220042"><ele>420.66666666666663</ele><time>2026-04-07T07:45:56.782Z</time></trkpt><trkpt lat="40.7928845" lon="17.2220738"><ele>420.0</ele><time>2026-04-07T07:45:58.784Z</time></trkpt><trkpt lat="40.7928183" lon="17.2221739"><ele>419.33333333333337</ele><time>2026-04-07T07:46:00.778Z</time></trkpt><trkpt lat="40.792755" lon="17.2222697"><ele>418.6666666666667</ele><time>2026-04-07T07:46:02.777Z</time></trkpt><trkpt lat="40.7926899" lon="17.2223734"><ele>418.0</ele><time>2026-04-07T07:46:04.791Z</time></trkpt><trkpt lat="40.792627" lon="17.2224713"><ele>417.59999999999997</ele><time>2026-04-07T07:46:06.801Z</time></trkpt><trkpt lat="40.7925613" lon="17.2225751"><ele>417.2</ele><time>2026-04-07T07:46:08.78Z</time></trkpt><trkpt lat="40.7924818" lon="17.2226808"><ele>416.8</ele><time>2026-04-07T07:46:10.786Z</time></trkpt><trkpt lat="40.7924066" lon="17.2227916"><ele>416.4</ele><time>2026-04-07T07:46:12.796Z</time></trkpt><trkpt lat="40.7923384" lon="17.2229051"><ele>416.0</ele><time>2026-04-07T07:46:14.781Z</time></trkpt><trkpt lat="40.7922707" lon="17.2230076"><ele>416.0</ele><time>2026-04-07T07:46:16.777Z</time></trkpt><trkpt lat="40.7922022" lon="17.2231044"><ele>416.0</ele><time>2026-04-07T07:46:18.781Z</time></trkpt><trkpt lat="40.7921335" lon="17.2231872"><ele>416.0</ele><time>2026-04-07T07:46:20.788Z</time></trkpt><trkpt lat="40.7920606" lon="17.2232713"><ele>416.0</ele><time>2026-04-07T07:46:22.799Z</time></trkpt><trkpt lat="40.791986" lon="17.2233571"><ele>416.0</ele><time>2026-04-07T07:46:24.774Z</time></trkpt><trkpt lat="40.7919055" lon="17.2234349"><ele>416.6</ele><time>2026-04-07T07:46:26.787Z</time></trkpt><trkpt lat="40.7918317" lon="17.2235236"><ele>417.20000000000005</ele><time>2026-04-07T07:46:28.802Z</time></trkpt><trkpt lat="40.7917575" lon="17.2236105"><ele>417.79999999999995</ele><time>2026-04-07T07:46:30.771Z</time></trkpt><trkpt lat="40.7916879" lon="17.2236982"><ele>418.4</ele><time>2026-04-07T07:46:32.785Z</time></trkpt><trkpt lat="40.791609" lon="17.2237868"><ele>419.0</ele><time>2026-04-07T07:46:34.813Z</time></trkpt><trkpt lat="40.7915334" lon="17.2238852"><ele>419.4</ele><time>2026-04-07T07:46:36.792Z</time></trkpt><trkpt lat="40.7914474" lon="17.2239904"><ele>419.79999999999995</ele><time>2026-04-07T07:46:38.773Z</time></trkpt><trkpt lat="40.791368" lon="17.224089"><ele>420.20000000000005</ele><time>2026-04-07T07:46:40.785Z</time></trkpt><trkpt lat="40.7912926" lon="17.2241928"><ele>420.6</ele><time>2026-04-07T07:46:42.781Z</time></trkpt><trkpt lat="40.7912129" lon="17.2242888"><ele>421.0</ele><time>2026-04-07T07:46:44.787Z</time></trkpt><trkpt lat="40.791145" lon="17.2243799"><ele>421.0</ele><time>2026-04-07T07:46:46.788Z</time></trkpt><trkpt lat="40.7910745" lon="17.2244575"><ele>421.0</ele><time>2026-04-07T07:46:48.798Z</time></trkpt><trkpt lat="40.7910126" lon="17.22454"><ele>421.0</ele><time>2026-04-07T07:46:50.783Z</time></trkpt><trkpt lat="40.7909427" lon="17.2246187"><ele>421.0</ele><time>2026-04-07T07:46:52.787Z</time></trkpt><trkpt lat="40.7908693" lon="17.2246956"><ele>421.0</ele><time>2026-04-07T07:46:54.773Z</time></trkpt><trkpt lat="40.7908009" lon="17.2247713"><ele>421.1666666666667</ele><time>2026-04-07T07:46:56.775Z</time></trkpt><trkpt lat="40.7907416" lon="17.2248522"><ele>421.33333333333337</ele><time>2026-04-07T07:46:58.781Z</time></trkpt><trkpt lat="40.7906778" lon="17.2249211"><ele>421.5</ele><time>2026-04-07T07:47:00.785Z</time></trkpt><trkpt lat="40.7906196" lon="17.2249989"><ele>421.66666666666663</ele><time>2026-04-07T07:47:02.783Z</time></trkpt><trkpt lat="40.7905565" lon="17.225073"><ele>421.8333333333333</ele><time>2026-04-07T07:47:04.784Z</time></trkpt><trkpt lat="40.7904881" lon="17.2251362"><ele>422.0</ele><time>2026-04-07T07:47:06.779Z</time></trkpt><trkpt lat="40.7904295" lon="17.2252054"><ele>421.99999999999994</ele><time>2026-04-07T07:47:08.789Z</time></trkpt><trkpt lat="40.7903681" lon="17.2252752"><ele>422.0</ele><time>2026-04-07T07:47:10.786Z</time></trkpt><trkpt lat="40.7903076" lon="17.2253445"><ele>422.0</ele><time>2026-04-07T07:47:12.782Z</time></trkpt><trkpt lat="40.7902483" lon="17.225411"><ele>422.0</ele><time>2026-04-07T07:47:14.768Z</time></trkpt><trkpt lat="40.7901916" lon="17.2254794"><ele>421.99999999999994</ele><time>2026-04-07T07:47:16.778Z</time></trkpt><trkpt lat="40.7901402" lon="17.2255437"><ele>422.0</ele><time>2026-04-07T07:47:18.793Z</time></trkpt><trkpt lat="40.7900861" lon="17.2255988"><ele>422.2857142857143</ele><time>2026-04-07T07:47:20.782Z</time></trkpt><trkpt lat="40.7900269" lon="17.2256469"><ele>422.57142857142856</ele><time>2026-04-07T07:47:24.783Z</time></trkpt><trkpt lat="40.789995" lon="17.2257194"><ele>422.8571428571429</ele><time>2026-04-07T07:47:47.784Z</time></trkpt><trkpt lat="40.7899385" lon="17.225775"><ele>423.1428571428571</ele><time>2026-04-07T07:47:50.784Z</time></trkpt><trkpt lat="40.7898954" lon="17.225837"><ele>423.4285714285714</ele><time>2026-04-07T07:47:52.778Z</time></trkpt><trkpt lat="40.7898414" lon="17.2259174"><ele>423.7142857142857</ele><time>2026-04-07T07:47:54.774Z</time></trkpt><trkpt lat="40.7897749" lon="17.2259816"><ele>424.0</ele><time>2026-04-07T07:47:56.766Z</time></trkpt><trkpt lat="40.789708" lon="17.2260473"><ele>424.00000000000006</ele><time>2026-04-07T07:47:58.789Z</time></trkpt><trkpt lat="40.7896546" lon="17.2261176"><ele>424.0</ele><time>2026-04-07T07:48:00.792Z</time></trkpt><trkpt lat="40.789594" lon="17.2261938"><ele>424.0</ele><time>2026-04-07T07:48:02.779Z</time></trkpt><trkpt lat="40.7895329" lon="17.2262541"><ele>424.0</ele><time>2026-04-07T07:48:04.787Z</time></trkpt><trkpt lat="40.7894699" lon="17.226314"><ele>424.00000000000006</ele><time>2026-04-07T07:48:06.784Z</time></trkpt><trkpt lat="40.789398" lon="17.2263822"><ele>424.0</ele><time>2026-04-07T07:48:08.771Z</time></trkpt><trkpt lat="40.7893299" lon="17.226459"><ele>424.00000000000006</ele><time>2026-04-07T07:48:10.778Z</time></trkpt><trkpt lat="40.7892637" lon="17.2265231"><ele>424.0</ele><time>2026-04-07T07:48:12.78Z</time></trkpt><trkpt lat="40.7891891" lon="17.2265962"><ele>424.0</ele><time>2026-04-07T07:48:14.774Z</time></trkpt><trkpt lat="40.7891232" lon="17.2266652"><ele>424.0</ele><time>2026-04-07T07:48:16.783Z</time></trkpt><trkpt lat="40.7890585" lon="17.2267327"><ele>424.00000000000006</ele><time>2026-04-07T07:48:18.783Z</time></trkpt><trkpt lat="40.7889786" lon="17.226814"><ele>424.0</ele><time>2026-04-07T07:48:20.799Z</time></trkpt><trkpt lat="40.7889092" lon="17.2268824"><ele>424.0</ele><time>2026-04-07T07:48:22.778Z</time></trkpt><trkpt lat="40.7888349" lon="17.2269477"><ele>424.0</ele><time>2026-04-07T07:48:24.786Z</time></trkpt><trkpt lat="40.7887483" lon="17.2270181"><ele>424.0</ele><time>2026-04-07T07:48:26.781Z</time></trkpt><trkpt lat="40.7886628" lon="17.2270876"><ele>424.0</ele><time>2026-04-07T07:48:28.803Z</time></trkpt><trkpt lat="40.7885815" lon="17.2271633"><ele>424.0</ele><time>2026-04-07T07:48:30.778Z</time></trkpt><trkpt lat="40.7885187" lon="17.2272626"><ele>424.0</ele><time>2026-04-07T07:48:32.791Z</time></trkpt><trkpt lat="40.7884355" lon="17.2273467"><ele>424.0</ele><time>2026-04-07T07:48:34.795Z</time></trkpt><trkpt lat="40.7883515" lon="17.2274363"><ele>424.0</ele><time>2026-04-07T07:48:36.777Z</time></trkpt><trkpt lat="40.7882624" lon="17.2275239"><ele>424.0</ele><time>2026-04-07T07:48:38.779Z</time></trkpt><trkpt lat="40.7881808" lon="17.2276152"><ele>424.0</ele><time>2026-04-07T07:48:40.779Z</time></trkpt><trkpt lat="40.788093" lon="17.2277127"><ele>424.0</ele><time>2026-04-07T07:48:42.776Z</time></trkpt><trkpt lat="40.7880099" lon="17.2277938"><ele>424.0</ele><time>2026-04-07T07:48:44.786Z</time></trkpt><trkpt lat="40.7879369" lon="17.227865"><ele>424.0</ele><time>2026-04-07T07:48:46.795Z</time></trkpt><trkpt lat="40.7878653" lon="17.2279365"><ele>424.0</ele><time>2026-04-07T07:48:48.775Z</time></trkpt><trkpt lat="40.7877839" lon="17.2280121"><ele>424.0</ele><time>2026-04-07T07:48:50.774Z</time></trkpt><trkpt lat="40.7876963" lon="17.2280926"><ele>423.6</ele><time>2026-04-07T07:48:52.776Z</time></trkpt><trkpt lat="40.7876096" lon="17.2281826"><ele>423.2</ele><time>2026-04-07T07:48:54.773Z</time></trkpt><trkpt lat="40.7875396" lon="17.2282498"><ele>422.8</ele><time>2026-04-07T07:48:56.789Z</time></trkpt><trkpt lat="40.787461" lon="17.2283266"><ele>422.40000000000003</ele><time>2026-04-07T07:48:58.794Z</time></trkpt><trkpt lat="40.7873906" lon="17.2284239"><ele>422.0</ele><time>2026-04-07T07:49:00.788Z</time></trkpt><trkpt lat="40.7873242" lon="17.2285092"><ele>422.0</ele><time>2026-04-07T07:49:02.785Z</time></trkpt><trkpt lat="40.7872519" lon="17.228586"><ele>422.0</ele><time>2026-04-07T07:49:04.794Z</time></trkpt><trkpt lat="40.7871802" lon="17.2286638"><ele>422.0</ele><time>2026-04-07T07:49:06.781Z</time></trkpt><trkpt lat="40.7871084" lon="17.2287429"><ele>422.0</ele><time>2026-04-07T07:49:08.784Z</time></trkpt><trkpt lat="40.7870306" lon="17.2288154"><ele>422.0</ele><time>2026-04-07T07:49:10.781Z</time></trkpt><trkpt lat="40.7869498" lon="17.2288878"><ele>422.0</ele><time>2026-04-07T07:49:12.785Z</time></trkpt><trkpt lat="40.7868678" lon="17.2289698"><ele>422.0</ele><time>2026-04-07T07:49:14.786Z</time></trkpt><trkpt lat="40.7867853" lon="17.229056"><ele>422.0</ele><time>2026-04-07T07:49:16.781Z</time></trkpt><trkpt lat="40.7867002" lon="17.2291344"><ele>422.0</ele><time>2026-04-07T07:49:18.776Z</time></trkpt><trkpt lat="40.7866205" lon="17.2292187"><ele>422.0</ele><time>2026-04-07T07:49:20.777Z</time></trkpt><trkpt lat="40.7865403" lon="17.2293167"><ele>421.6</ele><time>2026-04-07T07:49:22.788Z</time></trkpt><trkpt lat="40.7864652" lon="17.2293939"><ele>421.20000000000005</ele><time>2026-04-07T07:49:24.792Z</time></trkpt><trkpt lat="40.7864005" lon="17.2294823"><ele>420.8</ele><time>2026-04-07T07:49:26.777Z</time></trkpt><trkpt lat="40.7863361" lon="17.2295795"><ele>420.4</ele><time>2026-04-07T07:49:28.781Z</time></trkpt><trkpt lat="40.7862817" lon="17.2296679"><ele>420.0</ele><time>2026-04-07T07:49:30.77Z</time></trkpt><trkpt lat="40.786221" lon="17.2297538"><ele>420.0</ele><time>2026-04-07T07:49:32.777Z</time></trkpt><trkpt lat="40.7861816" lon="17.2298223"><ele>420.0</ele><time>2026-04-07T07:49:34.797Z</time></trkpt><trkpt lat="40.7861596" lon="17.229914"><ele>420.0</ele><time>2026-04-07T07:49:55.783Z</time></trkpt><trkpt lat="40.786171" lon="17.2300277"><ele>420.0</ele><time>2026-04-07T07:49:57.788Z</time></trkpt><trkpt lat="40.786229" lon="17.2301287"><ele>420.0</ele><time>2026-04-07T07:49:59.783Z</time></trkpt><trkpt lat="40.7862998" lon="17.2301999"><ele>420.0</ele><time>2026-04-07T07:50:01.782Z</time></trkpt><trkpt lat="40.7863685" lon="17.2302711"><ele>420.0</ele><time>2026-04-07T07:50:03.771Z</time></trkpt><trkpt lat="40.7864379" lon="17.2303447"><ele>420.0</ele><time>2026-04-07T07:50:05.785Z</time></trkpt><trkpt lat="40.7864934" lon="17.230437"><ele>420.0</ele><time>2026-04-07T07:50:07.786Z</time></trkpt><trkpt lat="40.7865376" lon="17.2305343"><ele>420.0</ele><time>2026-04-07T07:50:09.779Z</time></trkpt><trkpt lat="40.7865789" lon="17.2306327"><ele>420.0</ele><time>2026-04-07T07:50:11.783Z</time></trkpt><trkpt lat="40.7866277" lon="17.2307264"><ele>420.0</ele><time>2026-04-07T07:50:13.786Z</time></trkpt><trkpt lat="40.7866738" lon="17.2308172"><ele>420.1666666666667</ele><time>2026-04-07T07:50:15.781Z</time></trkpt><trkpt lat="40.786722" lon="17.2309061"><ele>420.33333333333337</ele><time>2026-04-07T07:50:17.792Z</time></trkpt><trkpt lat="40.7867694" lon="17.2309917"><ele>420.5</ele><time>2026-04-07T07:50:19.779Z</time></trkpt><trkpt lat="40.7868181" lon="17.2310627"><ele>420.6666666666667</ele><time>2026-04-07T07:50:21.777Z</time></trkpt><trkpt lat="40.7868761" lon="17.231134"><ele>420.83333333333337</ele><time>2026-04-07T07:50:23.777Z</time></trkpt><trkpt lat="40.7869279" lon="17.2312127"><ele>421.0</ele><time>2026-04-07T07:50:25.775Z</time></trkpt><trkpt lat="40.7869777" lon="17.2312985"><ele>421.28571428571433</ele><time>2026-04-07T07:50:27.768Z</time></trkpt><trkpt lat="40.7870271" lon="17.2313698"><ele>421.57142857142856</ele><time>2026-04-07T07:50:29.766Z</time></trkpt><trkpt lat="40.7870777" lon="17.2314455"><ele>421.8571428571429</ele><time>2026-04-07T07:50:31.787Z</time></trkpt><trkpt lat="40.7871238" lon="17.2315078"><ele>422.14285714285717</ele><time>2026-04-07T07:50:33.786Z</time></trkpt><trkpt lat="40.7871757" lon="17.2315917"><ele>422.42857142857144</ele><time>2026-04-07T07:50:36.798Z</time></trkpt><trkpt lat="40.7872155" lon="17.2316571"><ele>422.7142857142857</ele><time>2026-04-07T07:50:38.776Z</time></trkpt><trkpt lat="40.7872561" lon="17.2317221"><ele>423.0</ele><time>2026-04-07T07:50:40.782Z</time></trkpt><trkpt lat="40.7872962" lon="17.2317901"><ele>423.57142857142856</ele><time>2026-04-07T07:50:42.772Z</time></trkpt><trkpt lat="40.7873397" lon="17.231861"><ele>424.14285714285717</ele><time>2026-04-07T07:50:44.78Z</time></trkpt><trkpt lat="40.7873878" lon="17.2319236"><ele>424.7142857142857</ele><time>2026-04-07T07:50:46.779Z</time></trkpt><trkpt lat="40.7874472" lon="17.2319637"><ele>425.2857142857143</ele><time>2026-04-07T07:50:48.781Z</time></trkpt><trkpt lat="40.78751" lon="17.2319947"><ele>425.8571428571429</ele><time>2026-04-07T07:50:50.774Z</time></trkpt><trkpt lat="40.787578" lon="17.2320295"><ele>426.42857142857144</ele><time>2026-04-07T07:50:52.773Z</time></trkpt><trkpt lat="40.7876518" lon="17.2320653"><ele>427.0</ele><time>2026-04-07T07:50:54.778Z</time></trkpt><trkpt lat="40.787715" lon="17.2321018"><ele>427.42857142857144</ele><time>2026-04-07T07:50:56.782Z</time></trkpt><trkpt lat="40.7877807" lon="17.2321326"><ele>427.8571428571429</ele><time>2026-04-07T07:50:58.785Z</time></trkpt><trkpt lat="40.7878444" lon="17.2321611"><ele>428.2857142857143</ele><time>2026-04-07T07:51:00.783Z</time></trkpt><trkpt lat="40.7879106" lon="17.2321943"><ele>428.7142857142857</ele><time>2026-04-07T07:51:02.781Z</time></trkpt><trkpt lat="40.7879766" lon="17.2322433"><ele>429.14285714285717</ele><time>2026-04-07T07:51:04.781Z</time></trkpt><trkpt lat="40.7880351" lon="17.2322939"><ele>429.57142857142856</ele><time>2026-04-07T07:51:06.784Z</time></trkpt><trkpt lat="40.7881117" lon="17.2323633"><ele>430.0</ele><time>2026-04-07T07:51:09.777Z</time></trkpt><trkpt lat="40.7881643" lon="17.2324159"><ele>430.2857142857143</ele><time>2026-04-07T07:51:11.783Z</time></trkpt><trkpt lat="40.7882115" lon="17.2324769"><ele>430.5714285714286</ele><time>2026-04-07T07:51:13.784Z</time></trkpt><trkpt lat="40.7882557" lon="17.232538"><ele>430.8571428571429</ele><time>2026-04-07T07:51:15.789Z</time></trkpt><trkpt lat="40.7883017" lon="17.2326046"><ele>431.1428571428571</ele><time>2026-04-07T07:51:17.785Z</time></trkpt><trkpt lat="40.7883414" lon="17.2326695"><ele>431.42857142857144</ele><time>2026-04-07T07:51:19.772Z</time></trkpt><trkpt lat="40.7883991" lon="17.2327567"><ele>431.7142857142857</ele><time>2026-04-07T07:51:22.777Z</time></trkpt><trkpt lat="40.7884573" lon="17.232844"><ele>432.0</ele><time>2026-04-07T07:51:25.783Z</time></trkpt><trkpt lat="40.7885171" lon="17.2329317"><ele>432.0</ele><time>2026-04-07T07:51:28.777Z</time></trkpt><trkpt lat="40.788584" lon="17.233022"><ele>432.0</ele><time>2026-04-07T07:51:31.782Z</time></trkpt><trkpt lat="40.7886291" lon="17.2330824"><ele>432.0</ele><time>2026-04-07T07:51:33.767Z</time></trkpt><trkpt lat="40.7886761" lon="17.2331509"><ele>432.0</ele><time>2026-04-07T07:51:36.786Z</time></trkpt><trkpt lat="40.7887194" lon="17.2332179"><ele>432.0</ele><time>2026-04-07T07:51:40.786Z</time></trkpt><trkpt lat="40.7887788" lon="17.2332917"><ele>432.0</ele><time>2026-04-07T07:51:43.788Z</time></trkpt><trkpt lat="40.7888207" lon="17.2333579"><ele>432.0</ele><time>2026-04-07T07:51:45.776Z</time></trkpt><trkpt lat="40.7888707" lon="17.2334311"><ele>431.8333333333333</ele><time>2026-04-07T07:51:47.779Z</time></trkpt><trkpt lat="40.7889267" lon="17.2335019"><ele>431.66666666666663</ele><time>2026-04-07T07:51:49.786Z</time></trkpt><trkpt lat="40.7889767" lon="17.2335853"><ele>431.5</ele><time>2026-04-07T07:51:51.784Z</time></trkpt><trkpt lat="40.7890218" lon="17.2336766"><ele>431.3333333333333</ele><time>2026-04-07T07:51:53.773Z</time></trkpt><trkpt lat="40.7890735" lon="17.2337605"><ele>431.16666666666663</ele><time>2026-04-07T07:51:55.774Z</time></trkpt><trkpt lat="40.7891155" lon="17.2338615"><ele>431.0</ele><time>2026-04-07T07:51:57.778Z</time></trkpt><trkpt lat="40.7891578" lon="17.2339449"><ele>430.66666666666663</ele><time>2026-04-07T07:51:59.802Z</time></trkpt><trkpt lat="40.7892007" lon="17.2340296"><ele>430.3333333333333</ele><time>2026-04-07T07:52:01.785Z</time></trkpt><trkpt lat="40.7892339" lon="17.2341058"><ele>430.0</ele><time>2026-04-07T07:52:04.777Z</time></trkpt><trkpt lat="40.7892728" lon="17.2341951"><ele>429.66666666666663</ele><time>2026-04-07T07:52:20.766Z</time></trkpt><trkpt lat="40.7893142" lon="17.2343014"><ele>429.3333333333333</ele><time>2026-04-07T07:52:23.796Z</time></trkpt><trkpt lat="40.7893151" lon="17.234428"><ele>429.0</ele><time>2026-04-07T07:52:26.778Z</time></trkpt><trkpt lat="40.7893217" lon="17.2345237"><ele>429.0</ele><time>2026-04-07T07:52:28.77Z</time></trkpt><trkpt lat="40.7893272" lon="17.2346129"><ele>429.0</ele><time>2026-04-07T07:52:30.777Z</time></trkpt><trkpt lat="40.7893326" lon="17.2347129"><ele>429.0</ele><time>2026-04-07T07:52:32.789Z</time></trkpt><trkpt lat="40.7893346" lon="17.2348092"><ele>429.0</ele><time>2026-04-07T07:52:34.798Z</time></trkpt><trkpt lat="40.7893381" lon="17.234912"><ele>429.0</ele><time>2026-04-07T07:52:36.785Z</time></trkpt><trkpt lat="40.789336" lon="17.2350041"><ele>429.0</ele><time>2026-04-07T07:52:38.796Z</time></trkpt><trkpt lat="40.7893443" lon="17.2351228"><ele>428.0</ele><time>2026-04-07T07:52:41.789Z</time></trkpt><trkpt lat="40.7893599" lon="17.2352145"><ele>427.0</ele><time>2026-04-07T07:52:43.754Z</time></trkpt><trkpt lat="40.789368" lon="17.2353153"><ele>426.0</ele><time>2026-04-07T07:52:49.763Z</time></trkpt><trkpt lat="40.789383" lon="17.2354182"><ele>425.0</ele><time>2026-04-07T07:52:55.789Z</time></trkpt><trkpt lat="40.7893672" lon="17.2355121"><ele>424.0</ele><time>2026-04-07T07:52:58.775Z</time></trkpt><trkpt lat="40.7894205" lon="17.2355809"><ele>423.0</ele><time>2026-04-07T07:53:04.787Z</time></trkpt><trkpt lat="40.7894994" lon="17.2355663"><ele>423.0</ele><time>2026-04-07T07:53:06.796Z</time></trkpt><trkpt lat="40.7895855" lon="17.2355164"><ele>423.0</ele><time>2026-04-07T07:53:08.796Z</time></trkpt><trkpt lat="40.7896749" lon="17.2354664"><ele>423.0</ele><time>2026-04-07T07:53:10.786Z</time></trkpt><trkpt lat="40.7897627" lon="17.2354128"><ele>423.0</ele><time>2026-04-07T07:53:12.806Z</time></trkpt><trkpt lat="40.7898483" lon="17.2353575"><ele>423.0</ele><time>2026-04-07T07:53:14.8Z</time></trkpt><trkpt lat="40.7899264" lon="17.2352974"><ele>423.0</ele><time>2026-04-07T07:53:16.783Z</time></trkpt><trkpt lat="40.7900059" lon="17.2352299"><ele>423.0</ele><time>2026-04-07T07:53:18.794Z</time></trkpt><trkpt lat="40.7900909" lon="17.235162"><ele>423.0</ele><time>2026-04-07T07:53:20.79Z</time></trkpt><trkpt lat="40.7901731" lon="17.2350917"><ele>423.0</ele><time>2026-04-07T07:53:22.814Z</time></trkpt><trkpt lat="40.7902508" lon="17.2350297"><ele>423.0</ele><time>2026-04-07T07:53:24.795Z</time></trkpt><trkpt lat="40.7903171" lon="17.2349581"><ele>423.0</ele><time>2026-04-07T07:53:26.797Z</time></trkpt><trkpt lat="40.7903535" lon="17.2348454"><ele>423.0</ele><time>2026-04-07T07:53:28.801Z</time></trkpt><trkpt lat="40.7903362" lon="17.2347445"><ele>423.0</ele><time>2026-04-07T07:53:30.802Z</time></trkpt><trkpt lat="40.7903058" lon="17.2346571"><ele>423.0</ele><time>2026-04-07T07:53:32.807Z</time></trkpt><trkpt lat="40.7902748" lon="17.2345618"><ele>423.0</ele><time>2026-04-07T07:53:34.784Z</time></trkpt><trkpt lat="40.7902435" lon="17.2344629"><ele>423.0</ele><time>2026-04-07T07:53:36.782Z</time></trkpt><trkpt lat="40.7902092" lon="17.2343681"><ele>423.1428571428571</ele><time>2026-04-07T07:53:38.798Z</time></trkpt><trkpt lat="40.7901813" lon="17.2342741"><ele>423.28571428571433</ele><time>2026-04-07T07:53:40.8Z</time></trkpt><trkpt lat="40.7901478" lon="17.2341855"><ele>423.42857142857144</ele><time>2026-04-07T07:53:42.8Z</time></trkpt><trkpt lat="40.7901283" lon="17.2341056"><ele>423.57142857142856</ele><time>2026-04-07T07:53:44.775Z</time></trkpt><trkpt lat="40.7901037" lon="17.2340221"><ele>423.71428571428567</ele><time>2026-04-07T07:53:46.796Z</time></trkpt><trkpt lat="40.7900824" lon="17.2339363"><ele>423.8571428571429</ele><time>2026-04-07T07:53:48.772Z</time></trkpt><trkpt lat="40.790059" lon="17.2338501"><ele>424.0</ele><time>2026-04-07T07:53:50.764Z</time></trkpt><trkpt lat="40.789908" lon="17.2333441"><ele>424.2</ele><time>2026-04-07T07:54:03.773Z</time></trkpt><trkpt lat="40.7898434" lon="17.2332965"><ele>424.4</ele><time>2026-04-07T07:54:07.776Z</time></trkpt><trkpt lat="40.7898568" lon="17.2333927"><ele>424.6</ele><time>2026-04-07T07:54:33.795Z</time></trkpt><trkpt lat="40.7898868" lon="17.2334843"><ele>424.8</ele><time>2026-04-07T07:54:36.785Z</time></trkpt><trkpt lat="40.7899457" lon="17.2336391"><ele>425.0</ele><time>2026-04-07T08:00:12.766Z</time></trkpt><trkpt lat="40.790044" lon="17.234018"><ele>424.99999999999994</ele><time>2026-04-07T08:00:20.77Z</time></trkpt><trkpt lat="40.7900743" lon="17.2341103"><ele>425.0</ele><time>2026-04-07T08:00:22.762Z</time></trkpt><trkpt lat="40.7901094" lon="17.234193"><ele>425.0</ele><time>2026-04-07T08:00:24.763Z</time></trkpt><trkpt lat="40.7901354" lon="17.2342736"><ele>425.0</ele><time>2026-04-07T08:00:26.763Z</time></trkpt><trkpt lat="40.7901622" lon="17.2343513"><ele>424.99999999999994</ele><time>2026-04-07T08:00:28.774Z</time></trkpt><trkpt lat="40.7901973" lon="17.2344521"><ele>425.0</ele><time>2026-04-07T08:00:31.757Z</time></trkpt><trkpt lat="40.7902381" lon="17.2345584"><ele>424.8333333333333</ele><time>2026-04-07T08:00:34.771Z</time></trkpt><trkpt lat="40.7902809" lon="17.2346686"><ele>424.66666666666663</ele><time>2026-04-07T08:00:37.772Z</time></trkpt><trkpt lat="40.7903079" lon="17.2347473"><ele>424.5</ele><time>2026-04-07T08:00:39.785Z</time></trkpt><trkpt lat="40.7903183" lon="17.2348442"><ele>424.33333333333337</ele><time>2026-04-07T08:00:42.762Z</time></trkpt><trkpt lat="40.7902645" lon="17.2349045"><ele>424.1666666666667</ele><time>2026-04-07T08:00:44.754Z</time></trkpt><trkpt lat="40.7901963" lon="17.234952"><ele>424.0</ele><time>2026-04-07T08:00:46.767Z</time></trkpt><trkpt lat="40.7901193" lon="17.2350278"><ele>423.83333333333337</ele><time>2026-04-07T08:00:49.767Z</time></trkpt><trkpt lat="40.7900235" lon="17.2351287"><ele>423.6666666666667</ele><time>2026-04-07T08:00:53.782Z</time></trkpt><trkpt lat="40.7899648" lon="17.2351848"><ele>423.5</ele><time>2026-04-07T08:00:56.765Z</time></trkpt><trkpt lat="40.7898938" lon="17.2352618"><ele>423.33333333333337</ele><time>2026-04-07T08:00:59.747Z</time></trkpt><trkpt lat="40.7898355" lon="17.2353134"><ele>423.1666666666667</ele><time>2026-04-07T08:01:01.827Z</time></trkpt><trkpt lat="40.789765" lon="17.235345"><ele>423.0</ele><time>2026-04-07T08:01:03.767Z</time></trkpt><trkpt lat="40.7897034" lon="17.2353905"><ele>423.0</ele><time>2026-04-07T08:01:05.793Z</time></trkpt><trkpt lat="40.7896503" lon="17.2354352"><ele>423.0</ele><time>2026-04-07T08:01:07.852Z</time></trkpt><trkpt lat="40.7895714" lon="17.2354982"><ele>423.0</ele><time>2026-04-07T08:01:10.76Z</time></trkpt><trkpt lat="40.7894864" lon="17.2354847"><ele>423.0</ele><time>2026-04-07T08:01:13.778Z</time></trkpt><trkpt lat="40.7894394" lon="17.235395"><ele>423.0</ele><time>2026-04-07T08:01:16.772Z</time></trkpt><trkpt lat="40.7894189" lon="17.2353127"><ele>423.0</ele><time>2026-04-07T08:01:18.761Z</time></trkpt><trkpt lat="40.7894453" lon="17.2352115"><ele>423.0</ele><time>2026-04-07T08:01:21.768Z</time></trkpt><trkpt lat="40.7894418" lon="17.2351281"><ele>423.0</ele><time>2026-04-07T08:01:26.788Z</time></trkpt><trkpt lat="40.789422" lon="17.2350381"><ele>423.0</ele><time>2026-04-07T08:02:38.782Z</time></trkpt><trkpt lat="40.789412" lon="17.2349529"><ele>423.0</ele><time>2026-04-07T08:02:40.79Z</time></trkpt><trkpt lat="40.7894018" lon="17.2348617"><ele>423.0</ele><time>2026-04-07T08:02:42.779Z</time></trkpt><trkpt lat="40.7893973" lon="17.2347772"><ele>423.0</ele><time>2026-04-07T08:02:44.76Z</time></trkpt><trkpt lat="40.7893982" lon="17.2346806"><ele>423.0</ele><time>2026-04-07T08:02:46.761Z</time></trkpt><trkpt lat="40.789388" lon="17.2345811"><ele>423.3333333333333</ele><time>2026-04-07T08:02:48.758Z</time></trkpt><trkpt lat="40.789383" lon="17.2344717"><ele>423.66666666666663</ele><time>2026-04-07T08:02:50.788Z</time></trkpt><trkpt lat="40.7893838" lon="17.2343656"><ele>424.0</ele><time>2026-04-07T08:02:52.776Z</time></trkpt><trkpt lat="40.7893787" lon="17.2342599"><ele>424.3333333333333</ele><time>2026-04-07T08:02:54.772Z</time></trkpt><trkpt lat="40.7893605" lon="17.2341671"><ele>424.66666666666663</ele><time>2026-04-07T08:02:56.783Z</time></trkpt><trkpt lat="40.7893174" lon="17.2340826"><ele>425.0</ele><time>2026-04-07T08:02:58.759Z</time></trkpt><trkpt lat="40.7892715" lon="17.2340154"><ele>425.99999999999994</ele><time>2026-04-07T08:03:00.784Z</time></trkpt><trkpt lat="40.7892122" lon="17.233919"><ele>427.0</ele><time>2026-04-07T08:03:02.803Z</time></trkpt><trkpt lat="40.7891638" lon="17.2338217"><ele>428.0</ele><time>2026-04-07T08:03:04.769Z</time></trkpt><trkpt lat="40.7891096" lon="17.2337356"><ele>429.0</ele><time>2026-04-07T08:03:06.78Z</time></trkpt><trkpt lat="40.7890674" lon="17.2336595"><ele>429.99999999999994</ele><time>2026-04-07T08:03:08.777Z</time></trkpt><trkpt lat="40.7890267" lon="17.2335787"><ele>431.0</ele><time>2026-04-07T08:03:10.781Z</time></trkpt><trkpt lat="40.7889864" lon="17.2335101"><ele>431.0</ele><time>2026-04-07T08:03:12.784Z</time></trkpt><trkpt lat="40.7889522" lon="17.2334366"><ele>431.0</ele><time>2026-04-07T08:03:14.773Z</time></trkpt><trkpt lat="40.7889157" lon="17.2333678"><ele>431.0</ele><time>2026-04-07T08:03:16.782Z</time></trkpt><trkpt lat="40.7888772" lon="17.2332946"><ele>431.0</ele><time>2026-04-07T08:03:18.786Z</time></trkpt><trkpt lat="40.7888352" lon="17.233227"><ele>431.0</ele><time>2026-04-07T08:03:20.793Z</time></trkpt><trkpt lat="40.7887909" lon="17.2331554"><ele>431.0</ele><time>2026-04-07T08:03:22.791Z</time></trkpt><trkpt lat="40.7887462" lon="17.2330927"><ele>431.0</ele><time>2026-04-07T08:03:24.769Z</time></trkpt><trkpt lat="40.788692" lon="17.2330229"><ele>431.16666666666663</ele><time>2026-04-07T08:03:26.784Z</time></trkpt><trkpt lat="40.7886419" lon="17.2329368"><ele>431.3333333333333</ele><time>2026-04-07T08:03:28.778Z</time></trkpt><trkpt lat="40.788586" lon="17.232855"><ele>431.5</ele><time>2026-04-07T08:03:30.788Z</time></trkpt><trkpt lat="40.7885246" lon="17.2327763"><ele>431.66666666666663</ele><time>2026-04-07T08:03:32.775Z</time></trkpt><trkpt lat="40.7884611" lon="17.2327036"><ele>431.8333333333333</ele><time>2026-04-07T08:03:34.773Z</time></trkpt><trkpt lat="40.7883856" lon="17.2326017"><ele>432.0</ele><time>2026-04-07T08:03:36.777Z</time></trkpt><trkpt lat="40.7883007" lon="17.2325012"><ele>432.0</ele><time>2026-04-07T08:03:38.784Z</time></trkpt><trkpt lat="40.7882122" lon="17.2323953"><ele>432.0</ele><time>2026-04-07T08:03:40.777Z</time></trkpt><trkpt lat="40.7881279" lon="17.2322922"><ele>432.0</ele><time>2026-04-07T08:03:42.78Z</time></trkpt><trkpt lat="40.788037" lon="17.2321918"><ele>432.0</ele><time>2026-04-07T08:03:44.766Z</time></trkpt><trkpt lat="40.787933" lon="17.2321113"><ele>431.5</ele><time>2026-04-07T08:03:46.784Z</time></trkpt><trkpt lat="40.7878203" lon="17.232052"><ele>431.0</ele><time>2026-04-07T08:03:48.783Z</time></trkpt><trkpt lat="40.7877099" lon="17.2319953"><ele>430.5</ele><time>2026-04-07T08:03:50.781Z</time></trkpt><trkpt lat="40.7876016" lon="17.2319423"><ele>430.0</ele><time>2026-04-07T08:03:52.762Z</time></trkpt><trkpt lat="40.7875037" lon="17.231875"><ele>429.25</ele><time>2026-04-07T08:03:54.757Z</time></trkpt><trkpt lat="40.7874072" lon="17.2318062"><ele>428.5</ele><time>2026-04-07T08:03:56.786Z</time></trkpt><trkpt lat="40.7873203" lon="17.2317106"><ele>427.75</ele><time>2026-04-07T08:03:58.791Z</time></trkpt><trkpt lat="40.7872413" lon="17.2315881"><ele>427.0</ele><time>2026-04-07T08:04:00.787Z</time></trkpt><trkpt lat="40.7871623" lon="17.2314757"><ele>426.42857142857144</ele><time>2026-04-07T08:04:02.804Z</time></trkpt><trkpt lat="40.7871215" lon="17.2314107"><ele>425.8571428571429</ele><time>2026-04-07T08:04:03.785Z</time></trkpt><trkpt lat="40.7870783" lon="17.2313469"><ele>425.2857142857143</ele><time>2026-04-07T08:04:04.797Z</time></trkpt><trkpt lat="40.7870366" lon="17.2312799"><ele>424.7142857142857</ele><time>2026-04-07T08:04:05.792Z</time></trkpt><trkpt lat="40.7869926" lon="17.231214"><ele>424.14285714285717</ele><time>2026-04-07T08:04:06.798Z</time></trkpt><trkpt lat="40.7869445" lon="17.2311467"><ele>423.57142857142856</ele><time>2026-04-07T08:04:07.783Z</time></trkpt><trkpt lat="40.786897" lon="17.2310807"><ele>423.0</ele><time>2026-04-07T08:04:08.795Z</time></trkpt><trkpt lat="40.7868517" lon="17.2310119"><ele>422.7142857142857</ele><time>2026-04-07T08:04:09.764Z</time></trkpt><trkpt lat="40.7868078" lon="17.2309362"><ele>422.42857142857144</ele><time>2026-04-07T08:04:10.834Z</time></trkpt><trkpt lat="40.7867653" lon="17.230861"><ele>422.14285714285717</ele><time>2026-04-07T08:04:11.788Z</time></trkpt><trkpt lat="40.7867303" lon="17.230784"><ele>421.8571428571429</ele><time>2026-04-07T08:04:12.814Z</time></trkpt><trkpt lat="40.78669" lon="17.2307105"><ele>421.57142857142856</ele><time>2026-04-07T08:04:13.798Z</time></trkpt><trkpt lat="40.7866515" lon="17.2306291"><ele>421.28571428571433</ele><time>2026-04-07T08:04:14.8Z</time></trkpt><trkpt lat="40.7866179" lon="17.2305555"><ele>421.0</ele><time>2026-04-07T08:04:15.796Z</time></trkpt><trkpt lat="40.7865488" lon="17.230424"><ele>420.8</ele><time>2026-04-07T08:04:17.788Z</time></trkpt><trkpt lat="40.7864785" lon="17.2303153"><ele>420.6</ele><time>2026-04-07T08:04:19.771Z</time></trkpt><trkpt lat="40.7863895" lon="17.2302036"><ele>420.4</ele><time>2026-04-07T08:04:21.787Z</time></trkpt><trkpt lat="40.7863465" lon="17.230138"><ele>420.2</ele><time>2026-04-07T08:04:22.782Z</time></trkpt><trkpt lat="40.7862634" lon="17.2300396"><ele>420.0</ele><time>2026-04-07T08:04:24.778Z</time></trkpt><trkpt lat="40.7861777" lon="17.2300121"><ele>420.0</ele><time>2026-04-07T08:04:26.772Z</time></trkpt><trkpt lat="40.786074" lon="17.2300932"><ele>420.0</ele><time>2026-04-07T08:04:28.773Z</time></trkpt><trkpt lat="40.7859955" lon="17.2302031"><ele>420.0</ele><time>2026-04-07T08:04:30.787Z</time></trkpt><trkpt lat="40.7859182" lon="17.2303077"><ele>420.0</ele><time>2026-04-07T08:04:32.782Z</time></trkpt><trkpt lat="40.7858467" lon="17.2304138"><ele>419.5</ele><time>2026-04-07T08:04:34.787Z</time></trkpt><trkpt lat="40.7857787" lon="17.2305178"><ele>419.0</ele><time>2026-04-07T08:04:36.753Z</time></trkpt><trkpt lat="40.7857011" lon="17.2306247"><ele>418.5</ele><time>2026-04-07T08:04:38.783Z</time></trkpt><trkpt lat="40.7856335" lon="17.2307473"><ele>418.0</ele><time>2026-04-07T08:04:40.775Z</time></trkpt><trkpt lat="40.7855559" lon="17.2308684"><ele>417.83333333333337</ele><time>2026-04-07T08:04:42.794Z</time></trkpt><trkpt lat="40.7854772" lon="17.2309922"><ele>417.6666666666667</ele><time>2026-04-07T08:04:44.774Z</time></trkpt><trkpt lat="40.7854364" lon="17.2310573"><ele>417.5</ele><time>2026-04-07T08:04:45.778Z</time></trkpt><trkpt lat="40.7853951" lon="17.2311286"><ele>417.33333333333337</ele><time>2026-04-07T08:04:46.785Z</time></trkpt><trkpt lat="40.7853551" lon="17.2311946"><ele>417.1666666666667</ele><time>2026-04-07T08:04:47.784Z</time></trkpt><trkpt lat="40.7852715" lon="17.2313202"><ele>417.0</ele><time>2026-04-07T08:04:49.785Z</time></trkpt><trkpt lat="40.785228" lon="17.2313888"><ele>417.0</ele><time>2026-04-07T08:04:50.764Z</time></trkpt><trkpt lat="40.7851877" lon="17.2314541"><ele>417.0</ele><time>2026-04-07T08:04:51.792Z</time></trkpt><trkpt lat="40.7851461" lon="17.2315218"><ele>417.0</ele><time>2026-04-07T08:04:52.801Z</time></trkpt><trkpt lat="40.7851062" lon="17.2315917"><ele>417.0</ele><time>2026-04-07T08:04:53.793Z</time></trkpt><trkpt lat="40.7850666" lon="17.2316618"><ele>417.0</ele><time>2026-04-07T08:04:54.789Z</time></trkpt><trkpt lat="40.7850064" lon="17.2317525"><ele>417.0</ele><time>2026-04-07T08:04:56.796Z</time></trkpt><trkpt lat="40.7849457" lon="17.231779"><ele>417.0</ele><time>2026-04-07T08:05:03.793Z</time></trkpt><trkpt lat="40.7848754" lon="17.2318579"><ele>417.0</ele><time>2026-04-07T08:05:06.784Z</time></trkpt><trkpt lat="40.7848472" lon="17.2319498"><ele>417.0</ele><time>2026-04-07T08:05:08.783Z</time></trkpt><trkpt lat="40.7848058" lon="17.2320537"><ele>417.0</ele><time>2026-04-07T08:05:10.756Z</time></trkpt><trkpt lat="40.7847512" lon="17.2321576"><ele>417.0</ele><time>2026-04-07T08:05:12.781Z</time></trkpt><trkpt lat="40.7847049" lon="17.2322565"><ele>417.0</ele><time>2026-04-07T08:05:14.757Z</time></trkpt><trkpt lat="40.7846756" lon="17.2323365"><ele>417.0</ele><time>2026-04-07T08:05:16.772Z</time></trkpt><trkpt lat="40.7846516" lon="17.2324721"><ele>417.0</ele><time>2026-04-07T08:05:18.898Z</time></trkpt><trkpt lat="40.7846119" lon="17.2325928"><ele>417.0</ele><time>2026-04-07T08:05:20.769Z</time></trkpt><trkpt lat="40.7845487" lon="17.232709"><ele>417.0</ele><time>2026-04-07T08:05:22.788Z</time></trkpt><trkpt lat="40.7845108" lon="17.2328242"><ele>417.0</ele><time>2026-04-07T08:05:24.922Z</time></trkpt><trkpt lat="40.7844337" lon="17.2329555"><ele>417.0</ele><time>2026-04-07T08:05:27.765Z</time></trkpt><trkpt lat="40.7843925" lon="17.2330464"><ele>417.0</ele><time>2026-04-07T08:05:31.837Z</time></trkpt><trkpt lat="40.784414" lon="17.2331353"><ele>417.0</ele><time>2026-04-07T08:05:33.795Z</time></trkpt><trkpt lat="40.7844489" lon="17.2332222"><ele>417.0</ele><time>2026-04-07T08:05:35.772Z</time></trkpt><trkpt lat="40.7845156" lon="17.2332925"><ele>417.0</ele><time>2026-04-07T08:05:37.772Z</time></trkpt><trkpt lat="40.7845856" lon="17.2333596"><ele>417.0</ele><time>2026-04-07T08:05:39.934Z</time></trkpt><trkpt lat="40.7846318" lon="17.2334193"><ele>417.0</ele><time>2026-04-07T08:05:41.766Z</time></trkpt><trkpt lat="40.7846855" lon="17.2334886"><ele>417.2857142857143</ele><time>2026-04-07T08:05:43.758Z</time></trkpt><trkpt lat="40.7847434" lon="17.2335517"><ele>417.57142857142856</ele><time>2026-04-07T08:05:45.761Z</time></trkpt><trkpt lat="40.7847974" lon="17.2336256"><ele>417.85714285714283</ele><time>2026-04-07T08:05:47.801Z</time></trkpt><trkpt lat="40.7848545" lon="17.2337048"><ele>418.1428571428571</ele><time>2026-04-07T08:05:49.798Z</time></trkpt><trkpt lat="40.7849125" lon="17.2337588"><ele>418.42857142857144</ele><time>2026-04-07T08:05:51.78Z</time></trkpt><trkpt lat="40.7849666" lon="17.2338227"><ele>418.71428571428567</ele><time>2026-04-07T08:05:53.774Z</time></trkpt><trkpt lat="40.7850188" lon="17.2338711"><ele>419.0</ele><time>2026-04-07T08:05:55.771Z</time></trkpt><trkpt lat="40.7850661" lon="17.2339407"><ele>419.2857142857143</ele><time>2026-04-07T08:05:57.757Z</time></trkpt><trkpt lat="40.7851099" lon="17.2340055"><ele>419.57142857142856</ele><time>2026-04-07T08:05:59.789Z</time></trkpt><trkpt lat="40.7851486" lon="17.2340714"><ele>419.8571428571429</ele><time>2026-04-07T08:06:01.782Z</time></trkpt><trkpt lat="40.7851773" lon="17.2341455"><ele>420.1428571428571</ele><time>2026-04-07T08:06:03.901Z</time></trkpt><trkpt lat="40.7852164" lon="17.2342303"><ele>420.42857142857144</ele><time>2026-04-07T08:06:05.751Z</time></trkpt><trkpt lat="40.7852486" lon="17.2343139"><ele>420.7142857142857</ele><time>2026-04-07T08:06:07.775Z</time></trkpt><trkpt lat="40.7852819" lon="17.2343952"><ele>421.0</ele><time>2026-04-07T08:06:09.828Z</time></trkpt><trkpt lat="40.7853182" lon="17.2345105"><ele>421.1666666666667</ele><time>2026-04-07T08:06:12.761Z</time></trkpt><trkpt lat="40.7853335" lon="17.2346024"><ele>421.33333333333337</ele><time>2026-04-07T08:06:14.788Z</time></trkpt><trkpt lat="40.785385" lon="17.2347022"><ele>421.5</ele><time>2026-04-07T08:06:17.777Z</time></trkpt><trkpt lat="40.7854163" lon="17.2347749"><ele>421.66666666666663</ele><time>2026-04-07T08:06:19.778Z</time></trkpt><trkpt lat="40.78546" lon="17.2348877"><ele>421.8333333333333</ele><time>2026-04-07T08:06:22.772Z</time></trkpt><trkpt lat="40.7854938" lon="17.2349627"><ele>422.0</ele><time>2026-04-07T08:06:24.785Z</time></trkpt><trkpt lat="40.78553" lon="17.2350717"><ele>422.16666666666663</ele><time>2026-04-07T08:06:27.783Z</time></trkpt><trkpt lat="40.785564" lon="17.2351748"><ele>422.3333333333333</ele><time>2026-04-07T08:06:30.787Z</time></trkpt><trkpt lat="40.7856072" lon="17.2352759"><ele>422.5</ele><time>2026-04-07T08:06:33.76Z</time></trkpt><trkpt lat="40.7856535" lon="17.2353714"><ele>422.66666666666663</ele><time>2026-04-07T08:06:36.932Z</time></trkpt><trkpt lat="40.7856775" lon="17.2354487"><ele>422.8333333333333</ele><time>2026-04-07T08:06:38.794Z</time></trkpt><trkpt lat="40.7857109" lon="17.2355302"><ele>423.0</ele><time>2026-04-07T08:06:40.921Z</time></trkpt><trkpt lat="40.7857507" lon="17.2356318"><ele>423.3333333333333</ele><time>2026-04-07T08:06:43.787Z</time></trkpt><trkpt lat="40.7857904" lon="17.2357329"><ele>423.66666666666663</ele><time>2026-04-07T08:06:46.774Z</time></trkpt><trkpt lat="40.7858415" lon="17.2358365"><ele>424.0</ele><time>2026-04-07T08:06:49.785Z</time></trkpt><trkpt lat="40.7858992" lon="17.2359745"><ele>424.3333333333333</ele><time>2026-04-07T08:06:53.769Z</time></trkpt><trkpt lat="40.7859437" lon="17.2360691"><ele>424.66666666666663</ele><time>2026-04-07T08:06:56.836Z</time></trkpt><trkpt lat="40.7859744" lon="17.2361441"><ele>425.0</ele><time>2026-04-07T08:06:58.785Z</time></trkpt><trkpt lat="40.785987" lon="17.2362419"><ele>424.99999999999994</ele><time>2026-04-07T08:07:01.769Z</time></trkpt><trkpt lat="40.7859292" lon="17.2363206"><ele>425.0</ele><time>2026-04-07T08:07:04.903Z</time></trkpt><trkpt lat="40.7858471" lon="17.2363599"><ele>425.0</ele><time>2026-04-07T08:07:07.832Z</time></trkpt><trkpt lat="40.7857677" lon="17.2364083"><ele>425.0</ele><time>2026-04-07T08:07:10.776Z</time></trkpt><trkpt lat="40.7856957" lon="17.2364402"><ele>424.99999999999994</ele><time>2026-04-07T08:07:13.777Z</time></trkpt><trkpt lat="40.7856368" lon="17.2364797"><ele>425.0</ele><time>2026-04-07T08:07:15.775Z</time></trkpt><trkpt lat="40.7855767" lon="17.2365262"><ele>424.5</ele><time>2026-04-07T08:07:17.77Z</time></trkpt><trkpt lat="40.7855444" lon="17.2366072"><ele>424.0</ele><time>2026-04-07T08:07:20.775Z</time></trkpt><trkpt lat="40.7845321" lon="17.2371792"><ele>422.5</ele><time>2026-04-07T08:09:46.759Z</time></trkpt><trkpt lat="40.7842293" lon="17.2374929"><ele>421.0</ele><time>2026-04-07T08:09:55.757Z</time></trkpt><trkpt lat="40.784165" lon="17.2375898"><ele>421.00000000000006</ele><time>2026-04-07T08:09:57.752Z</time></trkpt><trkpt lat="40.7841039" lon="17.2376988"><ele>421.0</ele><time>2026-04-07T08:09:59.763Z</time></trkpt><trkpt lat="40.7840451" lon="17.2377879"><ele>421.0</ele><time>2026-04-07T08:10:01.766Z</time></trkpt><trkpt lat="40.7839925" lon="17.2378612"><ele>421.0</ele><time>2026-04-07T08:10:03.767Z</time></trkpt><trkpt lat="40.7839345" lon="17.2379245"><ele>421.00000000000006</ele><time>2026-04-07T08:10:05.751Z</time></trkpt><trkpt lat="40.7838877" lon="17.2379879"><ele>421.0</ele><time>2026-04-07T08:10:07.759Z</time></trkpt><trkpt lat="40.783818" lon="17.2380543"><ele>421.0</ele><time>2026-04-07T08:10:10.751Z</time></trkpt><trkpt lat="40.783754" lon="17.2380651"><ele>421.0</ele><time>2026-04-07T08:10:13.75Z</time></trkpt><trkpt lat="40.7836719" lon="17.2381606"><ele>421.0</ele><time>2026-04-07T08:10:18.752Z</time></trkpt><trkpt lat="40.7835983" lon="17.2384248"><ele>421.0</ele><time>2026-04-07T08:10:24.778Z</time></trkpt><trkpt lat="40.7835971" lon="17.2385423"><ele>421.42857142857144</ele><time>2026-04-07T08:10:26.765Z</time></trkpt><trkpt lat="40.7836579" lon="17.2386172"><ele>421.8571428571429</ele><time>2026-04-07T08:10:29.78Z</time></trkpt><trkpt lat="40.7837206" lon="17.238649"><ele>422.28571428571433</ele><time>2026-04-07T08:10:34.754Z</time></trkpt><trkpt lat="40.7837732" lon="17.2387"><ele>422.7142857142857</ele><time>2026-04-07T08:10:42.755Z</time></trkpt><trkpt lat="40.7838214" lon="17.2387672"><ele>423.1428571428571</ele><time>2026-04-07T08:10:50.75Z</time></trkpt><trkpt lat="40.7838983" lon="17.2387499"><ele>423.5714285714286</ele><time>2026-04-07T08:10:54.746Z</time></trkpt><trkpt lat="40.7839574" lon="17.238715"><ele>424.0</ele><time>2026-04-07T08:11:00.757Z</time></trkpt><trkpt lat="40.7840219" lon="17.2387102"><ele>424.0</ele><time>2026-04-07T08:11:12.754Z</time></trkpt><trkpt lat="40.7840152" lon="17.2388189"><ele>424.0</ele><time>2026-04-07T08:11:16.756Z</time></trkpt><trkpt lat="40.7840113" lon="17.2389048"><ele>424.0</ele><time>2026-04-07T08:11:18.774Z</time></trkpt><trkpt lat="40.784018" lon="17.2389957"><ele>424.0</ele><time>2026-04-07T08:11:20.777Z</time></trkpt><trkpt lat="40.7840221" lon="17.2390791"><ele>424.0</ele><time>2026-04-07T08:11:22.766Z</time></trkpt><trkpt lat="40.7839878" lon="17.2391522"><ele>424.0</ele><time>2026-04-07T08:11:24.78Z</time></trkpt><trkpt lat="40.7839623" lon="17.2392526"><ele>424.0</ele><time>2026-04-07T08:11:27.778Z</time></trkpt><trkpt lat="40.7839236" lon="17.2393289"><ele>423.50000000000006</ele><time>2026-04-07T08:11:30.766Z</time></trkpt><trkpt lat="40.7838328" lon="17.2393462"><ele>423.0</ele><time>2026-04-07T08:13:06.77Z</time></trkpt><trkpt lat="40.7837491" lon="17.2393473"><ele>422.5</ele><time>2026-04-07T08:13:10.774Z</time></trkpt><trkpt lat="40.7836716" lon="17.2393802"><ele>422.0</ele><time>2026-04-07T08:13:13.766Z</time></trkpt><trkpt lat="40.7836075" lon="17.2394155"><ele>421.50000000000006</ele><time>2026-04-07T08:13:16.771Z</time></trkpt><trkpt lat="40.7835359" lon="17.2394363"><ele>421.0</ele><time>2026-04-07T08:13:19.764Z</time></trkpt><trkpt lat="40.7834707" lon="17.2394847"><ele>420.50000000000006</ele><time>2026-04-07T08:13:22.749Z</time></trkpt><trkpt lat="40.7834074" lon="17.2395568"><ele>420.0</ele><time>2026-04-07T08:13:25.753Z</time></trkpt><trkpt lat="40.7833512" lon="17.2396068"><ele>419.5</ele><time>2026-04-07T08:13:28.761Z</time></trkpt><trkpt lat="40.7832798" lon="17.2396598"><ele>419.0</ele><time>2026-04-07T08:13:31.763Z</time></trkpt><trkpt lat="40.7832125" lon="17.2396586"><ele>418.50000000000006</ele><time>2026-04-07T08:13:34.74Z</time></trkpt><trkpt lat="40.7831351" lon="17.2396456"><ele>418.0</ele><time>2026-04-07T08:13:38.739Z</time></trkpt><trkpt lat="40.7830505" lon="17.2396721"><ele>418.0</ele><time>2026-04-07T08:13:41.739Z</time></trkpt><trkpt lat="40.7830042" lon="17.2397477"><ele>418.0</ele><time>2026-04-07T08:13:43.753Z</time></trkpt><trkpt lat="40.7829882" lon="17.2398664"><ele>418.0</ele><time>2026-04-07T08:13:46.764Z</time></trkpt><trkpt lat="40.7829709" lon="17.239949"><ele>418.0</ele><time>2026-04-07T08:13:48.776Z</time></trkpt><trkpt lat="40.7829636" lon="17.2400366"><ele>418.0</ele><time>2026-04-07T08:13:50.77Z</time></trkpt><trkpt lat="40.7829302" lon="17.2401202"><ele>418.0</ele><time>2026-04-07T08:13:52.767Z</time></trkpt><trkpt lat="40.7828615" lon="17.2401624"><ele>418.0</ele><time>2026-04-07T08:13:54.78Z</time></trkpt><trkpt lat="40.7827598" lon="17.2402325"><ele>418.0</ele><time>2026-04-07T08:13:57.764Z</time></trkpt><trkpt lat="40.7826974" lon="17.2403201"><ele>418.0</ele><time>2026-04-07T08:13:59.746Z</time></trkpt><trkpt lat="40.7826473" lon="17.2404214"><ele>418.0</ele><time>2026-04-07T08:14:01.769Z</time></trkpt><trkpt lat="40.7825948" lon="17.2405185"><ele>418.0</ele><time>2026-04-07T08:14:03.764Z</time></trkpt><trkpt lat="40.7825623" lon="17.2406278"><ele>418.0</ele><time>2026-04-07T08:14:05.751Z</time></trkpt><trkpt lat="40.7825645" lon="17.2407508"><ele>417.0</ele><time>2026-04-07T08:14:07.761Z</time></trkpt><trkpt lat="40.7825722" lon="17.2408791"><ele>416.0</ele><time>2026-04-07T08:14:09.777Z</time></trkpt><trkpt lat="40.7825807" lon="17.2409805"><ele>415.0</ele><time>2026-04-07T08:14:11.769Z</time></trkpt><trkpt lat="40.7825893" lon="17.2410667"><ele>414.0</ele><time>2026-04-07T08:14:13.775Z</time></trkpt><trkpt lat="40.7825924" lon="17.2411552"><ele>413.0</ele><time>2026-04-07T08:14:15.759Z</time></trkpt><trkpt lat="40.7825965" lon="17.2412406"><ele>412.0</ele><time>2026-04-07T08:14:17.772Z</time></trkpt><trkpt lat="40.7825546" lon="17.2413247"><ele>411.0</ele><time>2026-04-07T08:14:20.777Z</time></trkpt><trkpt lat="40.7824897" lon="17.2413409"><ele>411.0</ele><time>2026-04-07T08:14:22.772Z</time></trkpt><trkpt lat="40.7824249" lon="17.2413602"><ele>411.0</ele><time>2026-04-07T08:14:24.781Z</time></trkpt><trkpt lat="40.7823477" lon="17.2413564"><ele>411.0</ele><time>2026-04-07T08:14:26.772Z</time></trkpt><trkpt lat="40.7822716" lon="17.2413723"><ele>411.0</ele><time>2026-04-07T08:14:28.774Z</time></trkpt><trkpt lat="40.7822114" lon="17.2413991"><ele>411.0</ele><time>2026-04-07T08:14:30.767Z</time></trkpt><trkpt lat="40.7822646" lon="17.2414474"><ele>411.0</ele><time>2026-04-07T08:14:33.755Z</time></trkpt><trkpt lat="40.7823226" lon="17.2414002"><ele>411.0</ele><time>2026-04-07T08:14:35.857Z</time></trkpt><trkpt lat="40.7823882" lon="17.2413628"><ele>411.0</ele><time>2026-04-07T08:14:37.786Z</time></trkpt><trkpt lat="40.7824691" lon="17.2413402"><ele>411.0</ele><time>2026-04-07T08:14:40.753Z</time></trkpt><trkpt lat="40.7825385" lon="17.2413126"><ele>411.0</ele><time>2026-04-07T08:14:43.782Z</time></trkpt><trkpt lat="40.7826142" lon="17.2413007"><ele>411.0</ele><time>2026-04-07T08:14:47.767Z</time></trkpt><trkpt lat="40.7827093" lon="17.2412886"><ele>411.0</ele><time>2026-04-07T08:14:50.767Z</time></trkpt><trkpt lat="40.7827973" lon="17.2412636"><ele>411.0</ele><time>2026-04-07T08:14:53.771Z</time></trkpt><trkpt lat="40.7828582" lon="17.2412311"><ele>411.5</ele><time>2026-04-07T08:14:55.77Z</time></trkpt><trkpt lat="40.7829235" lon="17.2412023"><ele>412.0</ele><time>2026-04-07T08:14:57.775Z</time></trkpt><trkpt lat="40.7830021" lon="17.2411692"><ele>412.5</ele><time>2026-04-07T08:15:00.785Z</time></trkpt><trkpt lat="40.7830784" lon="17.2410994"><ele>413.0</ele><time>2026-04-07T08:15:03.769Z</time></trkpt><trkpt lat="40.7831524" lon="17.241036"><ele>413.5</ele><time>2026-04-07T08:15:06.763Z</time></trkpt><trkpt lat="40.7832164" lon="17.2409631"><ele>414.0</ele><time>2026-04-07T08:15:09.773Z</time></trkpt><trkpt lat="40.7832901" lon="17.2408903"><ele>414.0</ele><time>2026-04-07T08:15:12.747Z</time></trkpt><trkpt lat="40.7833671" lon="17.2408541"><ele>414.0</ele><time>2026-04-07T08:15:15.773Z</time></trkpt><trkpt lat="40.7834497" lon="17.2408245"><ele>414.0</ele><time>2026-04-07T08:15:18.777Z</time></trkpt><trkpt lat="40.7835344" lon="17.2407959"><ele>414.0</ele><time>2026-04-07T08:15:21.771Z</time></trkpt><trkpt lat="40.783613" lon="17.2407644"><ele>414.0</ele><time>2026-04-07T08:15:24.778Z</time></trkpt><trkpt lat="40.7836735" lon="17.2407399"><ele>414.0</ele><time>2026-04-07T08:15:40.765Z</time></trkpt><trkpt lat="40.7837319" lon="17.2406814"><ele>414.5714285714286</ele><time>2026-04-07T08:15:43.782Z</time></trkpt><trkpt lat="40.7837807" lon="17.2406287"><ele>415.14285714285717</ele><time>2026-04-07T08:15:45.786Z</time></trkpt><trkpt lat="40.7838325" lon="17.2405679"><ele>415.7142857142857</ele><time>2026-04-07T08:15:47.773Z</time></trkpt><trkpt lat="40.783894" lon="17.240477"><ele>416.28571428571433</ele><time>2026-04-07T08:15:50.764Z</time></trkpt><trkpt lat="40.7839317" lon="17.2403894"><ele>416.85714285714283</ele><time>2026-04-07T08:15:52.767Z</time></trkpt><trkpt lat="40.7839661" lon="17.2403059"><ele>417.42857142857144</ele><time>2026-04-07T08:15:54.79Z</time></trkpt><trkpt lat="40.7839927" lon="17.240213"><ele>418.0</ele><time>2026-04-07T08:15:56.765Z</time></trkpt><trkpt lat="40.7840216" lon="17.2401274"><ele>418.00000000000006</ele><time>2026-04-07T08:15:58.759Z</time></trkpt><trkpt lat="40.7840448" lon="17.2400477"><ele>418.0</ele><time>2026-04-07T08:16:00.757Z</time></trkpt><trkpt lat="40.7840752" lon="17.2399466"><ele>418.0</ele><time>2026-04-07T08:16:03.774Z</time></trkpt><trkpt lat="40.7841018" lon="17.2398616"><ele>418.0</ele><time>2026-04-07T08:16:06.785Z</time></trkpt><trkpt lat="40.7840538" lon="17.2397053"><ele>418.00000000000006</ele><time>2026-04-07T08:16:10.774Z</time></trkpt><trkpt lat="40.7840269" lon="17.2395912"><ele>418.0</ele><time>2026-04-07T08:16:13.764Z</time></trkpt><trkpt lat="40.7840249" lon="17.2394847"><ele>418.50000000000006</ele><time>2026-04-07T08:16:16.782Z</time></trkpt><trkpt lat="40.7840035" lon="17.2393809"><ele>419.0</ele><time>2026-04-07T08:16:20.781Z</time></trkpt><trkpt lat="40.7839386" lon="17.2393305"><ele>419.5</ele><time>2026-04-07T08:16:23.768Z</time></trkpt><trkpt lat="40.7838597" lon="17.2393255"><ele>420.0</ele><time>2026-04-07T08:16:26.907Z</time></trkpt><trkpt lat="40.7838074" lon="17.2392712"><ele>420.50000000000006</ele><time>2026-04-07T08:16:29.801Z</time></trkpt><trkpt lat="40.7838888" lon="17.2392661"><ele>421.0</ele><time>2026-04-07T08:16:38.78Z</time></trkpt><trkpt lat="40.7839675" lon="17.239216"><ele>421.00000000000006</ele><time>2026-04-07T08:16:41.929Z</time></trkpt><trkpt lat="40.7839977" lon="17.2391229"><ele>421.0</ele><time>2026-04-07T08:16:44.758Z</time></trkpt><trkpt lat="40.7840405" lon="17.2390344"><ele>421.0</ele><time>2026-04-07T08:16:47.779Z</time></trkpt><trkpt lat="40.7840728" lon="17.2389473"><ele>421.0</ele><time>2026-04-07T08:16:50.78Z</time></trkpt><trkpt lat="40.7840534" lon="17.2388658"><ele>421.0</ele><time>2026-04-07T08:16:55.759Z</time></trkpt><trkpt lat="40.784099" lon="17.2389358"><ele>421.00000000000006</ele><time>2026-04-07T08:17:00.798Z</time></trkpt><trkpt lat="40.7841547" lon="17.2388813"><ele>421.0</ele><time>2026-04-07T08:17:02.774Z</time></trkpt><trkpt lat="40.7842025" lon="17.238822"><ele>421.50000000000006</ele><time>2026-04-07T08:17:04.775Z</time></trkpt><trkpt lat="40.7842419" lon="17.2387251"><ele>422.0</ele><time>2026-04-07T08:17:07.772Z</time></trkpt><trkpt lat="40.7841845" lon="17.2386367"><ele>422.5</ele><time>2026-04-07T08:17:09.747Z</time></trkpt><trkpt lat="40.7841218" lon="17.2385739"><ele>423.0</ele><time>2026-04-07T08:17:11.761Z</time></trkpt><trkpt lat="40.7840721" lon="17.2385187"><ele>423.50000000000006</ele><time>2026-04-07T08:17:13.776Z</time></trkpt><trkpt lat="40.7840464" lon="17.2384242"><ele>424.0</ele><time>2026-04-07T08:17:16.768Z</time></trkpt><trkpt lat="40.7840273" lon="17.2383355"><ele>424.00000000000006</ele><time>2026-04-07T08:17:18.767Z</time></trkpt><trkpt lat="40.7839954" lon="17.2382444"><ele>424.0</ele><time>2026-04-07T08:17:20.94Z</time></trkpt><trkpt lat="40.7839593" lon="17.2381724"><ele>424.0</ele><time>2026-04-07T08:17:22.759Z</time></trkpt><trkpt lat="40.7839266" lon="17.23809"><ele>424.0</ele><time>2026-04-07T08:17:24.846Z</time></trkpt><trkpt lat="40.7838347" lon="17.2380369"><ele>424.00000000000006</ele><time>2026-04-07T08:17:27.774Z</time></trkpt><trkpt lat="40.7837608" lon="17.2380616"><ele>424.0</ele><time>2026-04-07T08:17:29.766Z</time></trkpt><trkpt lat="40.7836783" lon="17.2380483"><ele>423.5714285714286</ele><time>2026-04-07T08:17:32.79Z</time></trkpt><trkpt lat="40.7836825" lon="17.2379642"><ele>423.1428571428571</ele><time>2026-04-07T08:17:35.777Z</time></trkpt><trkpt lat="40.7837054" lon="17.2380425"><ele>422.7142857142857</ele><time>2026-04-07T08:17:51.748Z</time></trkpt><trkpt lat="40.7837816" lon="17.2380725"><ele>422.28571428571433</ele><time>2026-04-07T08:17:58.777Z</time></trkpt><trkpt lat="40.7838455" lon="17.2380729"><ele>421.8571428571429</ele><time>2026-04-07T08:18:00.77Z</time></trkpt><trkpt lat="40.7839043" lon="17.2380311"><ele>421.42857142857144</ele><time>2026-04-07T08:18:02.756Z</time></trkpt><trkpt lat="40.783958" lon="17.2379551"><ele>421.0</ele><time>2026-04-07T08:18:04.765Z</time></trkpt><trkpt lat="40.7840345" lon="17.2378533"><ele>421.00000000000006</ele><time>2026-04-07T08:18:06.777Z</time></trkpt><trkpt lat="40.7840912" lon="17.2377326"><ele>421.0</ele><time>2026-04-07T08:18:08.749Z</time></trkpt><trkpt lat="40.7841103" lon="17.2376154"><ele>421.0</ele><time>2026-04-07T08:18:10.77Z</time></trkpt><trkpt lat="40.7840797" lon="17.2375077"><ele>421.0</ele><time>2026-04-07T08:18:12.753Z</time></trkpt><trkpt lat="40.7840151" lon="17.2375009"><ele>421.00000000000006</ele><time>2026-04-07T08:18:14.767Z</time></trkpt><trkpt lat="40.7839452" lon="17.2374974"><ele>421.0</ele><time>2026-04-07T08:18:17.765Z</time></trkpt><trkpt lat="40.7838784" lon="17.2374974"><ele>421.00000000000006</ele><time>2026-04-07T08:18:20.745Z</time></trkpt><trkpt lat="40.7838112" lon="17.2374979"><ele>421.0</ele><time>2026-04-07T08:18:22.753Z</time></trkpt><trkpt lat="40.7837197" lon="17.2375015"><ele>421.0</ele><time>2026-04-07T08:18:24.776Z</time></trkpt><trkpt lat="40.783634" lon="17.2375078"><ele>421.0</ele><time>2026-04-07T08:18:26.768Z</time></trkpt><trkpt lat="40.7835335" lon="17.2375254"><ele>421.00000000000006</ele><time>2026-04-07T08:18:29.748Z</time></trkpt><trkpt lat="40.7834356" lon="17.2375415"><ele>421.0</ele><time>2026-04-07T08:18:31.766Z</time></trkpt><trkpt lat="40.7833315" lon="17.2375643"><ele>420.00000000000006</ele><time>2026-04-07T08:18:33.769Z</time></trkpt><trkpt lat="40.7832388" lon="17.2376094"><ele>419.0</ele><time>2026-04-07T08:18:35.736Z</time></trkpt><trkpt lat="40.7831685" lon="17.2376444"><ele>418.0</ele><time>2026-04-07T08:18:37.759Z</time></trkpt><trkpt lat="40.7831052" lon="17.2376078"><ele>417.0</ele><time>2026-04-07T08:18:39.766Z</time></trkpt><trkpt lat="40.783056" lon="17.2375256"><ele>416.00000000000006</ele><time>2026-04-07T08:18:41.784Z</time></trkpt><trkpt lat="40.7830509" lon="17.2374245"><ele>415.0</ele><time>2026-04-07T08:18:43.765Z</time></trkpt><trkpt lat="40.7830616" lon="17.2373303"><ele>414.2</ele><time>2026-04-07T08:18:45.756Z</time></trkpt><trkpt lat="40.7830827" lon="17.2372372"><ele>413.4</ele><time>2026-04-07T08:18:47.747Z</time></trkpt><trkpt lat="40.7831126" lon="17.2371107"><ele>412.6</ele><time>2026-04-07T08:18:49.771Z</time></trkpt><trkpt lat="40.7831469" lon="17.2369805"><ele>411.8</ele><time>2026-04-07T08:18:51.788Z</time></trkpt><trkpt lat="40.7831739" lon="17.236866"><ele>411.0</ele><time>2026-04-07T08:18:53.776Z</time></trkpt><trkpt lat="40.7831949" lon="17.2367571"><ele>411.0</ele><time>2026-04-07T08:18:55.771Z</time></trkpt><trkpt lat="40.7832173" lon="17.2366684"><ele>411.0</ele><time>2026-04-07T08:18:57.776Z</time></trkpt><trkpt lat="40.7832563" lon="17.2365614"><ele>411.0</ele><time>2026-04-07T08:19:00.771Z</time></trkpt><trkpt lat="40.7832898" lon="17.236479"><ele>411.0</ele><time>2026-04-07T08:19:02.77Z</time></trkpt><trkpt lat="40.7833206" lon="17.236392"><ele>411.0</ele><time>2026-04-07T08:19:04.787Z</time></trkpt><trkpt lat="40.7833496" lon="17.2363076"><ele>411.0</ele><time>2026-04-07T08:19:06.741Z</time></trkpt><trkpt lat="40.7833915" lon="17.2362214"><ele>411.1428571428571</ele><time>2026-04-07T08:19:08.77Z</time></trkpt><trkpt lat="40.7834358" lon="17.2361193"><ele>411.2857142857143</ele><time>2026-04-07T08:19:11.774Z</time></trkpt><trkpt lat="40.7834674" lon="17.2360208"><ele>411.42857142857144</ele><time>2026-04-07T08:19:14.786Z</time></trkpt><trkpt lat="40.7835095" lon="17.2359564"><ele>411.57142857142856</ele><time>2026-04-07T08:19:18.773Z</time></trkpt><trkpt lat="40.7835587" lon="17.2358919"><ele>411.7142857142857</ele><time>2026-04-07T08:19:23.769Z</time></trkpt><trkpt lat="40.7835642" lon="17.2358056"><ele>411.85714285714283</ele><time>2026-04-07T08:19:26.775Z</time></trkpt><trkpt lat="40.7835391" lon="17.2357212"><ele>412.0</ele><time>2026-04-07T08:19:32.787Z</time></trkpt><trkpt lat="40.783542" lon="17.2356192"><ele>412.00000000000006</ele><time>2026-04-07T08:19:36.79Z</time></trkpt><trkpt lat="40.7835025" lon="17.2357019"><ele>412.0</ele><time>2026-04-07T08:19:42.781Z</time></trkpt><trkpt lat="40.7834958" lon="17.235827"><ele>412.0</ele><time>2026-04-07T08:19:45.758Z</time></trkpt><trkpt lat="40.7834634" lon="17.2359314"><ele>412.0</ele><time>2026-04-07T08:19:47.772Z</time></trkpt><trkpt lat="40.7834234" lon="17.2360298"><ele>412.00000000000006</ele><time>2026-04-07T08:19:49.772Z</time></trkpt><trkpt lat="40.7833932" lon="17.2361242"><ele>412.0</ele><time>2026-04-07T08:19:51.779Z</time></trkpt><trkpt lat="40.7833593" lon="17.2362151"><ele>411.99999999999994</ele><time>2026-04-07T08:19:53.788Z</time></trkpt><trkpt lat="40.783333" lon="17.2363"><ele>412.0</ele><time>2026-04-07T08:19:55.786Z</time></trkpt><trkpt lat="40.7832995" lon="17.2363968"><ele>412.0</ele><time>2026-04-07T08:19:57.769Z</time></trkpt><trkpt lat="40.7832605" lon="17.2364842"><ele>412.0</ele><time>2026-04-07T08:19:59.767Z</time></trkpt><trkpt lat="40.7832277" lon="17.236568"><ele>412.0</ele><time>2026-04-07T08:20:01.761Z</time></trkpt><trkpt lat="40.7831664" lon="17.2366112"><ele>411.99999999999994</ele><time>2026-04-07T08:20:03.759Z</time></trkpt><trkpt lat="40.783103" lon="17.2365523"><ele>412.0</ele><time>2026-04-07T08:20:05.786Z</time></trkpt><trkpt lat="40.7830554" lon="17.2364935"><ele>411.99999999999994</ele><time>2026-04-07T08:20:07.768Z</time></trkpt><trkpt lat="40.7830157" lon="17.2364164"><ele>412.0</ele><time>2026-04-07T08:20:09.766Z</time></trkpt><trkpt lat="40.7829685" lon="17.2363313"><ele>412.0</ele><time>2026-04-07T08:20:12.761Z</time></trkpt><trkpt lat="40.7829113" lon="17.2362427"><ele>412.0</ele><time>2026-04-07T08:20:16.76Z</time></trkpt><trkpt lat="40.7828304" lon="17.2362426"><ele>412.0</ele><time>2026-04-07T08:20:19.785Z</time></trkpt><trkpt lat="40.7827707" lon="17.236273"><ele>411.99999999999994</ele><time>2026-04-07T08:20:21.76Z</time></trkpt><trkpt lat="40.7827094" lon="17.2362972"><ele>412.0</ele><time>2026-04-07T08:20:24.775Z</time></trkpt><trkpt lat="40.7826679" lon="17.2363645"><ele>412.71428571428567</ele><time>2026-04-07T08:20:33.764Z</time></trkpt><trkpt lat="40.7826112" lon="17.2364029"><ele>413.42857142857144</ele><time>2026-04-07T08:21:23.738Z</time></trkpt><trkpt lat="40.7825346" lon="17.236391"><ele>414.1428571428571</ele><time>2026-04-07T08:21:29.764Z</time></trkpt><trkpt lat="40.7824763" lon="17.2364306"><ele>414.85714285714283</ele><time>2026-04-07T08:21:33.75Z</time></trkpt><trkpt lat="40.7824267" lon="17.2364863"><ele>415.57142857142856</ele><time>2026-04-07T08:21:36.756Z</time></trkpt><trkpt lat="40.782515" lon="17.2364844"><ele>416.2857142857143</ele><time>2026-04-07T08:21:41.74Z</time></trkpt><trkpt lat="40.7826041" lon="17.236478"><ele>417.0</ele><time>2026-04-07T08:22:00.733Z</time></trkpt><trkpt lat="40.7825957" lon="17.2365809"><ele>416.33333333333337</ele><time>2026-04-07T08:28:24.374Z</time></trkpt><trkpt lat="40.7827331" lon="17.2368174"><ele>415.6666666666667</ele><time>2026-04-07T08:28:30.413Z</time></trkpt><trkpt lat="40.7829147" lon="17.2369622"><ele>415.0</ele><time>2026-04-07T08:28:37.43Z</time></trkpt><trkpt lat="40.7831283" lon="17.2373746"><ele>413.0</ele><time>2026-04-07T08:28:44.15Z</time></trkpt><trkpt lat="40.782977" lon="17.2371358"><ele>411.0</ele><time>2026-04-07T08:29:14.886Z</time></trkpt><trkpt lat="40.7834066" lon="17.2367468"><ele>411.0</ele><time>2026-04-07T08:37:44.609Z</time></trkpt><trkpt lat="40.7832445" lon="17.2365195"><ele>411.0</ele><time>2026-04-07T08:37:50.633Z</time></trkpt><trkpt lat="40.7832304" lon="17.236275"><ele>411.0</ele><time>2026-04-07T08:38:02.587Z</time></trkpt><trkpt lat="40.7834151" lon="17.2358499"><ele>416.0</ele><time>2026-04-07T08:38:21.443Z</time></trkpt><trkpt lat="40.7839054" lon="17.2354359"><ele>416.0</ele><time>2026-04-07T08:38:28.224Z</time></trkpt><trkpt lat="40.7840133" lon="17.235308"><ele>416.0</ele><time>2026-04-07T08:38:35.012Z</time></trkpt><trkpt lat="40.7840576" lon="17.2350901"><ele>416.0</ele><time>2026-04-07T08:38:41.096Z</time></trkpt><trkpt lat="40.7839407" lon="17.2348977"><ele>416.0</ele><time>2026-04-07T08:38:47.226Z</time></trkpt><trkpt lat="40.784048" lon="17.2346253"><ele>416.0</ele><time>2026-04-07T08:38:53.405Z</time></trkpt><trkpt lat="40.7840857" lon="17.2344539"><ele>416.0</ele><time>2026-04-07T08:38:59.74Z</time></trkpt><trkpt lat="40.784147" lon="17.2340266"><ele>416.0</ele><time>2026-04-07T08:39:06.101Z</time></trkpt><trkpt lat="40.7841782" lon="17.2336748"><ele>416.0</ele><time>2026-04-07T08:39:12.451Z</time></trkpt><trkpt lat="40.7843716" lon="17.2332162"><ele>416.25</ele><time>2026-04-07T08:39:18.803Z</time></trkpt><trkpt lat="40.7844468" lon="17.2331384"><ele>416.5</ele><time>2026-04-07T08:39:25.251Z</time></trkpt><trkpt lat="40.784401" lon="17.2330287"><ele>416.75</ele><time>2026-04-07T08:41:31.689Z</time></trkpt><trkpt lat="40.7841846" lon="17.2329489"><ele>417.0</ele><time>2026-04-07T08:42:32.76Z</time></trkpt><trkpt lat="40.7841691" lon="17.2327196"><ele>419.0</ele><time>2026-04-07T08:42:39.116Z</time></trkpt><trkpt lat="40.7837879" lon="17.2321272"><ele>419.0</ele><time>2026-04-07T08:42:55.604Z</time></trkpt><trkpt lat="40.783685" lon="17.2320415"><ele>419.0</ele><time>2026-04-07T08:43:02.26Z</time></trkpt><trkpt lat="40.7834768" lon="17.2319715"><ele>419.0</ele><time>2026-04-07T08:43:08.8Z</time></trkpt><trkpt lat="40.7835804" lon="17.2317566"><ele>419.0</ele><time>2026-04-07T08:43:15.453Z</time></trkpt><trkpt lat="40.7835343" lon="17.2316924"><ele>419.0</ele><time>2026-04-07T08:43:22.058Z</time></trkpt><trkpt lat="40.7834704" lon="17.2315785"><ele>419.0</ele><time>2026-04-07T08:43:40.581Z</time></trkpt><trkpt lat="40.783379" lon="17.2313375"><ele>419.0</ele><time>2026-04-07T08:43:46.792Z</time></trkpt><trkpt lat="40.7832575" lon="17.2311832"><ele>421.0</ele><time>2026-04-07T08:44:25.568Z</time></trkpt><trkpt lat="40.7830455" lon="17.23095"><ele>423.0</ele><time>2026-04-07T08:44:46.086Z</time></trkpt><trkpt lat="40.7830554" lon="17.2306742"><ele>424.0</ele><time>2026-04-07T08:45:03.9Z</time></trkpt><trkpt lat="40.7829938" lon="17.23057"><ele>425.0</ele><time>2026-04-07T08:45:10.08Z</time></trkpt><trkpt lat="40.7830648" lon="17.2295925"><ele>425.0</ele><time>2026-04-07T08:46:01.968Z</time></trkpt><trkpt lat="40.7827964" lon="17.2299205"><ele>425.0</ele><time>2026-04-07T08:46:06.649Z</time></trkpt><trkpt lat="40.7826944" lon="17.229941"><ele>428.0</ele><time>2026-04-07T08:46:51.793Z</time></trkpt><trkpt lat="40.7826621" lon="17.2297538"><ele>431.0</ele><time>2026-04-07T08:47:30.95Z</time></trkpt><trkpt lat="40.782583" lon="17.2293883"><ele>434.0</ele><time>2026-04-07T08:47:37.683Z</time></trkpt><trkpt lat="40.7825857" lon="17.2291327"><ele>434.0</ele><time>2026-04-07T08:47:43.61Z</time></trkpt><trkpt lat="40.7823395" lon="17.2290309"><ele>434.0</ele><time>2026-04-07T08:48:08.869Z</time></trkpt><trkpt lat="40.7823038" lon="17.2287284"><ele>434.5</ele><time>2026-04-07T08:48:20.874Z</time></trkpt><trkpt lat="40.7822997" lon="17.2285846"><ele>435.0</ele><time>2026-04-07T08:48:32.946Z</time></trkpt><trkpt lat="40.7822895" lon="17.2283795"><ele>435.5</ele><time>2026-04-07T08:48:45.33Z</time></trkpt><trkpt lat="40.7822311" lon="17.2282843"><ele>436.0</ele><time>2026-04-07T08:49:03.583Z</time></trkpt><trkpt lat="40.7822969" lon="17.2278846"><ele>436.0</ele><time>2026-04-07T08:49:09.913Z</time></trkpt><trkpt lat="40.7821124" lon="17.2277713"><ele>436.0</ele><time>2026-04-07T08:49:15.124Z</time></trkpt><trkpt lat="40.7817973" lon="17.2273325"><ele>436.0</ele><time>2026-04-07T08:49:26.696Z</time></trkpt><trkpt lat="40.7811358" lon="17.2267378"><ele>438.0</ele><time>2026-04-07T08:49:38.255Z</time></trkpt><trkpt lat="40.781023" lon="17.2256569"><ele>437.66666666666663</ele><time>2026-04-07T08:50:00.854Z</time></trkpt><trkpt lat="40.7808461" lon="17.2255843"><ele>437.3333333333333</ele><time>2026-04-07T08:50:07.061Z</time></trkpt><trkpt lat="40.7807562" lon="17.2255128"><ele>437.0</ele><time>2026-04-07T08:50:13.211Z</time></trkpt><trkpt lat="40.7802962" lon="17.2243281"><ele>436.0</ele><time>2026-04-07T08:50:25.593Z</time></trkpt><trkpt lat="40.7794177" lon="17.2236081"><ele>436.0</ele><time>2026-04-07T08:50:31.265Z</time></trkpt><trkpt lat="40.7798437" lon="17.2239584"><ele>436.0</ele><time>2026-04-07T08:50:48.543Z</time></trkpt><trkpt lat="40.7795391" lon="17.2236621"><ele>436.0</ele><time>2026-04-07T08:51:38.293Z</time></trkpt><trkpt lat="40.7823632" lon="17.223367"><ele>436.0</ele><time>2026-04-07T08:51:43.772Z</time></trkpt><trkpt lat="40.7796621" lon="17.223549"><ele>436.5</ele><time>2026-04-07T08:52:00.833Z</time></trkpt><trkpt lat="40.7793236" lon="17.2235069"><ele>437.0</ele><time>2026-04-07T08:52:23.206Z</time></trkpt><trkpt lat="40.7787587" lon="17.2220887"><ele>441.0</ele><time>2026-04-07T08:52:37.657Z</time></trkpt><trkpt lat="40.7823676" lon="17.2233021"><ele>436.0</ele><time>2026-04-07T08:53:23.628Z</time></trkpt><trkpt lat="40.7798398" lon="17.223959"><ele>441.0</ele><time>2026-04-07T08:53:35.281Z</time></trkpt><trkpt lat="40.7823563" lon="17.2233892"><ele>441.0</ele><time>2026-04-07T08:53:41.472Z</time></trkpt><trkpt lat="40.7823717" lon="17.2233024"><ele>441.0</ele><time>2026-04-07T08:53:47.84Z</time></trkpt><trkpt lat="40.7798401" lon="17.2239617"><ele>441.0</ele><time>2026-04-07T08:54:13.236Z</time></trkpt><trkpt lat="40.7823651" lon="17.2233013"><ele>441.0</ele><time>2026-04-07T08:54:31.51Z</time></trkpt><trkpt lat="40.7823534" lon="17.2234085"><ele>441.0</ele><time>2026-04-07T08:55:02.459Z</time></trkpt><trkpt lat="40.7798401" lon="17.2239617"><ele>441.0</ele><time>2026-04-07T08:55:25.486Z</time></trkpt><trkpt lat="40.7823525" lon="17.2234839"><ele>441.0</ele><time>2026-04-07T08:55:39.322Z</time></trkpt><trkpt lat="40.7823717" lon="17.2233024"><ele>441.0</ele><time>2026-04-07T08:55:52.126Z</time></trkpt><trkpt lat="40.7778636" lon="17.2205138"><ele>436.0</ele><time>2026-04-07T08:56:55.942Z</time></trkpt><trkpt lat="40.7798396" lon="17.2239548"><ele>461.0</ele><time>2026-04-07T08:57:09.808Z</time></trkpt><trkpt lat="40.7763638" lon="17.2188619"><ele>462.0</ele><time>2026-04-07T08:58:57.621Z</time></trkpt><trkpt lat="40.7753602" lon="17.2190138"><ele>466.0</ele><time>2026-04-07T08:59:33.326Z</time></trkpt><trkpt lat="40.7745545" lon="17.2161568"><ele>466.0</ele><time>2026-04-07T09:00:24.247Z</time></trkpt><trkpt lat="40.7733697" lon="17.2153895"><ele>466.0</ele><time>2026-04-07T09:01:08.782Z</time></trkpt><trkpt lat="40.7731852" lon="17.215273"><ele>466.0</ele><time>2026-04-07T09:01:29.772Z</time></trkpt><trkpt lat="40.7734193" lon="17.2145075"><ele>467.0</ele><time>2026-04-07T09:01:35.869Z</time></trkpt><trkpt lat="40.773399" lon="17.214421"><ele>468.0</ele><time>2026-04-07T09:01:46.225Z</time></trkpt><trkpt lat="40.7733965" lon="17.2143179"><ele>469.0</ele><time>2026-04-07T09:01:52.447Z</time></trkpt><trkpt lat="40.766703" lon="17.2004115"><ele>446.0</ele><time>2026-04-07T09:07:27.671Z</time></trkpt><trkpt lat="40.7662785" lon="17.1981805"><ele>448.0</ele><time>2026-04-07T09:10:42.599Z</time></trkpt><trkpt lat="40.7661423" lon="17.1975319"><ele>448.0</ele><time>2026-04-07T09:11:37.436Z</time></trkpt><trkpt lat="40.7659504" lon="17.1967827"><ele>448.0</ele><time>2026-04-07T09:12:30.354Z</time></trkpt><trkpt lat="40.7659602" lon="17.1966762"><ele>448.0</ele><time>2026-04-07T09:12:34.587Z</time></trkpt><trkpt lat="40.7660929" lon="17.1951308"><ele>448.0</ele><time>2026-04-07T09:13:59.5Z</time></trkpt><trkpt lat="40.7660523" lon="17.1950553"><ele>447.99999999999994</ele><time>2026-04-07T09:14:03.623Z</time></trkpt><trkpt lat="40.7660459" lon="17.1949638"><ele>447.99999999999994</ele><time>2026-04-07T09:14:08.593Z</time></trkpt><trkpt lat="40.7660438" lon="17.1948654"><ele>448.0</ele><time>2026-04-07T09:14:13.608Z</time></trkpt><trkpt lat="40.7660432" lon="17.1947719"><ele>448.0</ele><time>2026-04-07T09:14:18.618Z</time></trkpt><trkpt lat="40.7661301" lon="17.1931014"><ele>432.0</ele><time>2026-04-07T09:15:41.173Z</time></trkpt><trkpt lat="40.7665182" lon="17.1895291"><ele>432.0</ele><time>2026-04-07T09:16:45.348Z</time></trkpt><trkpt lat="40.7666303" lon="17.189404"><ele>432.0</ele><time>2026-04-07T09:17:09.58Z</time></trkpt><trkpt lat="40.7667185" lon="17.1833468"><ele>424.0</ele><time>2026-04-07T09:18:17.492Z</time></trkpt><trkpt lat="40.765027" lon="17.1808528"><ele>424.0</ele><time>2026-04-07T09:20:02.476Z</time></trkpt><trkpt lat="40.7649557" lon="17.1807066"><ele>424.0</ele><time>2026-04-07T09:20:49.564Z</time></trkpt><trkpt lat="40.7659532" lon="17.1772988"><ele>416.0</ele><time>2026-04-07T09:23:21.441Z</time></trkpt><trkpt lat="40.7760375" lon="17.1436143"><ele>390.0</ele><time>2026-04-07T09:35:03.815Z</time></trkpt><trkpt lat="40.7796528" lon="17.1381714"><ele>384.0</ele><time>2026-04-07T09:38:10.812Z</time></trkpt><trkpt lat="40.7801216" lon="17.1370088"><ele>387.0</ele><time>2026-04-07T09:38:19.168Z</time></trkpt><trkpt lat="40.7804809" lon="17.1360386"><ele>385.0</ele><time>2026-04-07T09:38:48.885Z</time></trkpt><trkpt lat="40.7803345" lon="17.1355738"><ele>383.0</ele><time>2026-04-07T09:38:58.673Z</time></trkpt><trkpt lat="40.7813063" lon="17.13402"><ele>384.0</ele><time>2026-04-07T09:39:21.954Z</time></trkpt><trkpt lat="40.7808404" lon="17.1331734"><ele>379.0</ele><time>2026-04-07T09:39:28.449Z</time></trkpt><trkpt lat="40.7826824" lon="17.1303074"><ele>389.0</ele><time>2026-04-07T09:40:20.659Z</time></trkpt><trkpt lat="40.7851393" lon="17.1306776"><ele>391.0</ele><time>2026-04-07T09:40:34.236Z</time></trkpt><trkpt lat="40.7856047" lon="17.1333732"><ele>389.0</ele><time>2026-04-07T09:40:45.024Z</time></trkpt><trkpt lat="40.7851401" lon="17.1306774"><ele>395.0</ele><time>2026-04-07T09:41:56.672Z</time></trkpt><trkpt lat="40.7797682" lon="17.1327472"><ele>398.0</ele><time>2026-04-07T09:44:55.182Z</time></trkpt><trkpt lat="40.785592" lon="17.1296784"><ele>398.0</ele><time>2026-04-07T09:46:00.703Z</time></trkpt><trkpt lat="40.7857428" lon="17.1294904"><ele>398.0</ele><time>2026-04-07T09:46:06.475Z</time></trkpt><trkpt lat="40.7863478" lon="17.1299315"><ele>400.5</ele><time>2026-04-07T09:46:49.371Z</time></trkpt><trkpt lat="40.7864582" lon="17.1301778"><ele>403.0</ele><time>2026-04-07T09:47:07.819Z</time></trkpt><trkpt lat="40.7868757" lon="17.1302451"><ele>402.0</ele><time>2026-04-07T09:47:39.361Z</time></trkpt><trkpt lat="40.7865817" lon="17.1310717"><ele>407.0</ele><time>2026-04-07T09:47:43.823Z</time></trkpt><trkpt lat="40.7870932" lon="17.1326119"><ele>407.0</ele><time>2026-04-07T09:48:57.616Z</time></trkpt><trkpt lat="40.7870932" lon="17.1326119"><ele>407.0</ele><time>2026-04-07T09:48:57.616Z</time></trkpt></trkseg><trkseg><trkpt lat="40.7937369" lon="17.1228515"><ele>420.0</ele><time>2026-04-07T11:40:39.002Z</time></trkpt><trkpt lat="40.7937709" lon="17.1227504"><ele>420.0</ele><time>2026-04-07T11:40:46.036Z</time></trkpt><trkpt lat="40.7938233" lon="17.122685"><ele>420.0</ele><time>2026-04-07T11:40:49.025Z</time></trkpt><trkpt lat="40.7938697" lon="17.1225992"><ele>420.0</ele><time>2026-04-07T11:40:51.026Z</time></trkpt><trkpt lat="40.7939178" lon="17.1225256"><ele>420.0</ele><time>2026-04-07T11:40:53.029Z</time></trkpt><trkpt lat="40.7939547" lon="17.1224509"><ele>420.0</ele><time>2026-04-07T11:40:55.035Z</time></trkpt><trkpt lat="40.7939697" lon="17.1223694"><ele>420.0</ele><time>2026-04-07T11:40:57.022Z</time></trkpt><trkpt lat="40.7940367" lon="17.1222937"><ele>419.3333333333333</ele><time>2026-04-07T11:41:00.034Z</time></trkpt><trkpt lat="40.7940778" lon="17.1222221"><ele>418.66666666666663</ele><time>2026-04-07T11:41:02.016Z</time></trkpt><trkpt lat="40.7941266" lon="17.122141"><ele>418.0</ele><time>2026-04-07T11:41:04.029Z</time></trkpt><trkpt lat="40.7941722" lon="17.1220689"><ele>417.3333333333333</ele><time>2026-04-07T11:41:06.027Z</time></trkpt><trkpt lat="40.794225" lon="17.1219742"><ele>416.66666666666663</ele><time>2026-04-07T11:41:08.028Z</time></trkpt><trkpt lat="40.7942819" lon="17.1218788"><ele>416.0</ele><time>2026-04-07T11:41:10.018Z</time></trkpt><trkpt lat="40.7943399" lon="17.1217751"><ele>416.0</ele><time>2026-04-07T11:41:12.039Z</time></trkpt><trkpt lat="40.7943942" lon="17.1217004"><ele>416.0</ele><time>2026-04-07T11:41:14.018Z</time></trkpt><trkpt lat="40.7944568" lon="17.1216813"><ele>416.0</ele><time>2026-04-07T11:41:17.021Z</time></trkpt><trkpt lat="40.7944553" lon="17.1217765"><ele>416.0</ele><time>2026-04-07T11:41:27.019Z</time></trkpt><trkpt lat="40.7944919" lon="17.121846"><ele>416.0</ele><time>2026-04-07T11:41:29.024Z</time></trkpt><trkpt lat="40.7945281" lon="17.1219258"><ele>416.0</ele><time>2026-04-07T11:41:31.03Z</time></trkpt><trkpt lat="40.7945705" lon="17.1219982"><ele>416.0</ele><time>2026-04-07T11:41:33.01Z</time></trkpt><trkpt lat="40.7946098" lon="17.1220983"><ele>415.99999999999994</ele><time>2026-04-07T11:41:36.029Z</time></trkpt><trkpt lat="40.7946619" lon="17.1221862"><ele>416.0</ele><time>2026-04-07T11:41:39.021Z</time></trkpt><trkpt lat="40.7947243" lon="17.1222215"><ele>416.0</ele><time>2026-04-07T11:41:41.024Z</time></trkpt><trkpt lat="40.7947866" lon="17.1222001"><ele>416.0</ele><time>2026-04-07T11:41:43.011Z</time></trkpt><trkpt lat="40.7948592" lon="17.1221462"><ele>415.99999999999994</ele><time>2026-04-07T11:41:46.039Z</time></trkpt><trkpt lat="40.7949267" lon="17.1220775"><ele>416.0</ele><time>2026-04-07T11:41:49.028Z</time></trkpt><trkpt lat="40.7949776" lon="17.122017"><ele>416.0</ele><time>2026-04-07T11:41:52.019Z</time></trkpt><trkpt lat="40.7949072" lon="17.1219392"><ele>416.0</ele><time>2026-04-07T11:41:57.016Z</time></trkpt><trkpt lat="40.794869" lon="17.1218585"><ele>416.0</ele><time>2026-04-07T11:42:00.031Z</time></trkpt><trkpt lat="40.7948321" lon="17.1217887"><ele>416.0</ele><time>2026-04-07T11:42:02.023Z</time></trkpt><trkpt lat="40.7948127" lon="17.1216947"><ele>416.0</ele><time>2026-04-07T11:42:04.009Z</time></trkpt><trkpt lat="40.7948094" lon="17.1216013"><ele>416.0</ele><time>2026-04-07T11:42:06.027Z</time></trkpt><trkpt lat="40.7948564" lon="17.1215326"><ele>416.0</ele><time>2026-04-07T11:42:09.014Z</time></trkpt><trkpt lat="40.7949433" lon="17.121501"><ele>415.99999999999994</ele><time>2026-04-07T11:42:12.019Z</time></trkpt><trkpt lat="40.795006" lon="17.1214593"><ele>416.0</ele><time>2026-04-07T11:42:15.032Z</time></trkpt><trkpt lat="40.7950875" lon="17.1214348"><ele>416.0</ele><time>2026-04-07T11:42:18.021Z</time></trkpt><trkpt lat="40.7951755" lon="17.1214114"><ele>416.0</ele><time>2026-04-07T11:42:21.022Z</time></trkpt><trkpt lat="40.7952568" lon="17.1213893"><ele>415.99999999999994</ele><time>2026-04-07T11:42:24.03Z</time></trkpt><trkpt lat="40.7953412" lon="17.1213785"><ele>416.0</ele><time>2026-04-07T11:42:27.037Z</time></trkpt><trkpt lat="40.79543" lon="17.1213959"><ele>416.0</ele><time>2026-04-07T11:42:30.026Z</time></trkpt><trkpt lat="40.795503" lon="17.1214333"><ele>416.0</ele><time>2026-04-07T11:42:33.032Z</time></trkpt><trkpt lat="40.7955683" lon="17.1214913"><ele>416.0</ele><time>2026-04-07T11:42:36.022Z</time></trkpt><trkpt lat="40.7956173" lon="17.1215563"><ele>416.0</ele><time>2026-04-07T11:42:39.038Z</time></trkpt><trkpt lat="40.7956768" lon="17.1216093"><ele>416.0</ele><time>2026-04-07T11:42:42.024Z</time></trkpt><trkpt lat="40.79574" lon="17.12166"><ele>416.0</ele><time>2026-04-07T11:42:45.018Z</time></trkpt><trkpt lat="40.7958039" lon="17.1217147"><ele>416.0</ele><time>2026-04-07T11:42:48.033Z</time></trkpt><trkpt lat="40.7958627" lon="17.1217671"><ele>419.0</ele><time>2026-04-07T11:42:51.047Z</time></trkpt><trkpt lat="40.7959285" lon="17.121779"><ele>419.0</ele><time>2026-04-07T11:42:55.021Z</time></trkpt><trkpt lat="40.7959942" lon="17.1217566"><ele>419.0</ele><time>2026-04-07T11:43:02.018Z</time></trkpt><trkpt lat="40.796034" lon="17.121689"><ele>418.0</ele><time>2026-04-07T11:43:05.036Z</time></trkpt></trkseg><trkseg><trkpt lat="40.7960022" lon="17.1217279"><ele>418.99999999999994</ele><time>2026-04-07T12:11:53.01Z</time></trkpt><trkpt lat="40.7959264" lon="17.1217644"><ele>419.0</ele><time>2026-04-07T12:11:58.031Z</time></trkpt><trkpt lat="40.7958669" lon="17.1217335"><ele>419.0</ele><time>2026-04-07T12:12:01.011Z</time></trkpt><trkpt lat="40.7958121" lon="17.1216733"><ele>419.0</ele><time>2026-04-07T12:12:04.003Z</time></trkpt><trkpt lat="40.7957413" lon="17.1216025"><ele>419.0</ele><time>2026-04-07T12:12:07.009Z</time></trkpt><trkpt lat="40.7956921" lon="17.1215456"><ele>418.99999999999994</ele><time>2026-04-07T12:12:10.012Z</time></trkpt><trkpt lat="40.7956737" lon="17.1214658"><ele>419.0</ele><time>2026-04-07T12:12:14.009Z</time></trkpt><trkpt lat="40.7956117" lon="17.1214086"><ele>418.4</ele><time>2026-04-07T12:12:19.015Z</time></trkpt><trkpt lat="40.7955214" lon="17.1213798"><ele>417.79999999999995</ele><time>2026-04-07T12:12:22.013Z</time></trkpt><trkpt lat="40.7954547" lon="17.1213335"><ele>417.20000000000005</ele><time>2026-04-07T12:12:24.01Z</time></trkpt><trkpt lat="40.795368" lon="17.121304"><ele>416.6</ele><time>2026-04-07T12:12:26.032Z</time></trkpt><trkpt lat="40.795266" lon="17.1213074"><ele>416.0</ele><time>2026-04-07T12:12:28.01Z</time></trkpt><trkpt lat="40.7951687" lon="17.121323"><ele>414.8</ele><time>2026-04-07T12:12:30.022Z</time></trkpt><trkpt lat="40.7950702" lon="17.1213404"><ele>413.6</ele><time>2026-04-07T12:12:32.019Z</time></trkpt><trkpt lat="40.7949657" lon="17.1213734"><ele>412.4</ele><time>2026-04-07T12:12:34.018Z</time></trkpt><trkpt lat="40.794867" lon="17.1214098"><ele>411.2</ele><time>2026-04-07T12:12:36.018Z</time></trkpt><trkpt lat="40.7947816" lon="17.1214638"><ele>410.0</ele><time>2026-04-07T12:12:38.005Z</time></trkpt><trkpt lat="40.7947538" lon="17.1215409"><ele>410.99999999999994</ele><time>2026-04-07T12:12:40.008Z</time></trkpt><trkpt lat="40.7947814" lon="17.1216518"><ele>412.0</ele><time>2026-04-07T12:12:43.005Z</time></trkpt><trkpt lat="40.794832" lon="17.1217162"><ele>413.0</ele><time>2026-04-07T12:12:46.001Z</time></trkpt><trkpt lat="40.7948771" lon="17.1217864"><ele>414.0</ele><time>2026-04-07T12:12:51.015Z</time></trkpt><trkpt lat="40.7948138" lon="17.1218459"><ele>414.99999999999994</ele><time>2026-04-07T12:13:36.987Z</time></trkpt><trkpt lat="40.7947633" lon="17.1219119"><ele>416.0</ele><time>2026-04-07T12:13:39.983Z</time></trkpt><trkpt lat="40.7946864" lon="17.1219544"><ele>415.99999999999994</ele><time>2026-04-07T12:13:42.999Z</time></trkpt><trkpt lat="40.7946173" lon="17.1220329"><ele>416.0</ele><time>2026-04-07T12:13:46.008Z</time></trkpt><trkpt lat="40.7945545" lon="17.1220706"><ele>416.0</ele><time>2026-04-07T12:13:48.003Z</time></trkpt><trkpt lat="40.7945326" lon="17.1221651"><ele>416.0</ele><time>2026-04-07T12:13:51.008Z</time></trkpt><trkpt lat="40.7944978" lon="17.1222769"><ele>415.99999999999994</ele><time>2026-04-07T12:13:53.986Z</time></trkpt><trkpt lat="40.7944288" lon="17.1223395"><ele>416.0</ele><time>2026-04-07T12:13:55.985Z</time></trkpt><trkpt lat="40.7943562" lon="17.1223842"><ele>416.57142857142856</ele><time>2026-04-07T12:13:59.018Z</time></trkpt><trkpt lat="40.7943025" lon="17.1224704"><ele>417.14285714285717</ele><time>2026-04-07T12:14:02.01Z</time></trkpt><trkpt lat="40.7942735" lon="17.1225464"><ele>417.7142857142857</ele><time>2026-04-07T12:14:07.004Z</time></trkpt><trkpt lat="40.7943447" lon="17.1225635"><ele>418.2857142857143</ele><time>2026-04-07T12:14:35.978Z</time></trkpt><trkpt lat="40.7944165" lon="17.122535"><ele>418.8571428571429</ele><time>2026-04-07T12:14:46.993Z</time></trkpt><trkpt lat="40.7943532" lon="17.1224985"><ele>419.42857142857144</ele><time>2026-04-07T12:14:53.982Z</time></trkpt><trkpt lat="40.7942777" lon="17.1224799"><ele>420.0</ele><time>2026-04-07T12:14:58.992Z</time></trkpt><trkpt lat="40.7942074" lon="17.122482"><ele>420.0</ele><time>2026-04-07T12:15:02.981Z</time></trkpt><trkpt lat="40.7941304" lon="17.1224867"><ele>420.0</ele><time>2026-04-07T12:15:07.983Z</time></trkpt><trkpt lat="40.794065" lon="17.1225173"><ele>420.0</ele><time>2026-04-07T12:15:12.977Z</time></trkpt><trkpt lat="40.7940004" lon="17.1225176"><ele>420.0</ele><time>2026-04-07T12:15:17.998Z</time></trkpt><trkpt lat="40.7940223" lon="17.1224037"><ele>420.0</ele><time>2026-04-07T12:15:52.99Z</time></trkpt><trkpt lat="40.7940921" lon="17.1223858"><ele>420.0</ele><time>2026-04-07T12:16:07.998Z</time></trkpt><trkpt lat="40.7941592" lon="17.1223714"><ele>420.0</ele><time>2026-04-07T12:16:11.992Z</time></trkpt><trkpt lat="40.7942389" lon="17.1223143"><ele>419.3333333333333</ele><time>2026-04-07T12:16:16.003Z</time></trkpt><trkpt lat="40.7943186" lon="17.1222629"><ele>418.66666666666663</ele><time>2026-04-07T12:16:18.998Z</time></trkpt><trkpt lat="40.7943791" lon="17.1221604"><ele>418.0</ele><time>2026-04-07T12:16:21.006Z</time></trkpt><trkpt lat="40.7944315" lon="17.1220729"><ele>417.3333333333333</ele><time>2026-04-07T12:16:23.018Z</time></trkpt><trkpt lat="40.7944911" lon="17.1220144"><ele>416.66666666666663</ele><time>2026-04-07T12:16:25.012Z</time></trkpt><trkpt lat="40.7945686" lon="17.1219347"><ele>416.0</ele><time>2026-04-07T12:16:27.001Z</time></trkpt><trkpt lat="40.7946118" lon="17.1218715"><ele>415.99999999999994</ele><time>2026-04-07T12:16:29.02Z</time></trkpt><trkpt lat="40.7946048" lon="17.1217381"><ele>416.0</ele><time>2026-04-07T12:16:33.019Z</time></trkpt><trkpt lat="40.7945701" lon="17.1216468"><ele>416.0</ele><time>2026-04-07T12:16:35.987Z</time></trkpt><trkpt lat="40.7944971" lon="17.1216036"><ele>416.0</ele><time>2026-04-07T12:16:39.013Z</time></trkpt><trkpt lat="40.794414" lon="17.1215441"><ele>415.99999999999994</ele><time>2026-04-07T12:16:42.022Z</time></trkpt><trkpt lat="40.7943346" lon="17.121542"><ele>416.0</ele><time>2026-04-07T12:16:43.992Z</time></trkpt><trkpt lat="40.7944002" lon="17.1215356"><ele>416.0</ele><time>2026-04-07T12:16:45.01Z</time></trkpt><trkpt lat="40.7947154" lon="17.1215852"><ele>416.0</ele><time>2026-04-07T12:17:18.984Z</time></trkpt><trkpt lat="40.7946951" lon="17.1214533"><ele>416.0</ele><time>2026-04-07T12:17:42.974Z</time></trkpt><trkpt lat="40.7947124" lon="17.1213732"><ele>415.99999999999994</ele><time>2026-04-07T12:17:44.971Z</time></trkpt><trkpt lat="40.7947806" lon="17.1212948"><ele>416.0</ele><time>2026-04-07T12:17:47.977Z</time></trkpt><trkpt lat="40.7948686" lon="17.1212682"><ele>416.0</ele><time>2026-04-07T12:17:50.966Z</time></trkpt><trkpt lat="40.7949439" lon="17.1213204"><ele>416.0</ele><time>2026-04-07T12:17:52.976Z</time></trkpt><trkpt lat="40.7949883" lon="17.1213979"><ele>415.99999999999994</ele><time>2026-04-07T12:17:53.974Z</time></trkpt><trkpt lat="40.7950366" lon="17.1214865"><ele>416.0</ele><time>2026-04-07T12:17:55.981Z</time></trkpt><trkpt lat="40.7951051" lon="17.1215936"><ele>415.99999999999994</ele><time>2026-04-07T12:17:57.971Z</time></trkpt><trkpt lat="40.7951434" lon="17.1216646"><ele>416.0</ele><time>2026-04-07T12:17:58.972Z</time></trkpt><trkpt lat="40.7952356" lon="17.1217695"><ele>416.0</ele><time>2026-04-07T12:18:00.97Z</time></trkpt><trkpt lat="40.7952774" lon="17.1218413"><ele>416.0</ele><time>2026-04-07T12:18:04.973Z</time></trkpt><trkpt lat="40.7953385" lon="17.1219213"><ele>415.99999999999994</ele><time>2026-04-07T12:18:06.973Z</time></trkpt><trkpt lat="40.7953634" lon="17.1220286"><ele>416.0</ele><time>2026-04-07T12:18:08.974Z</time></trkpt><trkpt lat="40.7953342" lon="17.1221213"><ele>416.0</ele><time>2026-04-07T12:18:10.973Z</time></trkpt><trkpt lat="40.7953168" lon="17.12229"><ele>416.0</ele><time>2026-04-07T12:18:12.978Z</time></trkpt><trkpt lat="40.7953218" lon="17.1223845"><ele>416.0</ele><time>2026-04-07T12:18:14.97Z</time></trkpt><trkpt lat="40.7952836" lon="17.1222613"><ele>416.0</ele><time>2026-04-07T12:18:19.973Z</time></trkpt><trkpt lat="40.7951333" lon="17.1219739"><ele>416.0</ele><time>2026-04-07T12:18:45.974Z</time></trkpt><trkpt lat="40.7948503" lon="17.1216826"><ele>416.0</ele><time>2026-04-07T12:28:39.993Z</time></trkpt><trkpt lat="40.7948184" lon="17.121588"><ele>416.0</ele><time>2026-04-07T12:28:43.018Z</time></trkpt><trkpt lat="40.7947432" lon="17.1215254"><ele>415.7142857142857</ele><time>2026-04-07T12:28:45.999Z</time></trkpt><trkpt lat="40.7946458" lon="17.1215124"><ele>415.42857142857144</ele><time>2026-04-07T12:28:49.018Z</time></trkpt><trkpt lat="40.7945825" lon="17.1214855"><ele>415.14285714285717</ele><time>2026-04-07T12:28:51.013Z</time></trkpt><trkpt lat="40.7945157" lon="17.1214903"><ele>414.8571428571429</ele><time>2026-04-07T12:28:53.008Z</time></trkpt><trkpt lat="40.7944484" lon="17.1215173"><ele>414.57142857142856</ele><time>2026-04-07T12:28:55.014Z</time></trkpt><trkpt lat="40.7943902" lon="17.1215645"><ele>414.28571428571433</ele><time>2026-04-07T12:28:57.019Z</time></trkpt><trkpt lat="40.7943276" lon="17.1215773"><ele>414.0</ele><time>2026-04-07T12:28:59.015Z</time></trkpt><trkpt lat="40.794258" lon="17.1214931"><ele>412.4</ele><time>2026-04-07T12:29:01.005Z</time></trkpt><trkpt lat="40.7942013" lon="17.1213791"><ele>410.79999999999995</ele><time>2026-04-07T12:29:03.02Z</time></trkpt><trkpt lat="40.7941391" lon="17.1212488"><ele>409.20000000000005</ele><time>2026-04-07T12:29:05.008Z</time></trkpt><trkpt lat="40.7940911" lon="17.1211221"><ele>407.6</ele><time>2026-04-07T12:29:07.013Z</time></trkpt><trkpt lat="40.7940637" lon="17.1210078"><ele>406.0</ele><time>2026-04-07T12:29:09.01Z</time></trkpt><trkpt lat="40.7941145" lon="17.1209133"><ele>406.0</ele><time>2026-04-07T12:29:11.003Z</time></trkpt><trkpt lat="40.7941857" lon="17.1208263"><ele>406.0</ele><time>2026-04-07T12:29:13.004Z</time></trkpt><trkpt lat="40.7942583" lon="17.1207217"><ele>406.0</ele><time>2026-04-07T12:29:15.014Z</time></trkpt><trkpt lat="40.7943272" lon="17.1206207"><ele>406.0</ele><time>2026-04-07T12:29:17.001Z</time></trkpt><trkpt lat="40.7943958" lon="17.1205222"><ele>406.0</ele><time>2026-04-07T12:29:19.004Z</time></trkpt><trkpt lat="40.7944545" lon="17.1204166"><ele>405.6</ele><time>2026-04-07T12:29:21.016Z</time></trkpt><trkpt lat="40.7945045" lon="17.1202988"><ele>405.20000000000005</ele><time>2026-04-07T12:29:23.01Z</time></trkpt><trkpt lat="40.79452" lon="17.1201641"><ele>404.79999999999995</ele><time>2026-04-07T12:29:25.01Z</time></trkpt><trkpt lat="40.7945123" lon="17.1200079"><ele>404.4</ele><time>2026-04-07T12:29:27.009Z</time></trkpt><trkpt lat="40.7944874" lon="17.1198525"><ele>404.0</ele><time>2026-04-07T12:29:29.035Z</time></trkpt><trkpt lat="40.794478" lon="17.1197692"><ele>403.16666666666663</ele><time>2026-04-07T12:29:30.016Z</time></trkpt><trkpt lat="40.7944796" lon="17.1196848"><ele>402.3333333333333</ele><time>2026-04-07T12:29:31.017Z</time></trkpt><trkpt lat="40.7944868" lon="17.1195173"><ele>401.5</ele><time>2026-04-07T12:29:33.017Z</time></trkpt><trkpt lat="40.7944992" lon="17.1194331"><ele>400.66666666666663</ele><time>2026-04-07T12:29:34.014Z</time></trkpt><trkpt lat="40.794514" lon="17.1193507"><ele>399.8333333333333</ele><time>2026-04-07T12:29:35.015Z</time></trkpt><trkpt lat="40.7945415" lon="17.1192051"><ele>399.0</ele><time>2026-04-07T12:29:37.014Z</time></trkpt><trkpt lat="40.7945706" lon="17.1190658"><ele>397.8333333333333</ele><time>2026-04-07T12:29:39.015Z</time></trkpt><trkpt lat="40.7945968" lon="17.1189459"><ele>396.66666666666663</ele><time>2026-04-07T12:29:41.007Z</time></trkpt><trkpt lat="40.7946153" lon="17.1188387"><ele>395.5</ele><time>2026-04-07T12:29:43.011Z</time></trkpt><trkpt lat="40.7946242" lon="17.1187513"><ele>394.3333333333333</ele><time>2026-04-07T12:29:45.014Z</time></trkpt><trkpt lat="40.7946335" lon="17.1186591"><ele>393.16666666666663</ele><time>2026-04-07T12:29:48.018Z</time></trkpt><trkpt lat="40.7945764" lon="17.1185647"><ele>392.0</ele><time>2026-04-07T12:29:51.01Z</time></trkpt><trkpt lat="40.794505" lon="17.1185224"><ele>392.0</ele><time>2026-04-07T12:29:53.005Z</time></trkpt><trkpt lat="40.79442" lon="17.1184945"><ele>392.0</ele><time>2026-04-07T12:29:55.004Z</time></trkpt><trkpt lat="40.7943269" lon="17.1184788"><ele>392.0</ele><time>2026-04-07T12:29:57.016Z</time></trkpt><trkpt lat="40.7942235" lon="17.1184934"><ele>392.0</ele><time>2026-04-07T12:29:59.04Z</time></trkpt><trkpt lat="40.7941242" lon="17.1185519"><ele>392.0</ele><time>2026-04-07T12:30:01.009Z</time></trkpt><trkpt lat="40.7940227" lon="17.1186245"><ele>390.85714285714283</ele><time>2026-04-07T12:30:03.016Z</time></trkpt><trkpt lat="40.7939704" lon="17.1186718"><ele>389.7142857142857</ele><time>2026-04-07T12:30:04.024Z</time></trkpt><trkpt lat="40.7939164" lon="17.1187297"><ele>388.57142857142856</ele><time>2026-04-07T12:30:05.013Z</time></trkpt><trkpt lat="40.7938609" lon="17.1187847"><ele>387.42857142857144</ele><time>2026-04-07T12:30:06.017Z</time></trkpt><trkpt lat="40.7938042" lon="17.1188348"><ele>386.2857142857143</ele><time>2026-04-07T12:30:07.023Z</time></trkpt><trkpt lat="40.7937462" lon="17.1188906"><ele>385.1428571428571</ele><time>2026-04-07T12:30:08.009Z</time></trkpt><trkpt lat="40.7936887" lon="17.1189502"><ele>384.0</ele><time>2026-04-07T12:30:09.035Z</time></trkpt><trkpt lat="40.7936308" lon="17.1190044"><ele>384.0</ele><time>2026-04-07T12:30:10.011Z</time></trkpt><trkpt lat="40.7935714" lon="17.1190552"><ele>384.0</ele><time>2026-04-07T12:30:11.007Z</time></trkpt><trkpt lat="40.7935092" lon="17.1191047"><ele>384.0</ele><time>2026-04-07T12:30:12.017Z</time></trkpt><trkpt lat="40.793443" lon="17.11915"><ele>384.0</ele><time>2026-04-07T12:30:13.02Z</time></trkpt><trkpt lat="40.7933751" lon="17.1191943"><ele>384.0</ele><time>2026-04-07T12:30:14.029Z</time></trkpt><trkpt lat="40.7933129" lon="17.1192332"><ele>384.0</ele><time>2026-04-07T12:30:15.013Z</time></trkpt><trkpt lat="40.7931958" lon="17.1193015"><ele>384.0</ele><time>2026-04-07T12:30:17.014Z</time></trkpt><trkpt lat="40.7931345" lon="17.1193346"><ele>384.0</ele><time>2026-04-07T12:30:17.996Z</time></trkpt><trkpt lat="40.7930306" lon="17.1193453"><ele>384.0</ele><time>2026-04-07T12:30:20.004Z</time></trkpt><trkpt lat="40.7929588" lon="17.1192601"><ele>384.0</ele><time>2026-04-07T12:30:22.002Z</time></trkpt><trkpt lat="40.7929298" lon="17.1191085"><ele>384.0</ele><time>2026-04-07T12:30:24.012Z</time></trkpt><trkpt lat="40.7928969" lon="17.1189608"><ele>383.1666666666667</ele><time>2026-04-07T12:30:26.014Z</time></trkpt><trkpt lat="40.792869" lon="17.1188855"><ele>382.3333333333333</ele><time>2026-04-07T12:30:27.008Z</time></trkpt><trkpt lat="40.7928142" lon="17.1187311"><ele>381.5</ele><time>2026-04-07T12:30:29.008Z</time></trkpt><trkpt lat="40.7927849" lon="17.1186463"><ele>380.66666666666663</ele><time>2026-04-07T12:30:30.009Z</time></trkpt><trkpt lat="40.7927531" lon="17.1185626"><ele>379.8333333333333</ele><time>2026-04-07T12:30:31.019Z</time></trkpt><trkpt lat="40.7927187" lon="17.1184756"><ele>379.0</ele><time>2026-04-07T12:30:32.013Z</time></trkpt><trkpt lat="40.792687" lon="17.118389"><ele>378.5</ele><time>2026-04-07T12:30:33.025Z</time></trkpt><trkpt lat="40.7926542" lon="17.1183025"><ele>378.0</ele><time>2026-04-07T12:30:34.015Z</time></trkpt><trkpt lat="40.7926177" lon="17.1182142"><ele>377.5</ele><time>2026-04-07T12:30:35.023Z</time></trkpt><trkpt lat="40.7925821" lon="17.1181272"><ele>377.0</ele><time>2026-04-07T12:30:36.012Z</time></trkpt><trkpt lat="40.7925512" lon="17.1180365"><ele>376.5</ele><time>2026-04-07T12:30:37.008Z</time></trkpt><trkpt lat="40.792519" lon="17.1179435"><ele>376.0</ele><time>2026-04-07T12:30:38.009Z</time></trkpt><trkpt lat="40.7924876" lon="17.1178538"><ele>375.8333333333333</ele><time>2026-04-07T12:30:39.021Z</time></trkpt><trkpt lat="40.7924574" lon="17.1177639"><ele>375.66666666666663</ele><time>2026-04-07T12:30:40.016Z</time></trkpt><trkpt lat="40.7924269" lon="17.1176705"><ele>375.5</ele><time>2026-04-07T12:30:41.008Z</time></trkpt><trkpt lat="40.7923994" lon="17.1175707"><ele>375.3333333333333</ele><time>2026-04-07T12:30:42.015Z</time></trkpt><trkpt lat="40.7923714" lon="17.1174732"><ele>375.1666666666667</ele><time>2026-04-07T12:30:43.019Z</time></trkpt><trkpt lat="40.7923499" lon="17.1173742"><ele>375.0</ele><time>2026-04-07T12:30:44.008Z</time></trkpt><trkpt lat="40.7923251" lon="17.1172756"><ele>374.8571428571429</ele><time>2026-04-07T12:30:45.018Z</time></trkpt><trkpt lat="40.792303" lon="17.1171775"><ele>374.71428571428567</ele><time>2026-04-07T12:30:46.025Z</time></trkpt><trkpt lat="40.792285" lon="17.11708"><ele>374.57142857142856</ele><time>2026-04-07T12:30:47.023Z</time></trkpt><trkpt lat="40.7922687" lon="17.116985"><ele>374.42857142857144</ele><time>2026-04-07T12:30:48.035Z</time></trkpt><trkpt lat="40.7922494" lon="17.1168905"><ele>374.28571428571433</ele><time>2026-04-07T12:30:49.011Z</time></trkpt><trkpt lat="40.7922356" lon="17.1168063"><ele>374.1428571428571</ele><time>2026-04-07T12:30:50.016Z</time></trkpt><trkpt lat="40.7922232" lon="17.1167184"><ele>374.0</ele><time>2026-04-07T12:30:51.019Z</time></trkpt><trkpt lat="40.7922117" lon="17.1166331"><ele>373.79999999999995</ele><time>2026-04-07T12:30:52.007Z</time></trkpt><trkpt lat="40.792201" lon="17.116545"><ele>373.59999999999997</ele><time>2026-04-07T12:30:53.033Z</time></trkpt><trkpt lat="40.7921935" lon="17.1163956"><ele>373.4</ele><time>2026-04-07T12:30:55.013Z</time></trkpt><trkpt lat="40.7921766" lon="17.1162497"><ele>373.2</ele><time>2026-04-07T12:30:57.023Z</time></trkpt><trkpt lat="40.7921633" lon="17.1161165"><ele>373.0</ele><time>2026-04-07T12:30:59.021Z</time></trkpt><trkpt lat="40.7921551" lon="17.1159987"><ele>373.0</ele><time>2026-04-07T12:31:01.016Z</time></trkpt><trkpt lat="40.7921494" lon="17.1158889"><ele>373.0</ele><time>2026-04-07T12:31:03.014Z</time></trkpt><trkpt lat="40.792148" lon="17.115778"><ele>373.0</ele><time>2026-04-07T12:31:05.031Z</time></trkpt><trkpt lat="40.7921471" lon="17.1156643"><ele>373.0</ele><time>2026-04-07T12:31:07.015Z</time></trkpt><trkpt lat="40.7921454" lon="17.115562"><ele>373.0</ele><time>2026-04-07T12:31:08.997Z</time></trkpt><trkpt lat="40.7921475" lon="17.1154721"><ele>373.0</ele><time>2026-04-07T12:31:11.013Z</time></trkpt><trkpt lat="40.7921465" lon="17.1153715"><ele>372.8333333333333</ele><time>2026-04-07T12:31:14.013Z</time></trkpt><trkpt lat="40.7921546" lon="17.1152587"><ele>372.66666666666663</ele><time>2026-04-07T12:31:18.009Z</time></trkpt><trkpt lat="40.7921701" lon="17.1151592"><ele>372.5</ele><time>2026-04-07T12:31:21.04Z</time></trkpt><trkpt lat="40.7921865" lon="17.1150695"><ele>372.3333333333333</ele><time>2026-04-07T12:31:24.016Z</time></trkpt><trkpt lat="40.7921946" lon="17.1149627"><ele>372.1666666666667</ele><time>2026-04-07T12:31:27.023Z</time></trkpt><trkpt lat="40.7922099" lon="17.1148525"><ele>372.0</ele><time>2026-04-07T12:31:30.009Z</time></trkpt><trkpt lat="40.7922265" lon="17.1147387"><ele>371.5</ele><time>2026-04-07T12:31:33.029Z</time></trkpt><trkpt lat="40.7922381" lon="17.1146474"><ele>371.0</ele><time>2026-04-07T12:31:35.021Z</time></trkpt><trkpt lat="40.7922497" lon="17.1145514"><ele>370.5</ele><time>2026-04-07T12:31:37.015Z</time></trkpt><trkpt lat="40.7922609" lon="17.1144423"><ele>370.0</ele><time>2026-04-07T12:31:39.008Z</time></trkpt><trkpt lat="40.7922799" lon="17.1143232"><ele>369.5</ele><time>2026-04-07T12:31:41.022Z</time></trkpt><trkpt lat="40.7922951" lon="17.1141935"><ele>369.0</ele><time>2026-04-07T12:31:43.029Z</time></trkpt><trkpt lat="40.792308" lon="17.1140576"><ele>368.79999999999995</ele><time>2026-04-07T12:31:45.021Z</time></trkpt><trkpt lat="40.7923306" lon="17.1139049"><ele>368.59999999999997</ele><time>2026-04-07T12:31:47.019Z</time></trkpt><trkpt lat="40.7923478" lon="17.1137467"><ele>368.4</ele><time>2026-04-07T12:31:49.013Z</time></trkpt><trkpt lat="40.7923523" lon="17.1135818"><ele>368.2</ele><time>2026-04-07T12:31:51.01Z</time></trkpt><trkpt lat="40.7923521" lon="17.1134959"><ele>368.0</ele><time>2026-04-07T12:31:52.032Z</time></trkpt><trkpt lat="40.7923469" lon="17.1133391"><ele>368.59999999999997</ele><time>2026-04-07T12:31:54.019Z</time></trkpt><trkpt lat="40.7923438" lon="17.1131906"><ele>369.2</ele><time>2026-04-07T12:31:56.012Z</time></trkpt><trkpt lat="40.7923416" lon="17.1130527"><ele>369.8</ele><time>2026-04-07T12:31:58.002Z</time></trkpt><trkpt lat="40.7923308" lon="17.112925"><ele>370.4</ele><time>2026-04-07T12:31:59.989Z</time></trkpt><trkpt lat="40.792325" lon="17.1128215"><ele>371.0</ele><time>2026-04-07T12:32:02.003Z</time></trkpt><trkpt lat="40.7923204" lon="17.1127342"><ele>371.0</ele><time>2026-04-07T12:32:04.018Z</time></trkpt><trkpt lat="40.7923081" lon="17.112638"><ele>371.0</ele><time>2026-04-07T12:32:08.011Z</time></trkpt><trkpt lat="40.7922951" lon="17.1125549"><ele>371.0</ele><time>2026-04-07T12:32:21.015Z</time></trkpt><trkpt lat="40.7922741" lon="17.1124765"><ele>371.0</ele><time>2026-04-07T12:32:26.015Z</time></trkpt><trkpt lat="40.7922555" lon="17.1123806"><ele>371.0</ele><time>2026-04-07T12:32:32.024Z</time></trkpt><trkpt lat="40.7922372" lon="17.1122856"><ele>371.0</ele><time>2026-04-07T12:32:38.023Z</time></trkpt><trkpt lat="40.7922152" lon="17.1121939"><ele>371.0</ele><time>2026-04-07T12:32:44.021Z</time></trkpt><trkpt lat="40.7921977" lon="17.1121066"><ele>371.2857142857143</ele><time>2026-04-07T12:32:50.017Z</time></trkpt><trkpt lat="40.7921789" lon="17.1120188"><ele>371.57142857142856</ele><time>2026-04-07T12:32:56.004Z</time></trkpt><trkpt lat="40.7921624" lon="17.1119384"><ele>371.8571428571429</ele><time>2026-04-07T12:33:02.029Z</time></trkpt><trkpt lat="40.7921422" lon="17.1118538"><ele>372.1428571428571</ele><time>2026-04-07T12:33:08.049Z</time></trkpt><trkpt lat="40.7921155" lon="17.1117679"><ele>372.42857142857144</ele><time>2026-04-07T12:33:15.059Z</time></trkpt><trkpt lat="40.7920922" lon="17.1116733"><ele>372.7142857142857</ele><time>2026-04-07T12:33:21.033Z</time></trkpt><trkpt lat="40.7920562" lon="17.1115971"><ele>373.0</ele><time>2026-04-07T12:33:27.026Z</time></trkpt><trkpt lat="40.7920211" lon="17.1115144"><ele>373.14285714285717</ele><time>2026-04-07T12:33:34.02Z</time></trkpt><trkpt lat="40.791993" lon="17.1114371"><ele>373.28571428571433</ele><time>2026-04-07T12:33:40.04Z</time></trkpt><trkpt lat="40.7919606" lon="17.1113537"><ele>373.42857142857144</ele><time>2026-04-07T12:33:46.018Z</time></trkpt><trkpt lat="40.7919261" lon="17.1112667"><ele>373.57142857142856</ele><time>2026-04-07T12:33:52.041Z</time></trkpt><trkpt lat="40.7918973" lon="17.111189"><ele>373.7142857142857</ele><time>2026-04-07T12:33:57.053Z</time></trkpt><trkpt lat="40.7918674" lon="17.1111073"><ele>373.85714285714283</ele><time>2026-04-07T12:34:02.026Z</time></trkpt><trkpt lat="40.7918379" lon="17.1110139"><ele>374.0</ele><time>2026-04-07T12:34:08.019Z</time></trkpt><trkpt lat="40.7918098" lon="17.1109245"><ele>374.0</ele><time>2026-04-07T12:34:14.018Z</time></trkpt><trkpt lat="40.7917846" lon="17.1108424"><ele>374.0</ele><time>2026-04-07T12:34:19.027Z</time></trkpt><trkpt lat="40.7917539" lon="17.1107596"><ele>374.0</ele><time>2026-04-07T12:34:25.048Z</time></trkpt><trkpt lat="40.7917234" lon="17.1106782"><ele>374.0</ele><time>2026-04-07T12:34:31.014Z</time></trkpt><trkpt lat="40.7916979" lon="17.110602"><ele>374.0</ele><time>2026-04-07T12:34:37.054Z</time></trkpt><trkpt lat="40.79167" lon="17.1105022"><ele>374.0</ele><time>2026-04-07T12:34:43.058Z</time></trkpt><trkpt lat="40.7916408" lon="17.1104223"><ele>374.0</ele><time>2026-04-07T12:34:46.989Z</time></trkpt><trkpt lat="40.7915991" lon="17.1103351"><ele>374.0</ele><time>2026-04-07T12:34:51.035Z</time></trkpt><trkpt lat="40.7915493" lon="17.1102423"><ele>374.0</ele><time>2026-04-07T12:34:55.055Z</time></trkpt><trkpt lat="40.7915035" lon="17.1101537"><ele>374.0</ele><time>2026-04-07T12:34:58.013Z</time></trkpt><trkpt lat="40.7914653" lon="17.1100814"><ele>374.0</ele><time>2026-04-07T12:35:00.057Z</time></trkpt><trkpt lat="40.7914135" lon="17.1099979"><ele>374.0</ele><time>2026-04-07T12:35:02.039Z</time></trkpt><trkpt lat="40.7913521" lon="17.1098937"><ele>374.0</ele><time>2026-04-07T12:35:04.013Z</time></trkpt><trkpt lat="40.7912842" lon="17.1097551"><ele>373.5</ele><time>2026-04-07T12:35:06.036Z</time></trkpt><trkpt lat="40.7912524" lon="17.1096713"><ele>373.0</ele><time>2026-04-07T12:35:07.035Z</time></trkpt><trkpt lat="40.7912223" lon="17.1095806"><ele>372.5</ele><time>2026-04-07T12:35:08.025Z</time></trkpt><trkpt lat="40.791192" lon="17.1094847"><ele>372.0</ele><time>2026-04-07T12:35:09.035Z</time></trkpt><trkpt lat="40.791158" lon="17.109378"><ele>371.5</ele><time>2026-04-07T12:35:10.031Z</time></trkpt><trkpt lat="40.7911256" lon="17.109272"><ele>371.0</ele><time>2026-04-07T12:35:11.131Z</time></trkpt><trkpt lat="40.7910954" lon="17.109159"><ele>369.6</ele><time>2026-04-07T12:35:12.054Z</time></trkpt><trkpt lat="40.7910689" lon="17.1090414"><ele>368.20000000000005</ele><time>2026-04-07T12:35:13.046Z</time></trkpt><trkpt lat="40.7910522" lon="17.1089192"><ele>366.79999999999995</ele><time>2026-04-07T12:35:14.043Z</time></trkpt><trkpt lat="40.7910396" lon="17.1087968"><ele>365.4</ele><time>2026-04-07T12:35:15.058Z</time></trkpt><trkpt lat="40.7910212" lon="17.1086834"><ele>364.0</ele><time>2026-04-07T12:35:16.046Z</time></trkpt><trkpt lat="40.790999" lon="17.1085742"><ele>364.0</ele><time>2026-04-07T12:35:17.066Z</time></trkpt><trkpt lat="40.7909722" lon="17.1084803"><ele>364.0</ele><time>2026-04-07T12:35:18.053Z</time></trkpt><trkpt lat="40.7909468" lon="17.1083923"><ele>364.0</ele><time>2026-04-07T12:35:19.03Z</time></trkpt><trkpt lat="40.7908954" lon="17.1082485"><ele>364.0</ele><time>2026-04-07T12:35:21.046Z</time></trkpt><trkpt lat="40.7908513" lon="17.108127"><ele>364.0</ele><time>2026-04-07T12:35:23.045Z</time></trkpt><trkpt lat="40.7908117" lon="17.1080451"><ele>364.0</ele><time>2026-04-07T12:35:25.051Z</time></trkpt><trkpt lat="40.7907719" lon="17.1079496"><ele>364.8333333333333</ele><time>2026-04-07T12:35:28.03Z</time></trkpt><trkpt lat="40.790738" lon="17.1078452"><ele>365.66666666666663</ele><time>2026-04-07T12:35:31.042Z</time></trkpt><trkpt lat="40.7907063" lon="17.1077478"><ele>366.5</ele><time>2026-04-07T12:35:33.992Z</time></trkpt><trkpt lat="40.7906667" lon="17.1076524"><ele>367.3333333333333</ele><time>2026-04-07T12:35:37.058Z</time></trkpt><trkpt lat="40.7906151" lon="17.1075657"><ele>368.1666666666667</ele><time>2026-04-07T12:35:40.07Z</time></trkpt><trkpt lat="40.7905524" lon="17.1075004"><ele>369.0</ele><time>2026-04-07T12:35:43.061Z</time></trkpt><trkpt lat="40.7905029" lon="17.1074378"><ele>369.57142857142856</ele><time>2026-04-07T12:35:46.052Z</time></trkpt><trkpt lat="40.7904636" lon="17.1073702"><ele>370.1428571428571</ele><time>2026-04-07T12:35:49.046Z</time></trkpt><trkpt lat="40.790413" lon="17.1073013"><ele>370.7142857142857</ele><time>2026-04-07T12:35:52.034Z</time></trkpt><trkpt lat="40.7904188" lon="17.1072103"><ele>371.2857142857143</ele><time>2026-04-07T12:35:55.05Z</time></trkpt><trkpt lat="40.7904677" lon="17.1071471"><ele>371.8571428571429</ele><time>2026-04-07T12:36:41.991Z</time></trkpt><trkpt lat="40.7905164" lon="17.1070731"><ele>372.42857142857144</ele><time>2026-04-07T12:36:45.004Z</time></trkpt><trkpt lat="40.7905689" lon="17.1069814"><ele>373.0</ele><time>2026-04-07T12:36:48.007Z</time></trkpt><trkpt lat="40.7906271" lon="17.1068883"><ele>373.0</ele><time>2026-04-07T12:36:51.022Z</time></trkpt><trkpt lat="40.790681" lon="17.1067909"><ele>373.0</ele><time>2026-04-07T12:36:54.024Z</time></trkpt><trkpt lat="40.7907407" lon="17.1066946"><ele>373.0</ele><time>2026-04-07T12:36:57.021Z</time></trkpt><trkpt lat="40.7907858" lon="17.1066079"><ele>373.0</ele><time>2026-04-07T12:37:00.036Z</time></trkpt><trkpt lat="40.7908095" lon="17.1065301"><ele>373.0</ele><time>2026-04-07T12:37:15.049Z</time></trkpt><trkpt lat="40.7908305" lon="17.1066137"><ele>373.0</ele><time>2026-04-07T12:37:25.989Z</time></trkpt><trkpt lat="40.7908896" lon="17.106656"><ele>373.0</ele><time>2026-04-07T12:37:28.994Z</time></trkpt><trkpt lat="40.7909806" lon="17.1066333"><ele>373.0</ele><time>2026-04-07T12:37:34.001Z</time></trkpt><trkpt lat="40.7908394" lon="17.1065468"><ele>372.0</ele><time>2026-04-07T12:37:36.981Z</time></trkpt><trkpt lat="40.7908394" lon="17.1065468"><ele>372.0</ele><time>2026-04-07T12:37:36.981Z</time></trkpt></trkseg></trk></gpx>